<?xml version="1.0" encoding="UTF-8" standalone="no" ?>
<gpx xmlns="http://www.topografix.com/GPX/1/1" xmlns:xsi="http://www.w3.org/2001/XMLSchema-instance" xsi:schemaLocation="http://www.topografix.com/GPX/1/1 http://www.topografix.com/GPX/1/1/gpx.xsd" version="1.1" creator="VisuGPX - https://www.visugpx.com">
  <metadata>
    <name>Pointe du raz 3</name>
    <desc><![CDATA[3eme jours: Port le Brezellec - Primelin]]></desc>
  </metadata>
  <trk>
    <name><![CDATA[27-MAI-17 05:25:43 PM]]></name>
    <trkseg>
      <trkpt lat="48.06921" lon="-4.66429">
        <ele>71.76</ele>
        <time>2017-05-27T07:46:53Z</time>
      </trkpt>
      <trkpt lat="48.06926" lon="-4.66433">
        <ele>67.91</ele>
        <time>2017-05-27T07:47:13Z</time>
      </trkpt>
      <trkpt lat="48.06927" lon="-4.66433">
        <ele>67.91</ele>
        <time>2017-05-27T07:47:17Z</time>
      </trkpt>
      <trkpt lat="48.06931" lon="-4.66434">
        <ele>66.95</ele>
        <time>2017-05-27T07:47:33Z</time>
      </trkpt>
      <trkpt lat="48.06945" lon="-4.66441">
        <ele>65.03</ele>
        <time>2017-05-27T07:47:48Z</time>
      </trkpt>
      <trkpt lat="48.06962" lon="-4.6645">
        <ele>65.51</ele>
        <time>2017-05-27T07:48:05Z</time>
      </trkpt>
      <trkpt lat="48.06965" lon="-4.66452">
        <ele>65.51</ele>
        <time>2017-05-27T07:48:07Z</time>
      </trkpt>
      <trkpt lat="48.06973" lon="-4.66457">
        <ele>65.51</ele>
        <time>2017-05-27T07:48:13Z</time>
      </trkpt>
      <trkpt lat="48.06999" lon="-4.6647">
        <ele>63.58</ele>
        <time>2017-05-27T07:48:30Z</time>
      </trkpt>
      <trkpt lat="48.07012" lon="-4.66481">
        <ele>63.1</ele>
        <time>2017-05-27T07:48:39Z</time>
      </trkpt>
      <trkpt lat="48.07021" lon="-4.66488">
        <ele>63.1</ele>
        <time>2017-05-27T07:48:45Z</time>
      </trkpt>
      <trkpt lat="48.07038" lon="-4.66501">
        <ele>65.99</ele>
        <time>2017-05-27T07:49:02Z</time>
      </trkpt>
      <trkpt lat="48.07039" lon="-4.66502">
        <ele>65.99</ele>
        <time>2017-05-27T07:49:03Z</time>
      </trkpt>
      <trkpt lat="48.07044" lon="-4.66509">
        <ele>66.95</ele>
        <time>2017-05-27T07:49:08Z</time>
      </trkpt>
      <trkpt lat="48.07055" lon="-4.66524">
        <ele>67.43</ele>
        <time>2017-05-27T07:49:21Z</time>
      </trkpt>
      <trkpt lat="48.07059" lon="-4.6653">
        <ele>67.43</ele>
        <time>2017-05-27T07:49:25Z</time>
      </trkpt>
      <trkpt lat="48.07069" lon="-4.66545">
        <ele>67.91</ele>
        <time>2017-05-27T07:49:34Z</time>
      </trkpt>
      <trkpt lat="48.07067" lon="-4.66556">
        <ele>67.91</ele>
        <time>2017-05-27T07:49:42Z</time>
      </trkpt>
      <trkpt lat="48.07063" lon="-4.66562">
        <ele>66.47</ele>
        <time>2017-05-27T07:49:47Z</time>
      </trkpt>
      <trkpt lat="48.07061" lon="-4.66577">
        <ele>65.51</ele>
        <time>2017-05-27T07:49:55Z</time>
      </trkpt>
      <trkpt lat="48.07054" lon="-4.66593">
        <ele>64.55</ele>
        <time>2017-05-27T07:50:04Z</time>
      </trkpt>
      <trkpt lat="48.07047" lon="-4.66615">
        <ele>64.55</ele>
        <time>2017-05-27T07:50:18Z</time>
      </trkpt>
      <trkpt lat="48.07042" lon="-4.66647">
        <ele>65.03</ele>
        <time>2017-05-27T07:50:34Z</time>
      </trkpt>
      <trkpt lat="48.07041" lon="-4.6665">
        <ele>66.47</ele>
        <time>2017-05-27T07:50:36Z</time>
      </trkpt>
      <trkpt lat="48.0704" lon="-4.66654">
        <ele>65.99</ele>
        <time>2017-05-27T07:50:40Z</time>
      </trkpt>
      <trkpt lat="48.07041" lon="-4.66657">
        <ele>65.51</ele>
        <time>2017-05-27T07:50:42Z</time>
      </trkpt>
      <trkpt lat="48.07038" lon="-4.66672">
        <ele>63.58</ele>
        <time>2017-05-27T07:50:49Z</time>
      </trkpt>
      <trkpt lat="48.07022" lon="-4.66676">
        <ele>61.18</ele>
        <time>2017-05-27T07:51:01Z</time>
      </trkpt>
      <trkpt lat="48.07005" lon="-4.66679">
        <ele>61.66</ele>
        <time>2017-05-27T07:51:14Z</time>
      </trkpt>
      <trkpt lat="48.06994" lon="-4.66678">
        <ele>64.07</ele>
        <time>2017-05-27T07:51:26Z</time>
      </trkpt>
      <trkpt lat="48.06992" lon="-4.6668">
        <ele>64.55</ele>
        <time>2017-05-27T07:51:29Z</time>
      </trkpt>
      <trkpt lat="48.0699" lon="-4.66683">
        <ele>65.03</ele>
        <time>2017-05-27T07:51:31Z</time>
      </trkpt>
      <trkpt lat="48.06986" lon="-4.66687">
        <ele>65.03</ele>
        <time>2017-05-27T07:51:36Z</time>
      </trkpt>
      <trkpt lat="48.06981" lon="-4.66689">
        <ele>64.55</ele>
        <time>2017-05-27T07:51:40Z</time>
      </trkpt>
      <trkpt lat="48.06968" lon="-4.66684">
        <ele>62.14</ele>
        <time>2017-05-27T07:51:50Z</time>
      </trkpt>
      <trkpt lat="48.06961" lon="-4.66684">
        <ele>61.18</ele>
        <time>2017-05-27T07:51:55Z</time>
      </trkpt>
      <trkpt lat="48.06952" lon="-4.66684">
        <ele>61.66</ele>
        <time>2017-05-27T07:52:02Z</time>
      </trkpt>
      <trkpt lat="48.06948" lon="-4.66683">
        <ele>62.14</ele>
        <time>2017-05-27T07:52:06Z</time>
      </trkpt>
      <trkpt lat="48.06945" lon="-4.66684">
        <ele>62.62</ele>
        <time>2017-05-27T07:52:09Z</time>
      </trkpt>
      <trkpt lat="48.06929" lon="-4.66693">
        <ele>65.99</ele>
        <time>2017-05-27T07:52:23Z</time>
      </trkpt>
      <trkpt lat="48.06922" lon="-4.66699">
        <ele>65.99</ele>
        <time>2017-05-27T07:52:28Z</time>
      </trkpt>
      <trkpt lat="48.06915" lon="-4.66706">
        <ele>66.47</ele>
        <time>2017-05-27T07:52:35Z</time>
      </trkpt>
      <trkpt lat="48.06901" lon="-4.66723">
        <ele>67.43</ele>
        <time>2017-05-27T07:52:48Z</time>
      </trkpt>
      <trkpt lat="48.06896" lon="-4.66731">
        <ele>67.43</ele>
        <time>2017-05-27T07:52:55Z</time>
      </trkpt>
      <trkpt lat="48.06885" lon="-4.66745">
        <ele>68.39</ele>
        <time>2017-05-27T07:53:06Z</time>
      </trkpt>
      <trkpt lat="48.06877" lon="-4.66751">
        <ele>70.31</ele>
        <time>2017-05-27T07:53:14Z</time>
      </trkpt>
      <trkpt lat="48.06871" lon="-4.6677">
        <ele>69.35</ele>
        <time>2017-05-27T07:53:27Z</time>
      </trkpt>
      <trkpt lat="48.06871" lon="-4.66772">
        <ele>68.87</ele>
        <time>2017-05-27T07:53:28Z</time>
      </trkpt>
      <trkpt lat="48.06868" lon="-4.66773">
        <ele>68.39</ele>
        <time>2017-05-27T07:53:36Z</time>
      </trkpt>
      <trkpt lat="48.06861" lon="-4.66751">
        <ele>67.91</ele>
        <time>2017-05-27T07:53:48Z</time>
      </trkpt>
      <trkpt lat="48.06861" lon="-4.6675">
        <ele>67.91</ele>
        <time>2017-05-27T07:53:49Z</time>
      </trkpt>
      <trkpt lat="48.06859" lon="-4.6674">
        <ele>68.39</ele>
        <time>2017-05-27T07:53:54Z</time>
      </trkpt>
      <trkpt lat="48.06852" lon="-4.66734">
        <ele>67.43</ele>
        <time>2017-05-27T07:54:01Z</time>
      </trkpt>
      <trkpt lat="48.06834" lon="-4.66712">
        <ele>65.51</ele>
        <time>2017-05-27T07:54:17Z</time>
      </trkpt>
      <trkpt lat="48.06833" lon="-4.66712">
        <ele>65.51</ele>
        <time>2017-05-27T07:54:19Z</time>
      </trkpt>
      <trkpt lat="48.06828" lon="-4.66711">
        <ele>65.99</ele>
        <time>2017-05-27T07:54:23Z</time>
      </trkpt>
      <trkpt lat="48.06815" lon="-4.66716">
        <ele>67.91</ele>
        <time>2017-05-27T07:54:33Z</time>
      </trkpt>
      <trkpt lat="48.06798" lon="-4.66725">
        <ele>69.35</ele>
        <time>2017-05-27T07:54:47Z</time>
      </trkpt>
      <trkpt lat="48.06784" lon="-4.66736">
        <ele>69.35</ele>
        <time>2017-05-27T07:54:58Z</time>
      </trkpt>
      <trkpt lat="48.06782" lon="-4.6674">
        <ele>69.83</ele>
        <time>2017-05-27T07:55:01Z</time>
      </trkpt>
      <trkpt lat="48.06775" lon="-4.66738">
        <ele>69.35</ele>
        <time>2017-05-27T07:55:07Z</time>
      </trkpt>
      <trkpt lat="48.0677" lon="-4.6673">
        <ele>69.83</ele>
        <time>2017-05-27T07:55:13Z</time>
      </trkpt>
      <trkpt lat="48.06763" lon="-4.66722">
        <ele>69.83</ele>
        <time>2017-05-27T07:55:19Z</time>
      </trkpt>
      <trkpt lat="48.0676" lon="-4.66718">
        <ele>69.35</ele>
        <time>2017-05-27T07:55:23Z</time>
      </trkpt>
      <trkpt lat="48.06753" lon="-4.66712">
        <ele>68.87</ele>
        <time>2017-05-27T07:55:29Z</time>
      </trkpt>
      <trkpt lat="48.06747" lon="-4.66707">
        <ele>67.91</ele>
        <time>2017-05-27T07:55:35Z</time>
      </trkpt>
      <trkpt lat="48.06728" lon="-4.66699">
        <ele>66.47</ele>
        <time>2017-05-27T07:55:49Z</time>
      </trkpt>
      <trkpt lat="48.06714" lon="-4.66694">
        <ele>65.99</ele>
        <time>2017-05-27T07:56:01Z</time>
      </trkpt>
      <trkpt lat="48.06699" lon="-4.66691">
        <ele>64.55</ele>
        <time>2017-05-27T07:56:13Z</time>
      </trkpt>
      <trkpt lat="48.06693" lon="-4.6669">
        <ele>64.55</ele>
        <time>2017-05-27T07:56:17Z</time>
      </trkpt>
      <trkpt lat="48.06686" lon="-4.66683">
        <ele>63.58</ele>
        <time>2017-05-27T07:56:22Z</time>
      </trkpt>
      <trkpt lat="48.06684" lon="-4.66679">
        <ele>63.1</ele>
        <time>2017-05-27T07:56:24Z</time>
      </trkpt>
      <trkpt lat="48.06674" lon="-4.66674">
        <ele>61.66</ele>
        <time>2017-05-27T07:56:34Z</time>
      </trkpt>
      <trkpt lat="48.06665" lon="-4.66686">
        <ele>60.7</ele>
        <time>2017-05-27T07:56:43Z</time>
      </trkpt>
      <trkpt lat="48.06663" lon="-4.66692">
        <ele>60.7</ele>
        <time>2017-05-27T07:56:46Z</time>
      </trkpt>
      <trkpt lat="48.06646" lon="-4.66713">
        <ele>58.78</ele>
        <time>2017-05-27T07:57:02Z</time>
      </trkpt>
      <trkpt lat="48.06637" lon="-4.66732">
        <ele>57.82</ele>
        <time>2017-05-27T07:57:14Z</time>
      </trkpt>
      <trkpt lat="48.06633" lon="-4.66749">
        <ele>61.18</ele>
        <time>2017-05-27T07:57:24Z</time>
      </trkpt>
      <trkpt lat="48.0663" lon="-4.66755">
        <ele>63.1</ele>
        <time>2017-05-27T07:57:28Z</time>
      </trkpt>
      <trkpt lat="48.06622" lon="-4.66775">
        <ele>68.39</ele>
        <time>2017-05-27T07:57:42Z</time>
      </trkpt>
      <trkpt lat="48.06623" lon="-4.66781">
        <ele>68.87</ele>
        <time>2017-05-27T07:57:46Z</time>
      </trkpt>
      <trkpt lat="48.06616" lon="-4.66791">
        <ele>69.35</ele>
        <time>2017-05-27T07:57:52Z</time>
      </trkpt>
      <trkpt lat="48.06614" lon="-4.66793">
        <ele>68.87</ele>
        <time>2017-05-27T07:57:55Z</time>
      </trkpt>
      <trkpt lat="48.06596" lon="-4.66803">
        <ele>67.43</ele>
        <time>2017-05-27T07:58:09Z</time>
      </trkpt>
      <trkpt lat="48.06585" lon="-4.66802">
        <ele>65.99</ele>
        <time>2017-05-27T07:58:18Z</time>
      </trkpt>
      <trkpt lat="48.06574" lon="-4.66805">
        <ele>65.03</ele>
        <time>2017-05-27T07:58:27Z</time>
      </trkpt>
      <trkpt lat="48.06567" lon="-4.66812">
        <ele>64.55</ele>
        <time>2017-05-27T07:58:33Z</time>
      </trkpt>
      <trkpt lat="48.06554" lon="-4.66836">
        <ele>65.51</ele>
        <time>2017-05-27T07:58:48Z</time>
      </trkpt>
      <trkpt lat="48.06553" lon="-4.66842">
        <ele>65.51</ele>
        <time>2017-05-27T07:58:51Z</time>
      </trkpt>
      <trkpt lat="48.06553" lon="-4.66855">
        <ele>65.03</ele>
        <time>2017-05-27T07:59:00Z</time>
      </trkpt>
      <trkpt lat="48.06551" lon="-4.66876">
        <ele>64.07</ele>
        <time>2017-05-27T07:59:09Z</time>
      </trkpt>
      <trkpt lat="48.06547" lon="-4.66899">
        <ele>62.62</ele>
        <time>2017-05-27T07:59:22Z</time>
      </trkpt>
      <trkpt lat="48.06534" lon="-4.66923">
        <ele>65.51</ele>
        <time>2017-05-27T07:59:36Z</time>
      </trkpt>
      <trkpt lat="48.06522" lon="-4.66941">
        <ele>65.99</ele>
        <time>2017-05-27T07:59:49Z</time>
      </trkpt>
      <trkpt lat="48.0651" lon="-4.66957">
        <ele>65.99</ele>
        <time>2017-05-27T08:00:01Z</time>
      </trkpt>
      <trkpt lat="48.065" lon="-4.66969">
        <ele>64.07</ele>
        <time>2017-05-27T08:00:09Z</time>
      </trkpt>
      <trkpt lat="48.06497" lon="-4.66973">
        <ele>63.1</ele>
        <time>2017-05-27T08:00:14Z</time>
      </trkpt>
      <trkpt lat="48.06484" lon="-4.66984">
        <ele>64.55</ele>
        <time>2017-05-27T08:00:24Z</time>
      </trkpt>
      <trkpt lat="48.06469" lon="-4.67005">
        <ele>64.07</ele>
        <time>2017-05-27T08:00:40Z</time>
      </trkpt>
      <trkpt lat="48.06455" lon="-4.67018">
        <ele>63.58</ele>
        <time>2017-05-27T08:00:53Z</time>
      </trkpt>
      <trkpt lat="48.0644" lon="-4.67033">
        <ele>63.58</ele>
        <time>2017-05-27T08:01:06Z</time>
      </trkpt>
      <trkpt lat="48.06435" lon="-4.67035">
        <ele>64.55</ele>
        <time>2017-05-27T08:01:09Z</time>
      </trkpt>
      <trkpt lat="48.06433" lon="-4.67038">
        <ele>64.55</ele>
        <time>2017-05-27T08:01:13Z</time>
      </trkpt>
      <trkpt lat="48.06419" lon="-4.67052">
        <ele>65.99</ele>
        <time>2017-05-27T08:01:26Z</time>
      </trkpt>
      <trkpt lat="48.06401" lon="-4.67066">
        <ele>65.99</ele>
        <time>2017-05-27T08:01:39Z</time>
      </trkpt>
      <trkpt lat="48.0639" lon="-4.67082">
        <ele>65.03</ele>
        <time>2017-05-27T08:01:52Z</time>
      </trkpt>
      <trkpt lat="48.06389" lon="-4.67083">
        <ele>65.03</ele>
        <time>2017-05-27T08:01:53Z</time>
      </trkpt>
      <trkpt lat="48.0638" lon="-4.67101">
        <ele>65.99</ele>
        <time>2017-05-27T08:02:06Z</time>
      </trkpt>
      <trkpt lat="48.06381" lon="-4.67113">
        <ele>63.1</ele>
        <time>2017-05-27T08:02:15Z</time>
      </trkpt>
      <trkpt lat="48.06376" lon="-4.67124">
        <ele>56.86</ele>
        <time>2017-05-27T08:02:27Z</time>
      </trkpt>
      <trkpt lat="48.06367" lon="-4.67121">
        <ele>54.45</ele>
        <time>2017-05-27T08:02:34Z</time>
      </trkpt>
      <trkpt lat="48.06359" lon="-4.67113">
        <ele>53.49</ele>
        <time>2017-05-27T08:02:42Z</time>
      </trkpt>
      <trkpt lat="48.06354" lon="-4.67105">
        <ele>52.53</ele>
        <time>2017-05-27T08:02:47Z</time>
      </trkpt>
      <trkpt lat="48.06335" lon="-4.67082">
        <ele>55.41</ele>
        <time>2017-05-27T08:03:03Z</time>
      </trkpt>
      <trkpt lat="48.06335" lon="-4.67082">
        <ele>55.41</ele>
        <time>2017-05-27T08:03:04Z</time>
      </trkpt>
      <trkpt lat="48.06319" lon="-4.67077">
        <ele>50.61</ele>
        <time>2017-05-27T08:03:19Z</time>
      </trkpt>
      <trkpt lat="48.0631" lon="-4.67078">
        <ele>48.2</ele>
        <time>2017-05-27T08:03:26Z</time>
      </trkpt>
      <trkpt lat="48.06296" lon="-4.67084">
        <ele>44.84</ele>
        <time>2017-05-27T08:03:36Z</time>
      </trkpt>
      <trkpt lat="48.0628" lon="-4.67084">
        <ele>39.55</ele>
        <time>2017-05-27T08:03:51Z</time>
      </trkpt>
      <trkpt lat="48.06273" lon="-4.6708">
        <ele>38.11</ele>
        <time>2017-05-27T08:03:56Z</time>
      </trkpt>
      <trkpt lat="48.06263" lon="-4.67048">
        <ele>38.11</ele>
        <time>2017-05-27T08:04:09Z</time>
      </trkpt>
      <trkpt lat="48.0626" lon="-4.67027">
        <ele>36.67</ele>
        <time>2017-05-27T08:04:25Z</time>
      </trkpt>
      <trkpt lat="48.06259" lon="-4.67026">
        <ele>36.67</ele>
        <time>2017-05-27T08:04:26Z</time>
      </trkpt>
      <trkpt lat="48.06255" lon="-4.67031">
        <ele>35.71</ele>
        <time>2017-05-27T08:04:34Z</time>
      </trkpt>
      <trkpt lat="48.06251" lon="-4.67052">
        <ele>32.82</ele>
        <time>2017-05-27T08:04:48Z</time>
      </trkpt>
      <trkpt lat="48.0625" lon="-4.67065">
        <ele>31.86</ele>
        <time>2017-05-27T08:04:54Z</time>
      </trkpt>
      <trkpt lat="48.06249" lon="-4.67068">
        <ele>31.38</ele>
        <time>2017-05-27T08:04:57Z</time>
      </trkpt>
      <trkpt lat="48.06242" lon="-4.67046">
        <ele>29.94</ele>
        <time>2017-05-27T08:05:09Z</time>
      </trkpt>
      <trkpt lat="48.06237" lon="-4.6703">
        <ele>27.53</ele>
        <time>2017-05-27T08:05:16Z</time>
      </trkpt>
      <trkpt lat="48.06236" lon="-4.67022">
        <ele>26.57</ele>
        <time>2017-05-27T08:05:20Z</time>
      </trkpt>
      <trkpt lat="48.06227" lon="-4.67006">
        <ele>26.57</ele>
        <time>2017-05-27T08:05:29Z</time>
      </trkpt>
      <trkpt lat="48.06223" lon="-4.67">
        <ele>25.61</ele>
        <time>2017-05-27T08:05:36Z</time>
      </trkpt>
      <trkpt lat="48.0622" lon="-4.66999">
        <ele>25.61</ele>
        <time>2017-05-27T08:05:40Z</time>
      </trkpt>
      <trkpt lat="48.06217" lon="-4.67007">
        <ele>24.17</ele>
        <time>2017-05-27T08:05:47Z</time>
      </trkpt>
      <trkpt lat="48.06216" lon="-4.67001">
        <ele>23.69</ele>
        <time>2017-05-27T08:05:52Z</time>
      </trkpt>
      <trkpt lat="48.06217" lon="-4.66998">
        <ele>22.73</ele>
        <time>2017-05-27T08:06:02Z</time>
      </trkpt>
      <trkpt lat="48.06211" lon="-4.66999">
        <ele>24.17</ele>
        <time>2017-05-27T08:06:07Z</time>
      </trkpt>
      <trkpt lat="48.0621" lon="-4.67002">
        <ele>24.17</ele>
        <time>2017-05-27T08:06:10Z</time>
      </trkpt>
      <trkpt lat="48.06209" lon="-4.67017">
        <ele>24.65</ele>
        <time>2017-05-27T08:06:16Z</time>
      </trkpt>
      <trkpt lat="48.06204" lon="-4.67038">
        <ele>24.17</ele>
        <time>2017-05-27T08:06:30Z</time>
      </trkpt>
      <trkpt lat="48.06186" lon="-4.67057">
        <ele>24.17</ele>
        <time>2017-05-27T08:06:45Z</time>
      </trkpt>
      <trkpt lat="48.06175" lon="-4.67085">
        <ele>23.69</ele>
        <time>2017-05-27T08:06:59Z</time>
      </trkpt>
      <trkpt lat="48.06168" lon="-4.67109">
        <ele>27.05</ele>
        <time>2017-05-27T08:07:14Z</time>
      </trkpt>
      <trkpt lat="48.06156" lon="-4.67128">
        <ele>28.5</ele>
        <time>2017-05-27T08:07:27Z</time>
      </trkpt>
      <trkpt lat="48.06136" lon="-4.67139">
        <ele>28.98</ele>
        <time>2017-05-27T08:07:41Z</time>
      </trkpt>
      <trkpt lat="48.06124" lon="-4.67142">
        <ele>28.5</ele>
        <time>2017-05-27T08:07:52Z</time>
      </trkpt>
      <trkpt lat="48.06121" lon="-4.67142">
        <ele>28.5</ele>
        <time>2017-05-27T08:07:55Z</time>
      </trkpt>
      <trkpt lat="48.0611" lon="-4.67138">
        <ele>27.53</ele>
        <time>2017-05-27T08:08:02Z</time>
      </trkpt>
      <trkpt lat="48.06097" lon="-4.67127">
        <ele>28.02</ele>
        <time>2017-05-27T08:08:15Z</time>
      </trkpt>
      <trkpt lat="48.0608" lon="-4.67114">
        <ele>28.98</ele>
        <time>2017-05-27T08:08:29Z</time>
      </trkpt>
      <trkpt lat="48.06067" lon="-4.67112">
        <ele>28.5</ele>
        <time>2017-05-27T08:08:40Z</time>
      </trkpt>
      <trkpt lat="48.06062" lon="-4.6711">
        <ele>28.02</ele>
        <time>2017-05-27T08:08:44Z</time>
      </trkpt>
      <trkpt lat="48.06049" lon="-4.67101">
        <ele>28.02</ele>
        <time>2017-05-27T08:08:57Z</time>
      </trkpt>
      <trkpt lat="48.06039" lon="-4.67093">
        <ele>26.09</ele>
        <time>2017-05-27T08:09:06Z</time>
      </trkpt>
      <trkpt lat="48.0603" lon="-4.67087">
        <ele>25.13</ele>
        <time>2017-05-27T08:09:12Z</time>
      </trkpt>
      <trkpt lat="48.06026" lon="-4.67099">
        <ele>21.77</ele>
        <time>2017-05-27T08:09:24Z</time>
      </trkpt>
      <trkpt lat="48.06015" lon="-4.67126">
        <ele>19.84</ele>
        <time>2017-05-27T08:09:39Z</time>
      </trkpt>
      <trkpt lat="48.06013" lon="-4.67128">
        <ele>19.36</ele>
        <time>2017-05-27T08:09:41Z</time>
      </trkpt>
      <trkpt lat="48.0601" lon="-4.67153">
        <ele>19.36</ele>
        <time>2017-05-27T08:09:54Z</time>
      </trkpt>
      <trkpt lat="48.06012" lon="-4.67157">
        <ele>19.36</ele>
        <time>2017-05-27T08:09:57Z</time>
      </trkpt>
      <trkpt lat="48.06011" lon="-4.67171">
        <ele>20.81</ele>
        <time>2017-05-27T08:10:04Z</time>
      </trkpt>
      <trkpt lat="48.06028" lon="-4.67197">
        <ele>25.13</ele>
        <time>2017-05-27T08:10:21Z</time>
      </trkpt>
      <trkpt lat="48.06035" lon="-4.6723">
        <ele>24.17</ele>
        <time>2017-05-27T08:10:37Z</time>
      </trkpt>
      <trkpt lat="48.06036" lon="-4.67238">
        <ele>23.21</ele>
        <time>2017-05-27T08:10:41Z</time>
      </trkpt>
      <trkpt lat="48.06042" lon="-4.67249">
        <ele>22.73</ele>
        <time>2017-05-27T08:10:46Z</time>
      </trkpt>
      <trkpt lat="48.06044" lon="-4.67252">
        <ele>22.73</ele>
        <time>2017-05-27T08:10:48Z</time>
      </trkpt>
      <trkpt lat="48.06047" lon="-4.67255">
        <ele>22.25</ele>
        <time>2017-05-27T08:10:51Z</time>
      </trkpt>
      <trkpt lat="48.06048" lon="-4.67257">
        <ele>23.21</ele>
        <time>2017-05-27T08:11:07Z</time>
      </trkpt>
      <trkpt lat="48.06049" lon="-4.67257">
        <ele>23.69</ele>
        <time>2017-05-27T08:11:51Z</time>
      </trkpt>
      <trkpt lat="48.06052" lon="-4.67269">
        <ele>26.57</ele>
        <time>2017-05-27T08:12:13Z</time>
      </trkpt>
      <trkpt lat="48.06057" lon="-4.67285">
        <ele>30.42</ele>
        <time>2017-05-27T08:12:25Z</time>
      </trkpt>
      <trkpt lat="48.06059" lon="-4.673">
        <ele>30.42</ele>
        <time>2017-05-27T08:12:34Z</time>
      </trkpt>
      <trkpt lat="48.06055" lon="-4.67311">
        <ele>29.46</ele>
        <time>2017-05-27T08:12:41Z</time>
      </trkpt>
      <trkpt lat="48.06054" lon="-4.6732">
        <ele>28.02</ele>
        <time>2017-05-27T08:12:52Z</time>
      </trkpt>
      <trkpt lat="48.06056" lon="-4.6732">
        <ele>28.02</ele>
        <time>2017-05-27T08:12:54Z</time>
      </trkpt>
      <trkpt lat="48.06059" lon="-4.67334">
        <ele>28.5</ele>
        <time>2017-05-27T08:13:04Z</time>
      </trkpt>
      <trkpt lat="48.06073" lon="-4.67337">
        <ele>28.98</ele>
        <time>2017-05-27T08:13:14Z</time>
      </trkpt>
      <trkpt lat="48.06078" lon="-4.67345">
        <ele>29.46</ele>
        <time>2017-05-27T08:13:22Z</time>
      </trkpt>
      <trkpt lat="48.0608" lon="-4.67357">
        <ele>29.46</ele>
        <time>2017-05-27T08:13:28Z</time>
      </trkpt>
      <trkpt lat="48.06084" lon="-4.67374">
        <ele>28.02</ele>
        <time>2017-05-27T08:13:39Z</time>
      </trkpt>
      <trkpt lat="48.06094" lon="-4.67402">
        <ele>28.02</ele>
        <time>2017-05-27T08:13:55Z</time>
      </trkpt>
      <trkpt lat="48.06109" lon="-4.67428">
        <ele>28.02</ele>
        <time>2017-05-27T08:14:09Z</time>
      </trkpt>
      <trkpt lat="48.06114" lon="-4.67436">
        <ele>28.98</ele>
        <time>2017-05-27T08:14:16Z</time>
      </trkpt>
      <trkpt lat="48.06116" lon="-4.67446">
        <ele>28.98</ele>
        <time>2017-05-27T08:14:22Z</time>
      </trkpt>
      <trkpt lat="48.06128" lon="-4.67465">
        <ele>29.94</ele>
        <time>2017-05-27T08:14:38Z</time>
      </trkpt>
      <trkpt lat="48.06138" lon="-4.67486">
        <ele>34.26</ele>
        <time>2017-05-27T08:14:54Z</time>
      </trkpt>
      <trkpt lat="48.06142" lon="-4.67496">
        <ele>35.71</ele>
        <time>2017-05-27T08:15:01Z</time>
      </trkpt>
      <trkpt lat="48.06141" lon="-4.6751">
        <ele>36.67</ele>
        <time>2017-05-27T08:15:08Z</time>
      </trkpt>
      <trkpt lat="48.06139" lon="-4.67516">
        <ele>37.63</ele>
        <time>2017-05-27T08:15:13Z</time>
      </trkpt>
      <trkpt lat="48.06122" lon="-4.67525">
        <ele>40.51</ele>
        <time>2017-05-27T08:15:28Z</time>
      </trkpt>
      <trkpt lat="48.06104" lon="-4.67531">
        <ele>43.88</ele>
        <time>2017-05-27T08:15:42Z</time>
      </trkpt>
      <trkpt lat="48.06103" lon="-4.67533">
        <ele>44.36</ele>
        <time>2017-05-27T08:15:44Z</time>
      </trkpt>
      <trkpt lat="48.06098" lon="-4.67554">
        <ele>44.36</ele>
        <time>2017-05-27T08:15:56Z</time>
      </trkpt>
      <trkpt lat="48.06096" lon="-4.67564">
        <ele>46.28</ele>
        <time>2017-05-27T08:16:01Z</time>
      </trkpt>
      <trkpt lat="48.06087" lon="-4.67592">
        <ele>48.68</ele>
        <time>2017-05-27T08:16:17Z</time>
      </trkpt>
      <trkpt lat="48.06086" lon="-4.67595">
        <ele>48.68</ele>
        <time>2017-05-27T08:16:19Z</time>
      </trkpt>
      <trkpt lat="48.0608" lon="-4.67617">
        <ele>47.72</ele>
        <time>2017-05-27T08:16:32Z</time>
      </trkpt>
      <trkpt lat="48.06076" lon="-4.67625">
        <ele>50.13</ele>
        <time>2017-05-27T08:16:37Z</time>
      </trkpt>
      <trkpt lat="48.06069" lon="-4.67648">
        <ele>54.45</ele>
        <time>2017-05-27T08:16:52Z</time>
      </trkpt>
      <trkpt lat="48.06067" lon="-4.67661">
        <ele>55.41</ele>
        <time>2017-05-27T08:16:58Z</time>
      </trkpt>
      <trkpt lat="48.06061" lon="-4.67674">
        <ele>57.34</ele>
        <time>2017-05-27T08:17:04Z</time>
      </trkpt>
      <trkpt lat="48.06059" lon="-4.67688">
        <ele>58.78</ele>
        <time>2017-05-27T08:17:12Z</time>
      </trkpt>
      <trkpt lat="48.06054" lon="-4.6772">
        <ele>57.34</ele>
        <time>2017-05-27T08:17:26Z</time>
      </trkpt>
      <trkpt lat="48.06053" lon="-4.67751">
        <ele>56.37</ele>
        <time>2017-05-27T08:17:41Z</time>
      </trkpt>
      <trkpt lat="48.06052" lon="-4.6778">
        <ele>54.93</ele>
        <time>2017-05-27T08:17:56Z</time>
      </trkpt>
      <trkpt lat="48.06054" lon="-4.67793">
        <ele>55.89</ele>
        <time>2017-05-27T08:18:02Z</time>
      </trkpt>
      <trkpt lat="48.06054" lon="-4.67802">
        <ele>55.89</ele>
        <time>2017-05-27T08:18:05Z</time>
      </trkpt>
      <trkpt lat="48.06054" lon="-4.6781">
        <ele>55.41</ele>
        <time>2017-05-27T08:18:09Z</time>
      </trkpt>
      <trkpt lat="48.06055" lon="-4.67815">
        <ele>55.41</ele>
        <time>2017-05-27T08:18:12Z</time>
      </trkpt>
      <trkpt lat="48.06056" lon="-4.67823">
        <ele>54.93</ele>
        <time>2017-05-27T08:18:16Z</time>
      </trkpt>
      <trkpt lat="48.06047" lon="-4.67851">
        <ele>50.13</ele>
        <time>2017-05-27T08:18:31Z</time>
      </trkpt>
      <trkpt lat="48.06046" lon="-4.67855">
        <ele>50.61</ele>
        <time>2017-05-27T08:18:35Z</time>
      </trkpt>
      <trkpt lat="48.06041" lon="-4.67875">
        <ele>51.57</ele>
        <time>2017-05-27T08:18:44Z</time>
      </trkpt>
      <trkpt lat="48.06037" lon="-4.67902">
        <ele>52.05</ele>
        <time>2017-05-27T08:18:59Z</time>
      </trkpt>
      <trkpt lat="48.06039" lon="-4.6792">
        <ele>50.13</ele>
        <time>2017-05-27T08:19:09Z</time>
      </trkpt>
      <trkpt lat="48.06044" lon="-4.67923">
        <ele>48.68</ele>
        <time>2017-05-27T08:19:13Z</time>
      </trkpt>
      <trkpt lat="48.0605" lon="-4.67933">
        <ele>44.84</ele>
        <time>2017-05-27T08:19:26Z</time>
      </trkpt>
      <trkpt lat="48.06068" lon="-4.67938">
        <ele>45.32</ele>
        <time>2017-05-27T08:19:40Z</time>
      </trkpt>
      <trkpt lat="48.06074" lon="-4.67948">
        <ele>49.16</ele>
        <time>2017-05-27T08:19:48Z</time>
      </trkpt>
      <trkpt lat="48.06078" lon="-4.6797">
        <ele>54.45</ele>
        <time>2017-05-27T08:20:04Z</time>
      </trkpt>
      <trkpt lat="48.06082" lon="-4.67983">
        <ele>55.41</ele>
        <time>2017-05-27T08:20:12Z</time>
      </trkpt>
      <trkpt lat="48.06084" lon="-4.67989">
        <ele>55.89</ele>
        <time>2017-05-27T08:20:16Z</time>
      </trkpt>
      <trkpt lat="48.06084" lon="-4.67992">
        <ele>55.89</ele>
        <time>2017-05-27T08:20:18Z</time>
      </trkpt>
      <trkpt lat="48.06087" lon="-4.68001">
        <ele>57.34</ele>
        <time>2017-05-27T08:20:25Z</time>
      </trkpt>
      <trkpt lat="48.06091" lon="-4.68002">
        <ele>57.34</ele>
        <time>2017-05-27T08:20:28Z</time>
      </trkpt>
      <trkpt lat="48.06094" lon="-4.6801">
        <ele>57.82</ele>
        <time>2017-05-27T08:20:32Z</time>
      </trkpt>
      <trkpt lat="48.06097" lon="-4.68017">
        <ele>58.3</ele>
        <time>2017-05-27T08:20:37Z</time>
      </trkpt>
      <trkpt lat="48.06114" lon="-4.68037">
        <ele>59.74</ele>
        <time>2017-05-27T08:20:53Z</time>
      </trkpt>
      <trkpt lat="48.06121" lon="-4.68048">
        <ele>59.74</ele>
        <time>2017-05-27T08:21:01Z</time>
      </trkpt>
      <trkpt lat="48.06125" lon="-4.68055">
        <ele>60.22</ele>
        <time>2017-05-27T08:21:06Z</time>
      </trkpt>
      <trkpt lat="48.06127" lon="-4.68069">
        <ele>59.74</ele>
        <time>2017-05-27T08:21:14Z</time>
      </trkpt>
      <trkpt lat="48.06128" lon="-4.68078">
        <ele>59.26</ele>
        <time>2017-05-27T08:21:19Z</time>
      </trkpt>
      <trkpt lat="48.06134" lon="-4.68091">
        <ele>60.22</ele>
        <time>2017-05-27T08:21:28Z</time>
      </trkpt>
      <trkpt lat="48.06142" lon="-4.68111">
        <ele>62.14</ele>
        <time>2017-05-27T08:21:40Z</time>
      </trkpt>
      <trkpt lat="48.06143" lon="-4.68112">
        <ele>62.14</ele>
        <time>2017-05-27T08:21:41Z</time>
      </trkpt>
      <trkpt lat="48.06145" lon="-4.68114">
        <ele>62.62</ele>
        <time>2017-05-27T08:21:45Z</time>
      </trkpt>
      <trkpt lat="48.06156" lon="-4.68105">
        <ele>64.07</ele>
        <time>2017-05-27T08:21:55Z</time>
      </trkpt>
      <trkpt lat="48.0616" lon="-4.68107">
        <ele>64.55</ele>
        <time>2017-05-27T08:21:59Z</time>
      </trkpt>
      <trkpt lat="48.06164" lon="-4.68106">
        <ele>65.03</ele>
        <time>2017-05-27T08:22:03Z</time>
      </trkpt>
      <trkpt lat="48.06175" lon="-4.68105">
        <ele>65.51</ele>
        <time>2017-05-27T08:22:14Z</time>
      </trkpt>
      <trkpt lat="48.0618" lon="-4.68108">
        <ele>65.03</ele>
        <time>2017-05-27T08:22:18Z</time>
      </trkpt>
      <trkpt lat="48.06187" lon="-4.6812">
        <ele>62.14</ele>
        <time>2017-05-27T08:22:28Z</time>
      </trkpt>
      <trkpt lat="48.06184" lon="-4.68129">
        <ele>61.18</ele>
        <time>2017-05-27T08:22:33Z</time>
      </trkpt>
      <trkpt lat="48.0618" lon="-4.68134">
        <ele>60.7</ele>
        <time>2017-05-27T08:22:37Z</time>
      </trkpt>
      <trkpt lat="48.06177" lon="-4.68145">
        <ele>60.22</ele>
        <time>2017-05-27T08:22:42Z</time>
      </trkpt>
      <trkpt lat="48.06174" lon="-4.68158">
        <ele>61.18</ele>
        <time>2017-05-27T08:22:52Z</time>
      </trkpt>
      <trkpt lat="48.06171" lon="-4.68178">
        <ele>59.74</ele>
        <time>2017-05-27T08:23:05Z</time>
      </trkpt>
      <trkpt lat="48.06169" lon="-4.68199">
        <ele>54.93</ele>
        <time>2017-05-27T08:23:17Z</time>
      </trkpt>
      <trkpt lat="48.0616" lon="-4.6821">
        <ele>53.97</ele>
        <time>2017-05-27T08:23:25Z</time>
      </trkpt>
      <trkpt lat="48.06149" lon="-4.68231">
        <ele>54.93</ele>
        <time>2017-05-27T08:23:37Z</time>
      </trkpt>
      <trkpt lat="48.06145" lon="-4.68234">
        <ele>56.37</ele>
        <time>2017-05-27T08:23:41Z</time>
      </trkpt>
      <trkpt lat="48.06137" lon="-4.68236">
        <ele>56.86</ele>
        <time>2017-05-27T08:23:48Z</time>
      </trkpt>
      <trkpt lat="48.06131" lon="-4.68245">
        <ele>56.86</ele>
        <time>2017-05-27T08:23:53Z</time>
      </trkpt>
      <trkpt lat="48.06125" lon="-4.68263">
        <ele>54.93</ele>
        <time>2017-05-27T08:24:06Z</time>
      </trkpt>
      <trkpt lat="48.06126" lon="-4.68267">
        <ele>55.41</ele>
        <time>2017-05-27T08:24:08Z</time>
      </trkpt>
      <trkpt lat="48.06127" lon="-4.68277">
        <ele>54.45</ele>
        <time>2017-05-27T08:24:13Z</time>
      </trkpt>
      <trkpt lat="48.06126" lon="-4.68285">
        <ele>53.97</ele>
        <time>2017-05-27T08:24:16Z</time>
      </trkpt>
      <trkpt lat="48.06121" lon="-4.68295">
        <ele>53.97</ele>
        <time>2017-05-27T08:24:21Z</time>
      </trkpt>
      <trkpt lat="48.06105" lon="-4.68312">
        <ele>55.89</ele>
        <time>2017-05-27T08:24:36Z</time>
      </trkpt>
      <trkpt lat="48.06099" lon="-4.68319">
        <ele>56.37</ele>
        <time>2017-05-27T08:24:40Z</time>
      </trkpt>
      <trkpt lat="48.06095" lon="-4.68319">
        <ele>56.37</ele>
        <time>2017-05-27T08:24:45Z</time>
      </trkpt>
      <trkpt lat="48.06089" lon="-4.68326">
        <ele>56.37</ele>
        <time>2017-05-27T08:24:50Z</time>
      </trkpt>
      <trkpt lat="48.06085" lon="-4.68328">
        <ele>56.37</ele>
        <time>2017-05-27T08:24:53Z</time>
      </trkpt>
      <trkpt lat="48.06077" lon="-4.68339">
        <ele>58.3</ele>
        <time>2017-05-27T08:25:03Z</time>
      </trkpt>
      <trkpt lat="48.06069" lon="-4.68366">
        <ele>54.93</ele>
        <time>2017-05-27T08:25:18Z</time>
      </trkpt>
      <trkpt lat="48.0607" lon="-4.68369">
        <ele>54.45</ele>
        <time>2017-05-27T08:25:20Z</time>
      </trkpt>
      <trkpt lat="48.06071" lon="-4.68382">
        <ele>54.45</ele>
        <time>2017-05-27T08:25:27Z</time>
      </trkpt>
      <trkpt lat="48.06066" lon="-4.68423">
        <ele>53.49</ele>
        <time>2017-05-27T08:25:43Z</time>
      </trkpt>
      <trkpt lat="48.06065" lon="-4.68437">
        <ele>54.93</ele>
        <time>2017-05-27T08:25:50Z</time>
      </trkpt>
      <trkpt lat="48.06066" lon="-4.68444">
        <ele>55.89</ele>
        <time>2017-05-27T08:25:54Z</time>
      </trkpt>
      <trkpt lat="48.0606" lon="-4.68457">
        <ele>57.82</ele>
        <time>2017-05-27T08:26:05Z</time>
      </trkpt>
      <trkpt lat="48.06055" lon="-4.68463">
        <ele>58.3</ele>
        <time>2017-05-27T08:26:09Z</time>
      </trkpt>
      <trkpt lat="48.06034" lon="-4.68476">
        <ele>58.3</ele>
        <time>2017-05-27T08:26:24Z</time>
      </trkpt>
      <trkpt lat="48.06017" lon="-4.68491">
        <ele>59.26</ele>
        <time>2017-05-27T08:26:38Z</time>
      </trkpt>
      <trkpt lat="48.06003" lon="-4.68495">
        <ele>59.26</ele>
        <time>2017-05-27T08:26:52Z</time>
      </trkpt>
      <trkpt lat="48.05997" lon="-4.68497">
        <ele>57.82</ele>
        <time>2017-05-27T08:27:00Z</time>
      </trkpt>
      <trkpt lat="48.06001" lon="-4.68509">
        <ele>56.86</ele>
        <time>2017-05-27T08:27:08Z</time>
      </trkpt>
      <trkpt lat="48.06005" lon="-4.68527">
        <ele>55.89</ele>
        <time>2017-05-27T08:27:21Z</time>
      </trkpt>
      <trkpt lat="48.06009" lon="-4.68551">
        <ele>55.41</ele>
        <time>2017-05-27T08:27:32Z</time>
      </trkpt>
      <trkpt lat="48.06014" lon="-4.6856">
        <ele>54.93</ele>
        <time>2017-05-27T08:27:37Z</time>
      </trkpt>
      <trkpt lat="48.06022" lon="-4.68566">
        <ele>55.41</ele>
        <time>2017-05-27T08:27:42Z</time>
      </trkpt>
      <trkpt lat="48.06026" lon="-4.68572">
        <ele>55.41</ele>
        <time>2017-05-27T08:27:46Z</time>
      </trkpt>
      <trkpt lat="48.06033" lon="-4.68584">
        <ele>58.78</ele>
        <time>2017-05-27T08:27:53Z</time>
      </trkpt>
      <trkpt lat="48.06044" lon="-4.68602">
        <ele>62.14</ele>
        <time>2017-05-27T08:28:06Z</time>
      </trkpt>
      <trkpt lat="48.06063" lon="-4.68617">
        <ele>60.7</ele>
        <time>2017-05-27T08:28:21Z</time>
      </trkpt>
      <trkpt lat="48.06082" lon="-4.68625">
        <ele>64.07</ele>
        <time>2017-05-27T08:28:33Z</time>
      </trkpt>
      <trkpt lat="48.06091" lon="-4.6865">
        <ele>66.47</ele>
        <time>2017-05-27T08:28:48Z</time>
      </trkpt>
      <trkpt lat="48.06092" lon="-4.68686">
        <ele>68.39</ele>
        <time>2017-05-27T08:29:06Z</time>
      </trkpt>
      <trkpt lat="48.06095" lon="-4.68697">
        <ele>70.79</ele>
        <time>2017-05-27T08:29:11Z</time>
      </trkpt>
      <trkpt lat="48.06097" lon="-4.68712">
        <ele>71.76</ele>
        <time>2017-05-27T08:29:17Z</time>
      </trkpt>
      <trkpt lat="48.061" lon="-4.68719">
        <ele>71.27</ele>
        <time>2017-05-27T08:29:20Z</time>
      </trkpt>
      <trkpt lat="48.0611" lon="-4.6873">
        <ele>70.79</ele>
        <time>2017-05-27T08:29:28Z</time>
      </trkpt>
      <trkpt lat="48.06119" lon="-4.68747">
        <ele>66.95</ele>
        <time>2017-05-27T08:29:38Z</time>
      </trkpt>
      <trkpt lat="48.06115" lon="-4.6876">
        <ele>64.55</ele>
        <time>2017-05-27T08:29:45Z</time>
      </trkpt>
      <trkpt lat="48.06116" lon="-4.68766">
        <ele>63.58</ele>
        <time>2017-05-27T08:29:48Z</time>
      </trkpt>
      <trkpt lat="48.0613" lon="-4.68787">
        <ele>62.14</ele>
        <time>2017-05-27T08:30:00Z</time>
      </trkpt>
      <trkpt lat="48.06141" lon="-4.68804">
        <ele>62.62</ele>
        <time>2017-05-27T08:30:09Z</time>
      </trkpt>
      <trkpt lat="48.06145" lon="-4.68826">
        <ele>61.18</ele>
        <time>2017-05-27T08:30:20Z</time>
      </trkpt>
      <trkpt lat="48.06149" lon="-4.68843">
        <ele>62.62</ele>
        <time>2017-05-27T08:30:32Z</time>
      </trkpt>
      <trkpt lat="48.06143" lon="-4.68864">
        <ele>62.62</ele>
        <time>2017-05-27T08:30:41Z</time>
      </trkpt>
      <trkpt lat="48.06138" lon="-4.68873">
        <ele>64.55</ele>
        <time>2017-05-27T08:30:55Z</time>
      </trkpt>
      <trkpt lat="48.06138" lon="-4.68873">
        <ele>64.07</ele>
        <time>2017-05-27T08:31:07Z</time>
      </trkpt>
      <trkpt lat="48.06124" lon="-4.68893">
        <ele>62.62</ele>
        <time>2017-05-27T08:31:22Z</time>
      </trkpt>
      <trkpt lat="48.06122" lon="-4.68899">
        <ele>61.66</ele>
        <time>2017-05-27T08:31:26Z</time>
      </trkpt>
      <trkpt lat="48.06111" lon="-4.68913">
        <ele>58.78</ele>
        <time>2017-05-27T08:31:38Z</time>
      </trkpt>
      <trkpt lat="48.06106" lon="-4.68921">
        <ele>57.34</ele>
        <time>2017-05-27T08:31:42Z</time>
      </trkpt>
      <trkpt lat="48.06105" lon="-4.68924">
        <ele>56.86</ele>
        <time>2017-05-27T08:31:44Z</time>
      </trkpt>
      <trkpt lat="48.06094" lon="-4.68934">
        <ele>56.37</ele>
        <time>2017-05-27T08:31:53Z</time>
      </trkpt>
      <trkpt lat="48.0608" lon="-4.68953">
        <ele>55.89</ele>
        <time>2017-05-27T08:32:08Z</time>
      </trkpt>
      <trkpt lat="48.06082" lon="-4.6898">
        <ele>55.89</ele>
        <time>2017-05-27T08:32:18Z</time>
      </trkpt>
      <trkpt lat="48.06084" lon="-4.68989">
        <ele>55.41</ele>
        <time>2017-05-27T08:32:21Z</time>
      </trkpt>
      <trkpt lat="48.06086" lon="-4.69001">
        <ele>54.93</ele>
        <time>2017-05-27T08:32:26Z</time>
      </trkpt>
      <trkpt lat="48.06086" lon="-4.69013">
        <ele>54.45</ele>
        <time>2017-05-27T08:32:30Z</time>
      </trkpt>
      <trkpt lat="48.0609" lon="-4.69022">
        <ele>54.93</ele>
        <time>2017-05-27T08:32:34Z</time>
      </trkpt>
      <trkpt lat="48.06105" lon="-4.69073">
        <ele>52.53</ele>
        <time>2017-05-27T08:32:52Z</time>
      </trkpt>
      <trkpt lat="48.06097" lon="-4.69109">
        <ele>53.49</ele>
        <time>2017-05-27T08:33:06Z</time>
      </trkpt>
      <trkpt lat="48.06089" lon="-4.69114">
        <ele>54.45</ele>
        <time>2017-05-27T08:33:18Z</time>
      </trkpt>
      <trkpt lat="48.06091" lon="-4.69119">
        <ele>54.45</ele>
        <time>2017-05-27T08:33:29Z</time>
      </trkpt>
      <trkpt lat="48.06082" lon="-4.6913">
        <ele>52.05</ele>
        <time>2017-05-27T08:33:38Z</time>
      </trkpt>
      <trkpt lat="48.06087" lon="-4.69156">
        <ele>48.2</ele>
        <time>2017-05-27T08:33:51Z</time>
      </trkpt>
      <trkpt lat="48.06095" lon="-4.69168">
        <ele>45.32</ele>
        <time>2017-05-27T08:34:03Z</time>
      </trkpt>
      <trkpt lat="48.06099" lon="-4.69172">
        <ele>45.32</ele>
        <time>2017-05-27T08:34:06Z</time>
      </trkpt>
      <trkpt lat="48.06114" lon="-4.69192">
        <ele>44.84</ele>
        <time>2017-05-27T08:34:19Z</time>
      </trkpt>
      <trkpt lat="48.06119" lon="-4.69203">
        <ele>44.84</ele>
        <time>2017-05-27T08:34:24Z</time>
      </trkpt>
      <trkpt lat="48.06118" lon="-4.69208">
        <ele>44.84</ele>
        <time>2017-05-27T08:34:26Z</time>
      </trkpt>
      <trkpt lat="48.06104" lon="-4.69213">
        <ele>47.72</ele>
        <time>2017-05-27T08:34:40Z</time>
      </trkpt>
      <trkpt lat="48.06103" lon="-4.69213">
        <ele>48.2</ele>
        <time>2017-05-27T08:34:41Z</time>
      </trkpt>
      <trkpt lat="48.06088" lon="-4.69213">
        <ele>49.65</ele>
        <time>2017-05-27T08:34:52Z</time>
      </trkpt>
      <trkpt lat="48.06068" lon="-4.69218">
        <ele>52.05</ele>
        <time>2017-05-27T08:35:07Z</time>
      </trkpt>
      <trkpt lat="48.06062" lon="-4.69219">
        <ele>53.49</ele>
        <time>2017-05-27T08:35:13Z</time>
      </trkpt>
      <trkpt lat="48.06044" lon="-4.69224">
        <ele>53.97</ele>
        <time>2017-05-27T08:35:28Z</time>
      </trkpt>
      <trkpt lat="48.06043" lon="-4.69224">
        <ele>53.97</ele>
        <time>2017-05-27T08:35:29Z</time>
      </trkpt>
      <trkpt lat="48.06032" lon="-4.69236">
        <ele>54.93</ele>
        <time>2017-05-27T08:35:38Z</time>
      </trkpt>
      <trkpt lat="48.06014" lon="-4.69246">
        <ele>54.93</ele>
        <time>2017-05-27T08:35:52Z</time>
      </trkpt>
      <trkpt lat="48.05998" lon="-4.69258">
        <ele>57.34</ele>
        <time>2017-05-27T08:36:09Z</time>
      </trkpt>
      <trkpt lat="48.05979" lon="-4.69248">
        <ele>59.74</ele>
        <time>2017-05-27T08:36:24Z</time>
      </trkpt>
      <trkpt lat="48.05965" lon="-4.69246">
        <ele>59.74</ele>
        <time>2017-05-27T08:36:33Z</time>
      </trkpt>
      <trkpt lat="48.05945" lon="-4.69249">
        <ele>61.18</ele>
        <time>2017-05-27T08:36:47Z</time>
      </trkpt>
      <trkpt lat="48.0594" lon="-4.6925">
        <ele>61.66</ele>
        <time>2017-05-27T08:36:52Z</time>
      </trkpt>
      <trkpt lat="48.05926" lon="-4.69242">
        <ele>60.7</ele>
        <time>2017-05-27T08:37:02Z</time>
      </trkpt>
      <trkpt lat="48.0592" lon="-4.69247">
        <ele>60.7</ele>
        <time>2017-05-27T08:37:10Z</time>
      </trkpt>
      <trkpt lat="48.05913" lon="-4.69263">
        <ele>61.18</ele>
        <time>2017-05-27T08:37:20Z</time>
      </trkpt>
      <trkpt lat="48.05912" lon="-4.69273">
        <ele>61.18</ele>
        <time>2017-05-27T08:37:25Z</time>
      </trkpt>
      <trkpt lat="48.05905" lon="-4.69301">
        <ele>57.82</ele>
        <time>2017-05-27T08:37:38Z</time>
      </trkpt>
      <trkpt lat="48.05903" lon="-4.69303">
        <ele>57.34</ele>
        <time>2017-05-27T08:37:40Z</time>
      </trkpt>
      <trkpt lat="48.05894" lon="-4.69321">
        <ele>54.45</ele>
        <time>2017-05-27T08:37:50Z</time>
      </trkpt>
      <trkpt lat="48.05894" lon="-4.6933">
        <ele>52.53</ele>
        <time>2017-05-27T08:37:55Z</time>
      </trkpt>
      <trkpt lat="48.05904" lon="-4.69337">
        <ele>48.2</ele>
        <time>2017-05-27T08:38:05Z</time>
      </trkpt>
      <trkpt lat="48.05908" lon="-4.69342">
        <ele>46.76</ele>
        <time>2017-05-27T08:38:10Z</time>
      </trkpt>
      <trkpt lat="48.05923" lon="-4.69355">
        <ele>47.24</ele>
        <time>2017-05-27T08:38:24Z</time>
      </trkpt>
      <trkpt lat="48.05929" lon="-4.69375">
        <ele>48.2</ele>
        <time>2017-05-27T08:38:36Z</time>
      </trkpt>
      <trkpt lat="48.05932" lon="-4.69382">
        <ele>49.16</ele>
        <time>2017-05-27T08:38:41Z</time>
      </trkpt>
      <trkpt lat="48.05943" lon="-4.694">
        <ele>49.16</ele>
        <time>2017-05-27T08:38:53Z</time>
      </trkpt>
      <trkpt lat="48.05954" lon="-4.69421">
        <ele>50.61</ele>
        <time>2017-05-27T08:39:10Z</time>
      </trkpt>
      <trkpt lat="48.05954" lon="-4.69421">
        <ele>50.61</ele>
        <time>2017-05-27T08:39:11Z</time>
      </trkpt>
      <trkpt lat="48.05962" lon="-4.69433">
        <ele>52.53</ele>
        <time>2017-05-27T08:39:20Z</time>
      </trkpt>
      <trkpt lat="48.05966" lon="-4.69443">
        <ele>52.53</ele>
        <time>2017-05-27T08:39:26Z</time>
      </trkpt>
      <trkpt lat="48.05972" lon="-4.69444">
        <ele>53.01</ele>
        <time>2017-05-27T08:39:30Z</time>
      </trkpt>
      <trkpt lat="48.05978" lon="-4.69452">
        <ele>52.53</ele>
        <time>2017-05-27T08:39:36Z</time>
      </trkpt>
      <trkpt lat="48.05987" lon="-4.69465">
        <ele>53.01</ele>
        <time>2017-05-27T08:39:47Z</time>
      </trkpt>
      <trkpt lat="48.05987" lon="-4.6947">
        <ele>53.01</ele>
        <time>2017-05-27T08:39:50Z</time>
      </trkpt>
      <trkpt lat="48.05987" lon="-4.69489">
        <ele>53.01</ele>
        <time>2017-05-27T08:40:00Z</time>
      </trkpt>
      <trkpt lat="48.05985" lon="-4.69492">
        <ele>52.53</ele>
        <time>2017-05-27T08:40:03Z</time>
      </trkpt>
      <trkpt lat="48.05982" lon="-4.69516">
        <ele>53.49</ele>
        <time>2017-05-27T08:40:16Z</time>
      </trkpt>
      <trkpt lat="48.05984" lon="-4.69537">
        <ele>53.01</ele>
        <time>2017-05-27T08:40:25Z</time>
      </trkpt>
      <trkpt lat="48.05984" lon="-4.69544">
        <ele>53.01</ele>
        <time>2017-05-27T08:40:28Z</time>
      </trkpt>
      <trkpt lat="48.0599" lon="-4.69559">
        <ele>53.01</ele>
        <time>2017-05-27T08:40:37Z</time>
      </trkpt>
      <trkpt lat="48.06003" lon="-4.69582">
        <ele>53.97</ele>
        <time>2017-05-27T08:40:51Z</time>
      </trkpt>
      <trkpt lat="48.06005" lon="-4.69587">
        <ele>53.97</ele>
        <time>2017-05-27T08:40:53Z</time>
      </trkpt>
      <trkpt lat="48.06009" lon="-4.69601">
        <ele>53.01</ele>
        <time>2017-05-27T08:41:00Z</time>
      </trkpt>
      <trkpt lat="48.06016" lon="-4.69624">
        <ele>54.93</ele>
        <time>2017-05-27T08:41:17Z</time>
      </trkpt>
      <trkpt lat="48.06018" lon="-4.69658">
        <ele>56.86</ele>
        <time>2017-05-27T08:41:31Z</time>
      </trkpt>
      <trkpt lat="48.0602" lon="-4.69678">
        <ele>58.78</ele>
        <time>2017-05-27T08:41:43Z</time>
      </trkpt>
      <trkpt lat="48.06026" lon="-4.69689">
        <ele>58.78</ele>
        <time>2017-05-27T08:41:49Z</time>
      </trkpt>
      <trkpt lat="48.06042" lon="-4.69713">
        <ele>57.82</ele>
        <time>2017-05-27T08:42:03Z</time>
      </trkpt>
      <trkpt lat="48.06047" lon="-4.69706">
        <ele>55.41</ele>
        <time>2017-05-27T08:42:12Z</time>
      </trkpt>
      <trkpt lat="48.06054" lon="-4.69697">
        <ele>52.53</ele>
        <time>2017-05-27T08:42:19Z</time>
      </trkpt>
      <trkpt lat="48.06058" lon="-4.69695">
        <ele>51.57</ele>
        <time>2017-05-27T08:42:23Z</time>
      </trkpt>
      <trkpt lat="48.06062" lon="-4.69691">
        <ele>50.61</ele>
        <time>2017-05-27T08:42:29Z</time>
      </trkpt>
      <trkpt lat="48.06072" lon="-4.69704">
        <ele>48.2</ele>
        <time>2017-05-27T08:42:43Z</time>
      </trkpt>
      <trkpt lat="48.06074" lon="-4.69709">
        <ele>48.2</ele>
        <time>2017-05-27T08:42:47Z</time>
      </trkpt>
      <trkpt lat="48.06087" lon="-4.69727">
        <ele>44.84</ele>
        <time>2017-05-27T08:43:01Z</time>
      </trkpt>
      <trkpt lat="48.06084" lon="-4.69757">
        <ele>41.95</ele>
        <time>2017-05-27T08:43:17Z</time>
      </trkpt>
      <trkpt lat="48.06083" lon="-4.69769">
        <ele>43.4</ele>
        <time>2017-05-27T08:43:24Z</time>
      </trkpt>
      <trkpt lat="48.06094" lon="-4.69795">
        <ele>44.84</ele>
        <time>2017-05-27T08:43:40Z</time>
      </trkpt>
      <trkpt lat="48.06104" lon="-4.69808">
        <ele>46.76</ele>
        <time>2017-05-27T08:43:51Z</time>
      </trkpt>
      <trkpt lat="48.06107" lon="-4.69813">
        <ele>46.76</ele>
        <time>2017-05-27T08:43:54Z</time>
      </trkpt>
      <trkpt lat="48.06103" lon="-4.69839">
        <ele>44.84</ele>
        <time>2017-05-27T08:44:06Z</time>
      </trkpt>
      <trkpt lat="48.06104" lon="-4.69843">
        <ele>44.36</ele>
        <time>2017-05-27T08:44:09Z</time>
      </trkpt>
      <trkpt lat="48.06109" lon="-4.6985">
        <ele>44.36</ele>
        <time>2017-05-27T08:44:16Z</time>
      </trkpt>
      <trkpt lat="48.06112" lon="-4.69858">
        <ele>44.36</ele>
        <time>2017-05-27T08:44:22Z</time>
      </trkpt>
      <trkpt lat="48.06129" lon="-4.69873">
        <ele>44.84</ele>
        <time>2017-05-27T08:44:37Z</time>
      </trkpt>
      <trkpt lat="48.06134" lon="-4.69874">
        <ele>44.84</ele>
        <time>2017-05-27T08:44:42Z</time>
      </trkpt>
      <trkpt lat="48.06144" lon="-4.6987">
        <ele>45.8</ele>
        <time>2017-05-27T08:44:50Z</time>
      </trkpt>
      <trkpt lat="48.06162" lon="-4.69871">
        <ele>50.61</ele>
        <time>2017-05-27T08:45:04Z</time>
      </trkpt>
      <trkpt lat="48.06165" lon="-4.69875">
        <ele>51.57</ele>
        <time>2017-05-27T08:45:07Z</time>
      </trkpt>
      <trkpt lat="48.06173" lon="-4.69896">
        <ele>53.49</ele>
        <time>2017-05-27T08:45:21Z</time>
      </trkpt>
      <trkpt lat="48.06175" lon="-4.69909">
        <ele>54.93</ele>
        <time>2017-05-27T08:45:28Z</time>
      </trkpt>
      <trkpt lat="48.06171" lon="-4.69915">
        <ele>57.34</ele>
        <time>2017-05-27T08:45:44Z</time>
      </trkpt>
      <trkpt lat="48.06172" lon="-4.69915">
        <ele>57.82</ele>
        <time>2017-05-27T08:46:08Z</time>
      </trkpt>
      <trkpt lat="48.06172" lon="-4.69916">
        <ele>57.82</ele>
        <time>2017-05-27T08:46:52Z</time>
      </trkpt>
      <trkpt lat="48.06172" lon="-4.69916">
        <ele>57.82</ele>
        <time>2017-05-27T08:47:32Z</time>
      </trkpt>
      <trkpt lat="48.06171" lon="-4.69916">
        <ele>57.82</ele>
        <time>2017-05-27T08:48:10Z</time>
      </trkpt>
      <trkpt lat="48.06171" lon="-4.69916">
        <ele>57.82</ele>
        <time>2017-05-27T08:48:41Z</time>
      </trkpt>
      <trkpt lat="48.06166" lon="-4.69926">
        <ele>58.78</ele>
        <time>2017-05-27T08:48:56Z</time>
      </trkpt>
      <trkpt lat="48.06161" lon="-4.69937">
        <ele>58.78</ele>
        <time>2017-05-27T08:49:03Z</time>
      </trkpt>
      <trkpt lat="48.06161" lon="-4.6995">
        <ele>59.74</ele>
        <time>2017-05-27T08:49:08Z</time>
      </trkpt>
      <trkpt lat="48.06163" lon="-4.69961">
        <ele>61.66</ele>
        <time>2017-05-27T08:49:15Z</time>
      </trkpt>
      <trkpt lat="48.06166" lon="-4.69971">
        <ele>62.14</ele>
        <time>2017-05-27T08:49:20Z</time>
      </trkpt>
      <trkpt lat="48.06168" lon="-4.69976">
        <ele>62.62</ele>
        <time>2017-05-27T08:49:22Z</time>
      </trkpt>
      <trkpt lat="48.06176" lon="-4.69998">
        <ele>62.14</ele>
        <time>2017-05-27T08:49:36Z</time>
      </trkpt>
      <trkpt lat="48.0617" lon="-4.70021">
        <ele>60.7</ele>
        <time>2017-05-27T08:49:48Z</time>
      </trkpt>
      <trkpt lat="48.06165" lon="-4.70029">
        <ele>61.18</ele>
        <time>2017-05-27T08:49:53Z</time>
      </trkpt>
      <trkpt lat="48.06164" lon="-4.70033">
        <ele>60.7</ele>
        <time>2017-05-27T08:49:56Z</time>
      </trkpt>
      <trkpt lat="48.06163" lon="-4.7004">
        <ele>60.7</ele>
        <time>2017-05-27T08:50:00Z</time>
      </trkpt>
      <trkpt lat="48.06153" lon="-4.70062">
        <ele>59.26</ele>
        <time>2017-05-27T08:50:12Z</time>
      </trkpt>
      <trkpt lat="48.06152" lon="-4.70066">
        <ele>59.26</ele>
        <time>2017-05-27T08:50:14Z</time>
      </trkpt>
      <trkpt lat="48.06152" lon="-4.70076">
        <ele>59.26</ele>
        <time>2017-05-27T08:50:21Z</time>
      </trkpt>
      <trkpt lat="48.06143" lon="-4.701">
        <ele>58.78</ele>
        <time>2017-05-27T08:50:34Z</time>
      </trkpt>
      <trkpt lat="48.06139" lon="-4.70107">
        <ele>59.26</ele>
        <time>2017-05-27T08:50:38Z</time>
      </trkpt>
      <trkpt lat="48.06137" lon="-4.70115">
        <ele>60.7</ele>
        <time>2017-05-27T08:50:44Z</time>
      </trkpt>
      <trkpt lat="48.06137" lon="-4.70124">
        <ele>61.18</ele>
        <time>2017-05-27T08:50:48Z</time>
      </trkpt>
      <trkpt lat="48.06137" lon="-4.70128">
        <ele>61.18</ele>
        <time>2017-05-27T08:50:50Z</time>
      </trkpt>
      <trkpt lat="48.06137" lon="-4.70138">
        <ele>61.18</ele>
        <time>2017-05-27T08:50:54Z</time>
      </trkpt>
      <trkpt lat="48.06135" lon="-4.70149">
        <ele>60.7</ele>
        <time>2017-05-27T08:51:02Z</time>
      </trkpt>
      <trkpt lat="48.06137" lon="-4.70157">
        <ele>61.18</ele>
        <time>2017-05-27T08:51:08Z</time>
      </trkpt>
      <trkpt lat="48.0614" lon="-4.7017">
        <ele>60.7</ele>
        <time>2017-05-27T08:51:15Z</time>
      </trkpt>
      <trkpt lat="48.06136" lon="-4.70179">
        <ele>60.7</ele>
        <time>2017-05-27T08:51:21Z</time>
      </trkpt>
      <trkpt lat="48.06132" lon="-4.70186">
        <ele>61.66</ele>
        <time>2017-05-27T08:51:28Z</time>
      </trkpt>
      <trkpt lat="48.06123" lon="-4.70206">
        <ele>65.99</ele>
        <time>2017-05-27T08:51:39Z</time>
      </trkpt>
      <trkpt lat="48.06122" lon="-4.70213">
        <ele>67.43</ele>
        <time>2017-05-27T08:51:42Z</time>
      </trkpt>
      <trkpt lat="48.06123" lon="-4.70217">
        <ele>67.91</ele>
        <time>2017-05-27T08:51:45Z</time>
      </trkpt>
      <trkpt lat="48.06131" lon="-4.70242">
        <ele>69.35</ele>
        <time>2017-05-27T08:51:59Z</time>
      </trkpt>
      <trkpt lat="48.0613" lon="-4.7025">
        <ele>68.87</ele>
        <time>2017-05-27T08:52:02Z</time>
      </trkpt>
      <trkpt lat="48.06127" lon="-4.70269">
        <ele>68.87</ele>
        <time>2017-05-27T08:52:13Z</time>
      </trkpt>
      <trkpt lat="48.06134" lon="-4.70291">
        <ele>68.39</ele>
        <time>2017-05-27T08:52:24Z</time>
      </trkpt>
      <trkpt lat="48.06136" lon="-4.70297">
        <ele>67.43</ele>
        <time>2017-05-27T08:52:27Z</time>
      </trkpt>
      <trkpt lat="48.06138" lon="-4.70311">
        <ele>66.95</ele>
        <time>2017-05-27T08:52:32Z</time>
      </trkpt>
      <trkpt lat="48.06139" lon="-4.70317">
        <ele>65.99</ele>
        <time>2017-05-27T08:52:34Z</time>
      </trkpt>
      <trkpt lat="48.06141" lon="-4.70332">
        <ele>65.99</ele>
        <time>2017-05-27T08:52:39Z</time>
      </trkpt>
      <trkpt lat="48.06145" lon="-4.70367">
        <ele>67.91</ele>
        <time>2017-05-27T08:52:54Z</time>
      </trkpt>
      <trkpt lat="48.06148" lon="-4.70383">
        <ele>65.51</ele>
        <time>2017-05-27T08:53:01Z</time>
      </trkpt>
      <trkpt lat="48.06154" lon="-4.70406">
        <ele>63.58</ele>
        <time>2017-05-27T08:53:13Z</time>
      </trkpt>
      <trkpt lat="48.06168" lon="-4.70438">
        <ele>57.82</ele>
        <time>2017-05-27T08:53:30Z</time>
      </trkpt>
      <trkpt lat="48.06182" lon="-4.70461">
        <ele>57.34</ele>
        <time>2017-05-27T08:53:43Z</time>
      </trkpt>
      <trkpt lat="48.06184" lon="-4.70464">
        <ele>57.34</ele>
        <time>2017-05-27T08:53:45Z</time>
      </trkpt>
      <trkpt lat="48.06188" lon="-4.7047">
        <ele>59.74</ele>
        <time>2017-05-27T08:53:51Z</time>
      </trkpt>
      <trkpt lat="48.06191" lon="-4.7047">
        <ele>60.7</ele>
        <time>2017-05-27T08:53:54Z</time>
      </trkpt>
      <trkpt lat="48.06197" lon="-4.70488">
        <ele>62.62</ele>
        <time>2017-05-27T08:54:02Z</time>
      </trkpt>
      <trkpt lat="48.06204" lon="-4.70502">
        <ele>65.03</ele>
        <time>2017-05-27T08:54:11Z</time>
      </trkpt>
      <trkpt lat="48.06208" lon="-4.70516">
        <ele>65.03</ele>
        <time>2017-05-27T08:54:18Z</time>
      </trkpt>
      <trkpt lat="48.06222" lon="-4.70545">
        <ele>64.55</ele>
        <time>2017-05-27T08:54:33Z</time>
      </trkpt>
      <trkpt lat="48.06228" lon="-4.70574">
        <ele>63.58</ele>
        <time>2017-05-27T08:54:47Z</time>
      </trkpt>
      <trkpt lat="48.06232" lon="-4.70602">
        <ele>60.7</ele>
        <time>2017-05-27T08:55:01Z</time>
      </trkpt>
      <trkpt lat="48.06234" lon="-4.70613">
        <ele>60.7</ele>
        <time>2017-05-27T08:55:06Z</time>
      </trkpt>
      <trkpt lat="48.06238" lon="-4.70642">
        <ele>61.66</ele>
        <time>2017-05-27T08:55:21Z</time>
      </trkpt>
      <trkpt lat="48.06239" lon="-4.70656">
        <ele>60.7</ele>
        <time>2017-05-27T08:55:32Z</time>
      </trkpt>
      <trkpt lat="48.06239" lon="-4.7066">
        <ele>60.7</ele>
        <time>2017-05-27T08:55:36Z</time>
      </trkpt>
      <trkpt lat="48.06239" lon="-4.70684">
        <ele>60.7</ele>
        <time>2017-05-27T08:55:46Z</time>
      </trkpt>
      <trkpt lat="48.06246" lon="-4.70708">
        <ele>61.66</ele>
        <time>2017-05-27T08:56:00Z</time>
      </trkpt>
      <trkpt lat="48.06247" lon="-4.70736">
        <ele>62.14</ele>
        <time>2017-05-27T08:56:11Z</time>
      </trkpt>
      <trkpt lat="48.06248" lon="-4.70746">
        <ele>61.66</ele>
        <time>2017-05-27T08:56:16Z</time>
      </trkpt>
      <trkpt lat="48.06251" lon="-4.70772">
        <ele>60.22</ele>
        <time>2017-05-27T08:56:29Z</time>
      </trkpt>
      <trkpt lat="48.06251" lon="-4.70785">
        <ele>60.22</ele>
        <time>2017-05-27T08:56:40Z</time>
      </trkpt>
      <trkpt lat="48.06252" lon="-4.70792">
        <ele>59.74</ele>
        <time>2017-05-27T08:56:44Z</time>
      </trkpt>
      <trkpt lat="48.06252" lon="-4.70796">
        <ele>59.74</ele>
        <time>2017-05-27T08:56:46Z</time>
      </trkpt>
      <trkpt lat="48.06251" lon="-4.7081">
        <ele>59.26</ele>
        <time>2017-05-27T08:56:52Z</time>
      </trkpt>
      <trkpt lat="48.06252" lon="-4.70832">
        <ele>58.3</ele>
        <time>2017-05-27T08:57:05Z</time>
      </trkpt>
      <trkpt lat="48.0625" lon="-4.70837">
        <ele>58.3</ele>
        <time>2017-05-27T08:57:08Z</time>
      </trkpt>
      <trkpt lat="48.0625" lon="-4.70849">
        <ele>57.82</ele>
        <time>2017-05-27T08:57:20Z</time>
      </trkpt>
      <trkpt lat="48.06251" lon="-4.70849">
        <ele>57.34</ele>
        <time>2017-05-27T08:57:54Z</time>
      </trkpt>
      <trkpt lat="48.0625" lon="-4.70853">
        <ele>57.34</ele>
        <time>2017-05-27T08:58:09Z</time>
      </trkpt>
      <trkpt lat="48.06248" lon="-4.70862">
        <ele>56.86</ele>
        <time>2017-05-27T08:58:14Z</time>
      </trkpt>
      <trkpt lat="48.06248" lon="-4.70868">
        <ele>55.89</ele>
        <time>2017-05-27T08:58:18Z</time>
      </trkpt>
      <trkpt lat="48.06249" lon="-4.7088">
        <ele>54.93</ele>
        <time>2017-05-27T08:58:22Z</time>
      </trkpt>
      <trkpt lat="48.06246" lon="-4.70906">
        <ele>53.97</ele>
        <time>2017-05-27T08:58:30Z</time>
      </trkpt>
      <trkpt lat="48.06245" lon="-4.70917">
        <ele>54.45</ele>
        <time>2017-05-27T08:58:35Z</time>
      </trkpt>
      <trkpt lat="48.06246" lon="-4.70938">
        <ele>53.97</ele>
        <time>2017-05-27T08:58:45Z</time>
      </trkpt>
      <trkpt lat="48.06251" lon="-4.70949">
        <ele>54.93</ele>
        <time>2017-05-27T08:58:54Z</time>
      </trkpt>
      <trkpt lat="48.0626" lon="-4.70972">
        <ele>56.37</ele>
        <time>2017-05-27T08:59:07Z</time>
      </trkpt>
      <trkpt lat="48.06269" lon="-4.70995">
        <ele>56.86</ele>
        <time>2017-05-27T08:59:21Z</time>
      </trkpt>
      <trkpt lat="48.06269" lon="-4.70999">
        <ele>56.86</ele>
        <time>2017-05-27T08:59:23Z</time>
      </trkpt>
      <trkpt lat="48.06273" lon="-4.71011">
        <ele>57.82</ele>
        <time>2017-05-27T08:59:29Z</time>
      </trkpt>
      <trkpt lat="48.06291" lon="-4.71047">
        <ele>54.45</ele>
        <time>2017-05-27T08:59:43Z</time>
      </trkpt>
      <trkpt lat="48.06298" lon="-4.71058">
        <ele>53.97</ele>
        <time>2017-05-27T08:59:50Z</time>
      </trkpt>
      <trkpt lat="48.06304" lon="-4.71066">
        <ele>56.37</ele>
        <time>2017-05-27T08:59:57Z</time>
      </trkpt>
      <trkpt lat="48.06308" lon="-4.7107">
        <ele>56.86</ele>
        <time>2017-05-27T09:00:01Z</time>
      </trkpt>
      <trkpt lat="48.06328" lon="-4.71078">
        <ele>58.78</ele>
        <time>2017-05-27T09:00:13Z</time>
      </trkpt>
      <trkpt lat="48.06342" lon="-4.71102">
        <ele>60.22</ele>
        <time>2017-05-27T09:00:29Z</time>
      </trkpt>
      <trkpt lat="48.06361" lon="-4.71119">
        <ele>61.66</ele>
        <time>2017-05-27T09:00:46Z</time>
      </trkpt>
      <trkpt lat="48.06364" lon="-4.71123">
        <ele>62.14</ele>
        <time>2017-05-27T09:00:49Z</time>
      </trkpt>
      <trkpt lat="48.06376" lon="-4.71146">
        <ele>62.62</ele>
        <time>2017-05-27T09:01:02Z</time>
      </trkpt>
      <trkpt lat="48.06379" lon="-4.71154">
        <ele>62.14</ele>
        <time>2017-05-27T09:01:07Z</time>
      </trkpt>
      <trkpt lat="48.06382" lon="-4.71162">
        <ele>62.62</ele>
        <time>2017-05-27T09:01:11Z</time>
      </trkpt>
      <trkpt lat="48.06386" lon="-4.71177">
        <ele>62.14</ele>
        <time>2017-05-27T09:01:19Z</time>
      </trkpt>
      <trkpt lat="48.06383" lon="-4.71192">
        <ele>62.14</ele>
        <time>2017-05-27T09:01:27Z</time>
      </trkpt>
      <trkpt lat="48.06382" lon="-4.71195">
        <ele>62.14</ele>
        <time>2017-05-27T09:01:29Z</time>
      </trkpt>
      <trkpt lat="48.06381" lon="-4.71199">
        <ele>62.14</ele>
        <time>2017-05-27T09:01:32Z</time>
      </trkpt>
      <trkpt lat="48.06374" lon="-4.71234">
        <ele>61.66</ele>
        <time>2017-05-27T09:01:47Z</time>
      </trkpt>
      <trkpt lat="48.06365" lon="-4.71267">
        <ele>66.47</ele>
        <time>2017-05-27T09:02:00Z</time>
      </trkpt>
      <trkpt lat="48.06358" lon="-4.71311">
        <ele>73.68</ele>
        <time>2017-05-27T09:02:16Z</time>
      </trkpt>
      <trkpt lat="48.06355" lon="-4.71338">
        <ele>77.04</ele>
        <time>2017-05-27T09:02:29Z</time>
      </trkpt>
      <trkpt lat="48.06348" lon="-4.71384">
        <ele>78.48</ele>
        <time>2017-05-27T09:02:46Z</time>
      </trkpt>
      <trkpt lat="48.06342" lon="-4.71397">
        <ele>78.48</ele>
        <time>2017-05-27T09:02:53Z</time>
      </trkpt>
      <trkpt lat="48.06339" lon="-4.71404">
        <ele>78.97</ele>
        <time>2017-05-27T09:02:58Z</time>
      </trkpt>
      <trkpt lat="48.06333" lon="-4.71421">
        <ele>78.97</ele>
        <time>2017-05-27T09:03:09Z</time>
      </trkpt>
      <trkpt lat="48.06332" lon="-4.71428">
        <ele>78.48</ele>
        <time>2017-05-27T09:03:13Z</time>
      </trkpt>
      <trkpt lat="48.06328" lon="-4.71436">
        <ele>76.56</ele>
        <time>2017-05-27T09:03:20Z</time>
      </trkpt>
      <trkpt lat="48.06324" lon="-4.71446">
        <ele>73.68</ele>
        <time>2017-05-27T09:03:28Z</time>
      </trkpt>
      <trkpt lat="48.06311" lon="-4.71448">
        <ele>68.39</ele>
        <time>2017-05-27T09:03:41Z</time>
      </trkpt>
      <trkpt lat="48.06311" lon="-4.71448">
        <ele>66.47</ele>
        <time>2017-05-27T09:04:00Z</time>
      </trkpt>
      <trkpt lat="48.0631" lon="-4.71448">
        <ele>64.07</ele>
        <time>2017-05-27T09:04:30Z</time>
      </trkpt>
      <trkpt lat="48.0631" lon="-4.71448">
        <ele>62.62</ele>
        <time>2017-05-27T09:04:46Z</time>
      </trkpt>
      <trkpt lat="48.06309" lon="-4.71449">
        <ele>61.18</ele>
        <time>2017-05-27T09:05:03Z</time>
      </trkpt>
      <trkpt lat="48.06309" lon="-4.71449">
        <ele>60.7</ele>
        <time>2017-05-27T09:05:16Z</time>
      </trkpt>
      <trkpt lat="48.06305" lon="-4.71438">
        <ele>60.7</ele>
        <time>2017-05-27T09:05:25Z</time>
      </trkpt>
      <trkpt lat="48.06287" lon="-4.71423">
        <ele>59.26</ele>
        <time>2017-05-27T09:05:38Z</time>
      </trkpt>
      <trkpt lat="48.06277" lon="-4.71415">
        <ele>58.78</ele>
        <time>2017-05-27T09:05:45Z</time>
      </trkpt>
      <trkpt lat="48.06267" lon="-4.71409">
        <ele>58.78</ele>
        <time>2017-05-27T09:05:52Z</time>
      </trkpt>
      <trkpt lat="48.06254" lon="-4.71401">
        <ele>55.89</ele>
        <time>2017-05-27T09:06:06Z</time>
      </trkpt>
      <trkpt lat="48.0623" lon="-4.71377">
        <ele>53.01</ele>
        <time>2017-05-27T09:06:23Z</time>
      </trkpt>
      <trkpt lat="48.0621" lon="-4.71353">
        <ele>49.16</ele>
        <time>2017-05-27T09:06:40Z</time>
      </trkpt>
      <trkpt lat="48.06197" lon="-4.71322">
        <ele>47.72</ele>
        <time>2017-05-27T09:06:55Z</time>
      </trkpt>
      <trkpt lat="48.06186" lon="-4.71294">
        <ele>48.2</ele>
        <time>2017-05-27T09:07:06Z</time>
      </trkpt>
      <trkpt lat="48.06168" lon="-4.71272">
        <ele>49.65</ele>
        <time>2017-05-27T09:07:20Z</time>
      </trkpt>
      <trkpt lat="48.06162" lon="-4.7127">
        <ele>50.61</ele>
        <time>2017-05-27T09:07:28Z</time>
      </trkpt>
      <trkpt lat="48.06157" lon="-4.71269">
        <ele>52.05</ele>
        <time>2017-05-27T09:07:32Z</time>
      </trkpt>
      <trkpt lat="48.0615" lon="-4.71266">
        <ele>53.49</ele>
        <time>2017-05-27T09:07:38Z</time>
      </trkpt>
      <trkpt lat="48.06143" lon="-4.71263">
        <ele>54.45</ele>
        <time>2017-05-27T09:07:42Z</time>
      </trkpt>
      <trkpt lat="48.06133" lon="-4.71256">
        <ele>56.37</ele>
        <time>2017-05-27T09:07:49Z</time>
      </trkpt>
      <trkpt lat="48.0611" lon="-4.71241">
        <ele>53.97</ele>
        <time>2017-05-27T09:08:06Z</time>
      </trkpt>
      <trkpt lat="48.06107" lon="-4.71239">
        <ele>53.49</ele>
        <time>2017-05-27T09:08:08Z</time>
      </trkpt>
      <trkpt lat="48.06102" lon="-4.71237">
        <ele>51.57</ele>
        <time>2017-05-27T09:08:12Z</time>
      </trkpt>
      <trkpt lat="48.06096" lon="-4.71235">
        <ele>50.61</ele>
        <time>2017-05-27T09:08:16Z</time>
      </trkpt>
      <trkpt lat="48.06088" lon="-4.71229">
        <ele>50.13</ele>
        <time>2017-05-27T09:08:22Z</time>
      </trkpt>
      <trkpt lat="48.06062" lon="-4.71209">
        <ele>46.28</ele>
        <time>2017-05-27T09:08:40Z</time>
      </trkpt>
      <trkpt lat="48.06042" lon="-4.71204">
        <ele>50.13</ele>
        <time>2017-05-27T09:08:54Z</time>
      </trkpt>
      <trkpt lat="48.06019" lon="-4.71194">
        <ele>54.45</ele>
        <time>2017-05-27T09:09:11Z</time>
      </trkpt>
      <trkpt lat="48.05998" lon="-4.7118">
        <ele>55.41</ele>
        <time>2017-05-27T09:09:28Z</time>
      </trkpt>
      <trkpt lat="48.05999" lon="-4.71178">
        <ele>54.45</ele>
        <time>2017-05-27T09:09:44Z</time>
      </trkpt>
      <trkpt lat="48.05998" lon="-4.71179">
        <ele>53.97</ele>
        <time>2017-05-27T09:09:50Z</time>
      </trkpt>
      <trkpt lat="48.05999" lon="-4.71182">
        <ele>53.49</ele>
        <time>2017-05-27T09:10:00Z</time>
      </trkpt>
      <trkpt lat="48.05996" lon="-4.71181">
        <ele>53.01</ele>
        <time>2017-05-27T09:10:04Z</time>
      </trkpt>
      <trkpt lat="48.05995" lon="-4.71191">
        <ele>53.49</ele>
        <time>2017-05-27T09:10:18Z</time>
      </trkpt>
      <trkpt lat="48.05995" lon="-4.71191">
        <ele>53.01</ele>
        <time>2017-05-27T09:10:45Z</time>
      </trkpt>
      <trkpt lat="48.05993" lon="-4.71201">
        <ele>51.57</ele>
        <time>2017-05-27T09:11:00Z</time>
      </trkpt>
      <trkpt lat="48.05993" lon="-4.71202">
        <ele>51.09</ele>
        <time>2017-05-27T09:11:16Z</time>
      </trkpt>
      <trkpt lat="48.05988" lon="-4.712">
        <ele>51.57</ele>
        <time>2017-05-27T09:11:20Z</time>
      </trkpt>
      <trkpt lat="48.05982" lon="-4.71197">
        <ele>53.01</ele>
        <time>2017-05-27T09:11:23Z</time>
      </trkpt>
      <trkpt lat="48.05975" lon="-4.71193">
        <ele>54.93</ele>
        <time>2017-05-27T09:11:27Z</time>
      </trkpt>
      <trkpt lat="48.05954" lon="-4.7118">
        <ele>56.37</ele>
        <time>2017-05-27T09:11:43Z</time>
      </trkpt>
      <trkpt lat="48.0593" lon="-4.71171">
        <ele>55.41</ele>
        <time>2017-05-27T09:12:00Z</time>
      </trkpt>
      <trkpt lat="48.05926" lon="-4.71169">
        <ele>55.41</ele>
        <time>2017-05-27T09:12:03Z</time>
      </trkpt>
      <trkpt lat="48.05911" lon="-4.71196">
        <ele>54.93</ele>
        <time>2017-05-27T09:12:21Z</time>
      </trkpt>
      <trkpt lat="48.05904" lon="-4.71209">
        <ele>53.01</ele>
        <time>2017-05-27T09:12:30Z</time>
      </trkpt>
      <trkpt lat="48.05894" lon="-4.71243">
        <ele>50.61</ele>
        <time>2017-05-27T09:12:46Z</time>
      </trkpt>
      <trkpt lat="48.05879" lon="-4.71272">
        <ele>47.72</ele>
        <time>2017-05-27T09:13:02Z</time>
      </trkpt>
      <trkpt lat="48.05875" lon="-4.71277">
        <ele>46.28</ele>
        <time>2017-05-27T09:13:06Z</time>
      </trkpt>
      <trkpt lat="48.05856" lon="-4.71288">
        <ele>43.4</ele>
        <time>2017-05-27T09:13:19Z</time>
      </trkpt>
      <trkpt lat="48.05845" lon="-4.7129">
        <ele>41.47</ele>
        <time>2017-05-27T09:13:35Z</time>
      </trkpt>
      <trkpt lat="48.05837" lon="-4.71294">
        <ele>42.44</ele>
        <time>2017-05-27T09:13:51Z</time>
      </trkpt>
      <trkpt lat="48.05813" lon="-4.71304">
        <ele>47.72</ele>
        <time>2017-05-27T09:14:05Z</time>
      </trkpt>
      <trkpt lat="48.05796" lon="-4.71323">
        <ele>49.16</ele>
        <time>2017-05-27T09:14:20Z</time>
      </trkpt>
      <trkpt lat="48.0579" lon="-4.71333">
        <ele>48.2</ele>
        <time>2017-05-27T09:14:26Z</time>
      </trkpt>
      <trkpt lat="48.05787" lon="-4.71346">
        <ele>47.24</ele>
        <time>2017-05-27T09:14:33Z</time>
      </trkpt>
      <trkpt lat="48.05772" lon="-4.71333">
        <ele>47.24</ele>
        <time>2017-05-27T09:14:48Z</time>
      </trkpt>
      <trkpt lat="48.05762" lon="-4.71307">
        <ele>44.36</ele>
        <time>2017-05-27T09:15:02Z</time>
      </trkpt>
      <trkpt lat="48.05756" lon="-4.71275">
        <ele>47.72</ele>
        <time>2017-05-27T09:15:20Z</time>
      </trkpt>
      <trkpt lat="48.05736" lon="-4.71255">
        <ele>49.16</ele>
        <time>2017-05-27T09:15:35Z</time>
      </trkpt>
      <trkpt lat="48.05723" lon="-4.71248">
        <ele>48.2</ele>
        <time>2017-05-27T09:15:47Z</time>
      </trkpt>
      <trkpt lat="48.05696" lon="-4.71243">
        <ele>48.68</ele>
        <time>2017-05-27T09:16:02Z</time>
      </trkpt>
      <trkpt lat="48.05678" lon="-4.71234">
        <ele>49.16</ele>
        <time>2017-05-27T09:16:15Z</time>
      </trkpt>
      <trkpt lat="48.05675" lon="-4.71215">
        <ele>47.24</ele>
        <time>2017-05-27T09:16:23Z</time>
      </trkpt>
      <trkpt lat="48.05682" lon="-4.71186">
        <ele>45.8</ele>
        <time>2017-05-27T09:16:36Z</time>
      </trkpt>
      <trkpt lat="48.05683" lon="-4.71182">
        <ele>45.8</ele>
        <time>2017-05-27T09:16:38Z</time>
      </trkpt>
      <trkpt lat="48.05686" lon="-4.71169">
        <ele>46.76</ele>
        <time>2017-05-27T09:16:44Z</time>
      </trkpt>
      <trkpt lat="48.05687" lon="-4.71154">
        <ele>43.88</ele>
        <time>2017-05-27T09:16:57Z</time>
      </trkpt>
      <trkpt lat="48.05684" lon="-4.71154">
        <ele>41.95</ele>
        <time>2017-05-27T09:17:00Z</time>
      </trkpt>
      <trkpt lat="48.05671" lon="-4.71166">
        <ele>35.71</ele>
        <time>2017-05-27T09:17:14Z</time>
      </trkpt>
      <trkpt lat="48.05669" lon="-4.71167">
        <ele>34.74</ele>
        <time>2017-05-27T09:17:16Z</time>
      </trkpt>
      <trkpt lat="48.05659" lon="-4.71152">
        <ele>32.82</ele>
        <time>2017-05-27T09:17:29Z</time>
      </trkpt>
      <trkpt lat="48.05665" lon="-4.71142">
        <ele>31.86</ele>
        <time>2017-05-27T09:17:37Z</time>
      </trkpt>
      <trkpt lat="48.05667" lon="-4.7114">
        <ele>31.86</ele>
        <time>2017-05-27T09:17:39Z</time>
      </trkpt>
      <trkpt lat="48.05673" lon="-4.71123">
        <ele>33.3</ele>
        <time>2017-05-27T09:17:52Z</time>
      </trkpt>
      <trkpt lat="48.0567" lon="-4.71119">
        <ele>34.74</ele>
        <time>2017-05-27T09:17:58Z</time>
      </trkpt>
      <trkpt lat="48.05664" lon="-4.71114">
        <ele>38.11</ele>
        <time>2017-05-27T09:18:06Z</time>
      </trkpt>
      <trkpt lat="48.05645" lon="-4.71117">
        <ele>44.36</ele>
        <time>2017-05-27T09:18:18Z</time>
      </trkpt>
      <trkpt lat="48.05643" lon="-4.71119">
        <ele>44.84</ele>
        <time>2017-05-27T09:18:20Z</time>
      </trkpt>
      <trkpt lat="48.05631" lon="-4.71121">
        <ele>44.84</ele>
        <time>2017-05-27T09:18:33Z</time>
      </trkpt>
      <trkpt lat="48.05624" lon="-4.71119">
        <ele>43.88</ele>
        <time>2017-05-27T09:18:37Z</time>
      </trkpt>
      <trkpt lat="48.05612" lon="-4.71106">
        <ele>42.44</ele>
        <time>2017-05-27T09:18:47Z</time>
      </trkpt>
      <trkpt lat="48.05606" lon="-4.71099">
        <ele>40.03</ele>
        <time>2017-05-27T09:18:54Z</time>
      </trkpt>
      <trkpt lat="48.056" lon="-4.71095">
        <ele>38.59</ele>
        <time>2017-05-27T09:19:02Z</time>
      </trkpt>
      <trkpt lat="48.05593" lon="-4.71089">
        <ele>34.74</ele>
        <time>2017-05-27T09:19:16Z</time>
      </trkpt>
      <trkpt lat="48.0559" lon="-4.71088">
        <ele>32.82</ele>
        <time>2017-05-27T09:19:20Z</time>
      </trkpt>
      <trkpt lat="48.05584" lon="-4.71083">
        <ele>31.38</ele>
        <time>2017-05-27T09:19:25Z</time>
      </trkpt>
      <trkpt lat="48.05571" lon="-4.71065">
        <ele>25.61</ele>
        <time>2017-05-27T09:19:37Z</time>
      </trkpt>
      <trkpt lat="48.05565" lon="-4.71063">
        <ele>23.69</ele>
        <time>2017-05-27T09:19:41Z</time>
      </trkpt>
      <trkpt lat="48.05551" lon="-4.71035">
        <ele>24.65</ele>
        <time>2017-05-27T09:19:59Z</time>
      </trkpt>
      <trkpt lat="48.05547" lon="-4.71024">
        <ele>24.65</ele>
        <time>2017-05-27T09:20:08Z</time>
      </trkpt>
      <trkpt lat="48.05541" lon="-4.71026">
        <ele>24.17</ele>
        <time>2017-05-27T09:20:13Z</time>
      </trkpt>
      <trkpt lat="48.05535" lon="-4.71035">
        <ele>23.69</ele>
        <time>2017-05-27T09:20:20Z</time>
      </trkpt>
      <trkpt lat="48.05526" lon="-4.71041">
        <ele>23.69</ele>
        <time>2017-05-27T09:20:29Z</time>
      </trkpt>
      <trkpt lat="48.05521" lon="-4.71038">
        <ele>23.21</ele>
        <time>2017-05-27T09:20:34Z</time>
      </trkpt>
      <trkpt lat="48.0552" lon="-4.71036">
        <ele>23.21</ele>
        <time>2017-05-27T09:20:36Z</time>
      </trkpt>
      <trkpt lat="48.05511" lon="-4.71026">
        <ele>27.05</ele>
        <time>2017-05-27T09:20:51Z</time>
      </trkpt>
      <trkpt lat="48.05509" lon="-4.71037">
        <ele>27.53</ele>
        <time>2017-05-27T09:20:57Z</time>
      </trkpt>
      <trkpt lat="48.05501" lon="-4.71063">
        <ele>32.82</ele>
        <time>2017-05-27T09:21:14Z</time>
      </trkpt>
      <trkpt lat="48.05498" lon="-4.71066">
        <ele>34.74</ele>
        <time>2017-05-27T09:21:21Z</time>
      </trkpt>
      <trkpt lat="48.05489" lon="-4.71076">
        <ele>39.07</ele>
        <time>2017-05-27T09:21:36Z</time>
      </trkpt>
      <trkpt lat="48.05489" lon="-4.71079">
        <ele>40.03</ele>
        <time>2017-05-27T09:21:40Z</time>
      </trkpt>
      <trkpt lat="48.05487" lon="-4.7109">
        <ele>40.99</ele>
        <time>2017-05-27T09:21:45Z</time>
      </trkpt>
      <trkpt lat="48.05479" lon="-4.71106">
        <ele>38.59</ele>
        <time>2017-05-27T09:21:56Z</time>
      </trkpt>
      <trkpt lat="48.05467" lon="-4.71119">
        <ele>37.63</ele>
        <time>2017-05-27T09:22:06Z</time>
      </trkpt>
      <trkpt lat="48.05454" lon="-4.71134">
        <ele>37.63</ele>
        <time>2017-05-27T09:22:15Z</time>
      </trkpt>
      <trkpt lat="48.05449" lon="-4.7114">
        <ele>37.15</ele>
        <time>2017-05-27T09:22:19Z</time>
      </trkpt>
      <trkpt lat="48.05445" lon="-4.71157">
        <ele>36.67</ele>
        <time>2017-05-27T09:22:26Z</time>
      </trkpt>
      <trkpt lat="48.05424" lon="-4.7119">
        <ele>36.67</ele>
        <time>2017-05-27T09:22:42Z</time>
      </trkpt>
      <trkpt lat="48.0542" lon="-4.71204">
        <ele>35.71</ele>
        <time>2017-05-27T09:22:50Z</time>
      </trkpt>
      <trkpt lat="48.0541" lon="-4.71218">
        <ele>36.19</ele>
        <time>2017-05-27T09:23:03Z</time>
      </trkpt>
      <trkpt lat="48.05403" lon="-4.71226">
        <ele>37.63</ele>
        <time>2017-05-27T09:23:10Z</time>
      </trkpt>
      <trkpt lat="48.05399" lon="-4.71232">
        <ele>40.03</ele>
        <time>2017-05-27T09:23:19Z</time>
      </trkpt>
      <trkpt lat="48.05389" lon="-4.71229">
        <ele>40.03</ele>
        <time>2017-05-27T09:23:29Z</time>
      </trkpt>
      <trkpt lat="48.05382" lon="-4.71224">
        <ele>38.59</ele>
        <time>2017-05-27T09:23:43Z</time>
      </trkpt>
      <trkpt lat="48.05382" lon="-4.71225">
        <ele>39.55</ele>
        <time>2017-05-27T09:23:46Z</time>
      </trkpt>
      <trkpt lat="48.05381" lon="-4.71233">
        <ele>40.03</ele>
        <time>2017-05-27T09:23:51Z</time>
      </trkpt>
      <trkpt lat="48.05381" lon="-4.7124">
        <ele>40.03</ele>
        <time>2017-05-27T09:23:55Z</time>
      </trkpt>
      <trkpt lat="48.05367" lon="-4.71239">
        <ele>39.55</ele>
        <time>2017-05-27T09:24:07Z</time>
      </trkpt>
      <trkpt lat="48.05363" lon="-4.71238">
        <ele>37.63</ele>
        <time>2017-05-27T09:24:13Z</time>
      </trkpt>
      <trkpt lat="48.05358" lon="-4.71245">
        <ele>34.74</ele>
        <time>2017-05-27T09:24:19Z</time>
      </trkpt>
      <trkpt lat="48.05347" lon="-4.71239">
        <ele>28.02</ele>
        <time>2017-05-27T09:24:30Z</time>
      </trkpt>
      <trkpt lat="48.05346" lon="-4.71237">
        <ele>27.53</ele>
        <time>2017-05-27T09:24:31Z</time>
      </trkpt>
      <trkpt lat="48.05344" lon="-4.71232">
        <ele>25.13</ele>
        <time>2017-05-27T09:24:35Z</time>
      </trkpt>
      <trkpt lat="48.05342" lon="-4.71209">
        <ele>21.29</ele>
        <time>2017-05-27T09:24:49Z</time>
      </trkpt>
      <trkpt lat="48.05341" lon="-4.71207">
        <ele>20.32</ele>
        <time>2017-05-27T09:24:51Z</time>
      </trkpt>
      <trkpt lat="48.05338" lon="-4.71199">
        <ele>20.32</ele>
        <time>2017-05-27T09:24:57Z</time>
      </trkpt>
      <trkpt lat="48.0534" lon="-4.71168">
        <ele>22.25</ele>
        <time>2017-05-27T09:25:12Z</time>
      </trkpt>
      <trkpt lat="48.05343" lon="-4.71148">
        <ele>23.21</ele>
        <time>2017-05-27T09:25:18Z</time>
      </trkpt>
      <trkpt lat="48.05342" lon="-4.71113">
        <ele>24.17</ele>
        <time>2017-05-27T09:25:32Z</time>
      </trkpt>
      <trkpt lat="48.0534" lon="-4.711">
        <ele>25.61</ele>
        <time>2017-05-27T09:25:40Z</time>
      </trkpt>
      <trkpt lat="48.05338" lon="-4.7108">
        <ele>26.57</ele>
        <time>2017-05-27T09:25:47Z</time>
      </trkpt>
      <trkpt lat="48.05338" lon="-4.71051">
        <ele>29.46</ele>
        <time>2017-05-27T09:26:00Z</time>
      </trkpt>
      <trkpt lat="48.05335" lon="-4.71018">
        <ele>36.67</ele>
        <time>2017-05-27T09:26:17Z</time>
      </trkpt>
      <trkpt lat="48.05335" lon="-4.7101">
        <ele>37.63</ele>
        <time>2017-05-27T09:26:21Z</time>
      </trkpt>
      <trkpt lat="48.05326" lon="-4.70979">
        <ele>39.55</ele>
        <time>2017-05-27T09:26:37Z</time>
      </trkpt>
      <trkpt lat="48.05312" lon="-4.70942">
        <ele>38.59</ele>
        <time>2017-05-27T09:26:51Z</time>
      </trkpt>
      <trkpt lat="48.05301" lon="-4.70914">
        <ele>37.15</ele>
        <time>2017-05-27T09:27:07Z</time>
      </trkpt>
      <trkpt lat="48.05291" lon="-4.70893">
        <ele>40.03</ele>
        <time>2017-05-27T09:27:23Z</time>
      </trkpt>
      <trkpt lat="48.05286" lon="-4.70883">
        <ele>40.99</ele>
        <time>2017-05-27T09:27:30Z</time>
      </trkpt>
      <trkpt lat="48.05271" lon="-4.70876">
        <ele>43.4</ele>
        <time>2017-05-27T09:27:41Z</time>
      </trkpt>
      <trkpt lat="48.05261" lon="-4.70873">
        <ele>44.36</ele>
        <time>2017-05-27T09:27:47Z</time>
      </trkpt>
      <trkpt lat="48.05235" lon="-4.70854">
        <ele>46.76</ele>
        <time>2017-05-27T09:28:02Z</time>
      </trkpt>
      <trkpt lat="48.05223" lon="-4.70855">
        <ele>48.2</ele>
        <time>2017-05-27T09:28:12Z</time>
      </trkpt>
      <trkpt lat="48.05212" lon="-4.7087">
        <ele>55.89</ele>
        <time>2017-05-27T09:28:26Z</time>
      </trkpt>
      <trkpt lat="48.05206" lon="-4.70895">
        <ele>62.62</ele>
        <time>2017-05-27T09:28:41Z</time>
      </trkpt>
      <trkpt lat="48.05204" lon="-4.70899">
        <ele>63.1</ele>
        <time>2017-05-27T09:28:44Z</time>
      </trkpt>
      <trkpt lat="48.05187" lon="-4.70923">
        <ele>65.03</ele>
        <time>2017-05-27T09:28:58Z</time>
      </trkpt>
      <trkpt lat="48.05172" lon="-4.70939">
        <ele>65.99</ele>
        <time>2017-05-27T09:29:10Z</time>
      </trkpt>
      <trkpt lat="48.05153" lon="-4.70957">
        <ele>63.1</ele>
        <time>2017-05-27T09:29:20Z</time>
      </trkpt>
      <trkpt lat="48.05147" lon="-4.70961">
        <ele>61.66</ele>
        <time>2017-05-27T09:29:25Z</time>
      </trkpt>
      <trkpt lat="48.05145" lon="-4.70942">
        <ele>56.86</ele>
        <time>2017-05-27T09:29:37Z</time>
      </trkpt>
      <trkpt lat="48.05139" lon="-4.70926">
        <ele>54.45</ele>
        <time>2017-05-27T09:29:45Z</time>
      </trkpt>
      <trkpt lat="48.05132" lon="-4.7091">
        <ele>53.97</ele>
        <time>2017-05-27T09:29:54Z</time>
      </trkpt>
      <trkpt lat="48.05127" lon="-4.70903">
        <ele>53.97</ele>
        <time>2017-05-27T09:30:00Z</time>
      </trkpt>
      <trkpt lat="48.05117" lon="-4.70893">
        <ele>53.49</ele>
        <time>2017-05-27T09:30:10Z</time>
      </trkpt>
      <trkpt lat="48.05108" lon="-4.70874">
        <ele>53.49</ele>
        <time>2017-05-27T09:30:21Z</time>
      </trkpt>
      <trkpt lat="48.051" lon="-4.7086">
        <ele>54.93</ele>
        <time>2017-05-27T09:30:28Z</time>
      </trkpt>
      <trkpt lat="48.05096" lon="-4.70851">
        <ele>57.34</ele>
        <time>2017-05-27T09:30:33Z</time>
      </trkpt>
      <trkpt lat="48.05095" lon="-4.70848">
        <ele>58.78</ele>
        <time>2017-05-27T09:30:48Z</time>
      </trkpt>
      <trkpt lat="48.05094" lon="-4.70848">
        <ele>56.37</ele>
        <time>2017-05-27T09:31:10Z</time>
      </trkpt>
      <trkpt lat="48.05095" lon="-4.70847">
        <ele>54.45</ele>
        <time>2017-05-27T09:31:32Z</time>
      </trkpt>
      <trkpt lat="48.05095" lon="-4.70848">
        <ele>54.45</ele>
        <time>2017-05-27T09:31:35Z</time>
      </trkpt>
      <trkpt lat="48.05093" lon="-4.70842">
        <ele>53.01</ele>
        <time>2017-05-27T09:31:41Z</time>
      </trkpt>
      <trkpt lat="48.05091" lon="-4.7083">
        <ele>51.09</ele>
        <time>2017-05-27T09:31:48Z</time>
      </trkpt>
      <trkpt lat="48.05081" lon="-4.70806">
        <ele>52.05</ele>
        <time>2017-05-27T09:32:03Z</time>
      </trkpt>
      <trkpt lat="48.0507" lon="-4.70779">
        <ele>53.49</ele>
        <time>2017-05-27T09:32:14Z</time>
      </trkpt>
      <trkpt lat="48.05062" lon="-4.70764">
        <ele>53.01</ele>
        <time>2017-05-27T09:32:22Z</time>
      </trkpt>
      <trkpt lat="48.05059" lon="-4.70754">
        <ele>52.05</ele>
        <time>2017-05-27T09:32:27Z</time>
      </trkpt>
      <trkpt lat="48.05057" lon="-4.70742">
        <ele>51.57</ele>
        <time>2017-05-27T09:32:33Z</time>
      </trkpt>
      <trkpt lat="48.0505" lon="-4.70719">
        <ele>49.65</ele>
        <time>2017-05-27T09:32:48Z</time>
      </trkpt>
      <trkpt lat="48.05046" lon="-4.70712">
        <ele>48.68</ele>
        <time>2017-05-27T09:33:00Z</time>
      </trkpt>
      <trkpt lat="48.05042" lon="-4.70702">
        <ele>46.76</ele>
        <time>2017-05-27T09:33:11Z</time>
      </trkpt>
      <trkpt lat="48.05033" lon="-4.70689">
        <ele>42.44</ele>
        <time>2017-05-27T09:33:25Z</time>
      </trkpt>
      <trkpt lat="48.05028" lon="-4.70685">
        <ele>40.51</ele>
        <time>2017-05-27T09:33:35Z</time>
      </trkpt>
      <trkpt lat="48.05023" lon="-4.70681">
        <ele>39.07</ele>
        <time>2017-05-27T09:33:39Z</time>
      </trkpt>
      <trkpt lat="48.05022" lon="-4.70677">
        <ele>38.59</ele>
        <time>2017-05-27T09:33:41Z</time>
      </trkpt>
      <trkpt lat="48.05016" lon="-4.70664">
        <ele>37.15</ele>
        <time>2017-05-27T09:33:47Z</time>
      </trkpt>
      <trkpt lat="48.05008" lon="-4.70645">
        <ele>33.78</ele>
        <time>2017-05-27T09:33:56Z</time>
      </trkpt>
      <trkpt lat="48.05" lon="-4.70621">
        <ele>31.86</ele>
        <time>2017-05-27T09:34:14Z</time>
      </trkpt>
      <trkpt lat="48.04995" lon="-4.70613">
        <ele>32.34</ele>
        <time>2017-05-27T09:34:20Z</time>
      </trkpt>
      <trkpt lat="48.04991" lon="-4.70608">
        <ele>31.86</ele>
        <time>2017-05-27T09:34:23Z</time>
      </trkpt>
      <trkpt lat="48.04983" lon="-4.70603">
        <ele>31.86</ele>
        <time>2017-05-27T09:34:28Z</time>
      </trkpt>
      <trkpt lat="48.04969" lon="-4.70576">
        <ele>26.09</ele>
        <time>2017-05-27T09:34:44Z</time>
      </trkpt>
      <trkpt lat="48.04967" lon="-4.70554">
        <ele>24.65</ele>
        <time>2017-05-27T09:34:57Z</time>
      </trkpt>
      <trkpt lat="48.04959" lon="-4.70552">
        <ele>20.81</ele>
        <time>2017-05-27T09:35:05Z</time>
      </trkpt>
      <trkpt lat="48.04966" lon="-4.7053">
        <ele>13.6</ele>
        <time>2017-05-27T09:35:17Z</time>
      </trkpt>
      <trkpt lat="48.04967" lon="-4.70528">
        <ele>13.6</ele>
        <time>2017-05-27T09:35:18Z</time>
      </trkpt>
      <trkpt lat="48.04971" lon="-4.70515">
        <ele>11.67</ele>
        <time>2017-05-27T09:35:24Z</time>
      </trkpt>
      <trkpt lat="48.04971" lon="-4.70512">
        <ele>11.19</ele>
        <time>2017-05-27T09:35:26Z</time>
      </trkpt>
      <trkpt lat="48.04963" lon="-4.70486">
        <ele>12.15</ele>
        <time>2017-05-27T09:35:40Z</time>
      </trkpt>
      <trkpt lat="48.04957" lon="-4.70481">
        <ele>12.63</ele>
        <time>2017-05-27T09:35:45Z</time>
      </trkpt>
      <trkpt lat="48.04953" lon="-4.70481">
        <ele>13.12</ele>
        <time>2017-05-27T09:35:47Z</time>
      </trkpt>
      <trkpt lat="48.04946" lon="-4.70483">
        <ele>14.08</ele>
        <time>2017-05-27T09:35:52Z</time>
      </trkpt>
      <trkpt lat="48.04925" lon="-4.70489">
        <ele>16</ele>
        <time>2017-05-27T09:36:07Z</time>
      </trkpt>
      <trkpt lat="48.04901" lon="-4.70498">
        <ele>19.36</ele>
        <time>2017-05-27T09:36:23Z</time>
      </trkpt>
      <trkpt lat="48.04899" lon="-4.70499">
        <ele>19.36</ele>
        <time>2017-05-27T09:36:24Z</time>
      </trkpt>
      <trkpt lat="48.04873" lon="-4.70507">
        <ele>13.6</ele>
        <time>2017-05-27T09:36:39Z</time>
      </trkpt>
      <trkpt lat="48.04867" lon="-4.70512">
        <ele>12.15</ele>
        <time>2017-05-27T09:36:43Z</time>
      </trkpt>
      <trkpt lat="48.04854" lon="-4.70514">
        <ele>10.23</ele>
        <time>2017-05-27T09:36:52Z</time>
      </trkpt>
      <trkpt lat="48.04846" lon="-4.70515">
        <ele>10.23</ele>
        <time>2017-05-27T09:36:58Z</time>
      </trkpt>
      <trkpt lat="48.04839" lon="-4.70515">
        <ele>9.27</ele>
        <time>2017-05-27T09:37:04Z</time>
      </trkpt>
      <trkpt lat="48.04837" lon="-4.70516">
        <ele>8.79</ele>
        <time>2017-05-27T09:37:06Z</time>
      </trkpt>
      <trkpt lat="48.04834" lon="-4.70516">
        <ele>9.27</ele>
        <time>2017-05-27T09:37:08Z</time>
      </trkpt>
      <trkpt lat="48.04827" lon="-4.70518">
        <ele>8.79</ele>
        <time>2017-05-27T09:37:23Z</time>
      </trkpt>
      <trkpt lat="48.04827" lon="-4.70518">
        <ele>8.31</ele>
        <time>2017-05-27T09:37:48Z</time>
      </trkpt>
      <trkpt lat="48.04827" lon="-4.70518">
        <ele>9.75</ele>
        <time>2017-05-27T09:38:10Z</time>
      </trkpt>
      <trkpt lat="48.04826" lon="-4.70518">
        <ele>9.27</ele>
        <time>2017-05-27T09:38:33Z</time>
      </trkpt>
      <trkpt lat="48.04826" lon="-4.70519">
        <ele>9.27</ele>
        <time>2017-05-27T09:38:55Z</time>
      </trkpt>
      <trkpt lat="48.04826" lon="-4.70519">
        <ele>8.79</ele>
        <time>2017-05-27T09:39:25Z</time>
      </trkpt>
      <trkpt lat="48.04825" lon="-4.70519">
        <ele>8.79</ele>
        <time>2017-05-27T09:39:59Z</time>
      </trkpt>
      <trkpt lat="48.04825" lon="-4.70519">
        <ele>8.79</ele>
        <time>2017-05-27T09:40:19Z</time>
      </trkpt>
      <trkpt lat="48.04825" lon="-4.7052">
        <ele>8.79</ele>
        <time>2017-05-27T09:40:45Z</time>
      </trkpt>
      <trkpt lat="48.04825" lon="-4.70519">
        <ele>8.79</ele>
        <time>2017-05-27T09:40:58Z</time>
      </trkpt>
      <trkpt lat="48.04825" lon="-4.70519">
        <ele>8.31</ele>
        <time>2017-05-27T09:41:29Z</time>
      </trkpt>
      <trkpt lat="48.04825" lon="-4.70519">
        <ele>7.35</ele>
        <time>2017-05-27T09:41:59Z</time>
      </trkpt>
      <trkpt lat="48.04825" lon="-4.70519">
        <ele>7.35</ele>
        <time>2017-05-27T09:42:24Z</time>
      </trkpt>
      <trkpt lat="48.04825" lon="-4.70518">
        <ele>7.35</ele>
        <time>2017-05-27T09:42:50Z</time>
      </trkpt>
      <trkpt lat="48.04825" lon="-4.70519">
        <ele>7.35</ele>
        <time>2017-05-27T09:43:11Z</time>
      </trkpt>
      <trkpt lat="48.04825" lon="-4.70518">
        <ele>7.35</ele>
        <time>2017-05-27T09:43:38Z</time>
      </trkpt>
      <trkpt lat="48.04825" lon="-4.70518">
        <ele>7.35</ele>
        <time>2017-05-27T09:44:01Z</time>
      </trkpt>
      <trkpt lat="48.04826" lon="-4.70517">
        <ele>7.83</ele>
        <time>2017-05-27T09:44:30Z</time>
      </trkpt>
      <trkpt lat="48.04826" lon="-4.70517">
        <ele>7.83</ele>
        <time>2017-05-27T09:45:04Z</time>
      </trkpt>
      <trkpt lat="48.04826" lon="-4.70518">
        <ele>7.83</ele>
        <time>2017-05-27T09:45:30Z</time>
      </trkpt>
      <trkpt lat="48.04825" lon="-4.70517">
        <ele>7.83</ele>
        <time>2017-05-27T09:45:48Z</time>
      </trkpt>
      <trkpt lat="48.04809" lon="-4.70522">
        <ele>5.91</ele>
        <time>2017-05-27T09:46:02Z</time>
      </trkpt>
      <trkpt lat="48.04801" lon="-4.70523">
        <ele>4.46</ele>
        <time>2017-05-27T09:46:13Z</time>
      </trkpt>
      <trkpt lat="48.04797" lon="-4.70528">
        <ele>3.98</ele>
        <time>2017-05-27T09:46:18Z</time>
      </trkpt>
      <trkpt lat="48.04789" lon="-4.70529">
        <ele>4.46</ele>
        <time>2017-05-27T09:46:26Z</time>
      </trkpt>
      <trkpt lat="48.04783" lon="-4.70531">
        <ele>3.98</ele>
        <time>2017-05-27T09:46:31Z</time>
      </trkpt>
      <trkpt lat="48.04777" lon="-4.70536">
        <ele>3.98</ele>
        <time>2017-05-27T09:46:35Z</time>
      </trkpt>
      <trkpt lat="48.04775" lon="-4.70538">
        <ele>3.5</ele>
        <time>2017-05-27T09:46:37Z</time>
      </trkpt>
      <trkpt lat="48.04761" lon="-4.70549">
        <ele>3.02</ele>
        <time>2017-05-27T09:46:51Z</time>
      </trkpt>
      <trkpt lat="48.0474" lon="-4.70556">
        <ele>2.54</ele>
        <time>2017-05-27T09:47:07Z</time>
      </trkpt>
      <trkpt lat="48.04728" lon="-4.7056">
        <ele>2.54</ele>
        <time>2017-05-27T09:47:17Z</time>
      </trkpt>
      <trkpt lat="48.04716" lon="-4.70563">
        <ele>2.54</ele>
        <time>2017-05-27T09:47:26Z</time>
      </trkpt>
      <trkpt lat="48.04706" lon="-4.70566">
        <ele>1.1</ele>
        <time>2017-05-27T09:47:35Z</time>
      </trkpt>
      <trkpt lat="48.04696" lon="-4.70566">
        <ele>2.06</ele>
        <time>2017-05-27T09:47:49Z</time>
      </trkpt>
      <trkpt lat="48.04691" lon="-4.70567">
        <ele>2.06</ele>
        <time>2017-05-27T09:47:54Z</time>
      </trkpt>
      <trkpt lat="48.04688" lon="-4.70568">
        <ele>2.06</ele>
        <time>2017-05-27T09:47:57Z</time>
      </trkpt>
      <trkpt lat="48.04682" lon="-4.70569">
        <ele>2.06</ele>
        <time>2017-05-27T09:48:03Z</time>
      </trkpt>
      <trkpt lat="48.04664" lon="-4.70575">
        <ele>3.5</ele>
        <time>2017-05-27T09:48:18Z</time>
      </trkpt>
      <trkpt lat="48.04663" lon="-4.70575">
        <ele>3.5</ele>
        <time>2017-05-27T09:48:19Z</time>
      </trkpt>
      <trkpt lat="48.04657" lon="-4.70578">
        <ele>3.5</ele>
        <time>2017-05-27T09:48:24Z</time>
      </trkpt>
      <trkpt lat="48.04648" lon="-4.70576">
        <ele>3.98</ele>
        <time>2017-05-27T09:48:32Z</time>
      </trkpt>
      <trkpt lat="48.04644" lon="-4.70579">
        <ele>4.94</ele>
        <time>2017-05-27T09:48:37Z</time>
      </trkpt>
      <trkpt lat="48.04636" lon="-4.70586">
        <ele>6.87</ele>
        <time>2017-05-27T09:48:49Z</time>
      </trkpt>
      <trkpt lat="48.04627" lon="-4.70584">
        <ele>7.83</ele>
        <time>2017-05-27T09:48:56Z</time>
      </trkpt>
      <trkpt lat="48.04615" lon="-4.70584">
        <ele>6.87</ele>
        <time>2017-05-27T09:49:09Z</time>
      </trkpt>
      <trkpt lat="48.0461" lon="-4.70586">
        <ele>6.87</ele>
        <time>2017-05-27T09:49:13Z</time>
      </trkpt>
      <trkpt lat="48.04605" lon="-4.70587">
        <ele>6.87</ele>
        <time>2017-05-27T09:49:17Z</time>
      </trkpt>
      <trkpt lat="48.04596" lon="-4.7059">
        <ele>5.91</ele>
        <time>2017-05-27T09:49:25Z</time>
      </trkpt>
      <trkpt lat="48.04581" lon="-4.70594">
        <ele>5.42</ele>
        <time>2017-05-27T09:49:38Z</time>
      </trkpt>
      <trkpt lat="48.04579" lon="-4.70595">
        <ele>5.42</ele>
        <time>2017-05-27T09:49:40Z</time>
      </trkpt>
      <trkpt lat="48.04567" lon="-4.70602">
        <ele>6.87</ele>
        <time>2017-05-27T09:49:54Z</time>
      </trkpt>
      <trkpt lat="48.04567" lon="-4.70602">
        <ele>6.87</ele>
        <time>2017-05-27T09:49:55Z</time>
      </trkpt>
      <trkpt lat="48.04558" lon="-4.70603">
        <ele>7.83</ele>
        <time>2017-05-27T09:50:03Z</time>
      </trkpt>
      <trkpt lat="48.04557" lon="-4.70605">
        <ele>8.31</ele>
        <time>2017-05-27T09:50:05Z</time>
      </trkpt>
      <trkpt lat="48.04551" lon="-4.70605">
        <ele>9.75</ele>
        <time>2017-05-27T09:50:12Z</time>
      </trkpt>
      <trkpt lat="48.04539" lon="-4.70612">
        <ele>10.71</ele>
        <time>2017-05-27T09:50:27Z</time>
      </trkpt>
      <trkpt lat="48.04537" lon="-4.70611">
        <ele>10.71</ele>
        <time>2017-05-27T09:50:29Z</time>
      </trkpt>
      <trkpt lat="48.04528" lon="-4.70615">
        <ele>8.79</ele>
        <time>2017-05-27T09:50:40Z</time>
      </trkpt>
      <trkpt lat="48.0452" lon="-4.70622">
        <ele>7.35</ele>
        <time>2017-05-27T09:50:50Z</time>
      </trkpt>
      <trkpt lat="48.04513" lon="-4.7062">
        <ele>6.87</ele>
        <time>2017-05-27T09:50:58Z</time>
      </trkpt>
      <trkpt lat="48.04509" lon="-4.70612">
        <ele>6.87</ele>
        <time>2017-05-27T09:51:04Z</time>
      </trkpt>
      <trkpt lat="48.04507" lon="-4.70606">
        <ele>6.87</ele>
        <time>2017-05-27T09:51:08Z</time>
      </trkpt>
      <trkpt lat="48.04501" lon="-4.70608">
        <ele>6.39</ele>
        <time>2017-05-27T09:51:13Z</time>
      </trkpt>
      <trkpt lat="48.04494" lon="-4.70628">
        <ele>6.39</ele>
        <time>2017-05-27T09:51:28Z</time>
      </trkpt>
      <trkpt lat="48.0449" lon="-4.70632">
        <ele>6.87</ele>
        <time>2017-05-27T09:51:31Z</time>
      </trkpt>
      <trkpt lat="48.04487" lon="-4.70634">
        <ele>6.87</ele>
        <time>2017-05-27T09:51:34Z</time>
      </trkpt>
      <trkpt lat="48.04485" lon="-4.70636">
        <ele>6.87</ele>
        <time>2017-05-27T09:51:36Z</time>
      </trkpt>
      <trkpt lat="48.0448" lon="-4.70645">
        <ele>8.31</ele>
        <time>2017-05-27T09:51:45Z</time>
      </trkpt>
      <trkpt lat="48.04469" lon="-4.70655">
        <ele>10.71</ele>
        <time>2017-05-27T09:51:58Z</time>
      </trkpt>
      <trkpt lat="48.04465" lon="-4.70669">
        <ele>13.12</ele>
        <time>2017-05-27T09:52:13Z</time>
      </trkpt>
      <trkpt lat="48.04458" lon="-4.70671">
        <ele>15.04</ele>
        <time>2017-05-27T09:52:27Z</time>
      </trkpt>
      <trkpt lat="48.04457" lon="-4.70674">
        <ele>16.48</ele>
        <time>2017-05-27T09:52:29Z</time>
      </trkpt>
      <trkpt lat="48.04451" lon="-4.70682">
        <ele>19.36</ele>
        <time>2017-05-27T09:52:39Z</time>
      </trkpt>
      <trkpt lat="48.04447" lon="-4.70684">
        <ele>20.81</ele>
        <time>2017-05-27T09:52:44Z</time>
      </trkpt>
      <trkpt lat="48.04437" lon="-4.7069">
        <ele>23.69</ele>
        <time>2017-05-27T09:52:59Z</time>
      </trkpt>
      <trkpt lat="48.04434" lon="-4.70688">
        <ele>25.61</ele>
        <time>2017-05-27T09:53:08Z</time>
      </trkpt>
      <trkpt lat="48.04425" lon="-4.70696">
        <ele>29.94</ele>
        <time>2017-05-27T09:53:21Z</time>
      </trkpt>
      <trkpt lat="48.04424" lon="-4.70696">
        <ele>30.42</ele>
        <time>2017-05-27T09:53:23Z</time>
      </trkpt>
      <trkpt lat="48.04416" lon="-4.70708">
        <ele>34.26</ele>
        <time>2017-05-27T09:53:35Z</time>
      </trkpt>
      <trkpt lat="48.04408" lon="-4.70718">
        <ele>36.67</ele>
        <time>2017-05-27T09:53:44Z</time>
      </trkpt>
      <trkpt lat="48.04394" lon="-4.70719">
        <ele>42.92</ele>
        <time>2017-05-27T09:53:59Z</time>
      </trkpt>
      <trkpt lat="48.0439" lon="-4.70721">
        <ele>44.36</ele>
        <time>2017-05-27T09:54:03Z</time>
      </trkpt>
      <trkpt lat="48.04383" lon="-4.70728">
        <ele>45.8</ele>
        <time>2017-05-27T09:54:12Z</time>
      </trkpt>
      <trkpt lat="48.04378" lon="-4.70734">
        <ele>46.76</ele>
        <time>2017-05-27T09:54:28Z</time>
      </trkpt>
      <trkpt lat="48.04374" lon="-4.70739">
        <ele>45.8</ele>
        <time>2017-05-27T09:54:40Z</time>
      </trkpt>
      <trkpt lat="48.04366" lon="-4.70749">
        <ele>46.28</ele>
        <time>2017-05-27T09:54:53Z</time>
      </trkpt>
      <trkpt lat="48.04358" lon="-4.70756">
        <ele>45.8</ele>
        <time>2017-05-27T09:55:03Z</time>
      </trkpt>
      <trkpt lat="48.04355" lon="-4.70777">
        <ele>45.8</ele>
        <time>2017-05-27T09:55:16Z</time>
      </trkpt>
      <trkpt lat="48.04352" lon="-4.70782">
        <ele>45.32</ele>
        <time>2017-05-27T09:55:23Z</time>
      </trkpt>
      <trkpt lat="48.04346" lon="-4.70797">
        <ele>45.32</ele>
        <time>2017-05-27T09:55:33Z</time>
      </trkpt>
      <trkpt lat="48.04341" lon="-4.7081">
        <ele>44.36</ele>
        <time>2017-05-27T09:55:41Z</time>
      </trkpt>
      <trkpt lat="48.04338" lon="-4.70822">
        <ele>43.88</ele>
        <time>2017-05-27T09:55:48Z</time>
      </trkpt>
      <trkpt lat="48.04334" lon="-4.7084">
        <ele>43.88</ele>
        <time>2017-05-27T09:55:58Z</time>
      </trkpt>
      <trkpt lat="48.04333" lon="-4.70844">
        <ele>44.36</ele>
        <time>2017-05-27T09:56:01Z</time>
      </trkpt>
      <trkpt lat="48.0433" lon="-4.70856">
        <ele>44.84</ele>
        <time>2017-05-27T09:56:07Z</time>
      </trkpt>
      <trkpt lat="48.04328" lon="-4.70861">
        <ele>44.84</ele>
        <time>2017-05-27T09:56:09Z</time>
      </trkpt>
      <trkpt lat="48.04319" lon="-4.70885">
        <ele>47.24</ele>
        <time>2017-05-27T09:56:25Z</time>
      </trkpt>
      <trkpt lat="48.04313" lon="-4.70908">
        <ele>48.2</ele>
        <time>2017-05-27T09:56:38Z</time>
      </trkpt>
      <trkpt lat="48.04306" lon="-4.70928">
        <ele>48.68</ele>
        <time>2017-05-27T09:56:51Z</time>
      </trkpt>
      <trkpt lat="48.04303" lon="-4.70934">
        <ele>48.68</ele>
        <time>2017-05-27T09:56:55Z</time>
      </trkpt>
      <trkpt lat="48.04302" lon="-4.70938">
        <ele>48.68</ele>
        <time>2017-05-27T09:56:58Z</time>
      </trkpt>
      <trkpt lat="48.043" lon="-4.70944">
        <ele>49.16</ele>
        <time>2017-05-27T09:57:16Z</time>
      </trkpt>
      <trkpt lat="48.043" lon="-4.70944">
        <ele>48.2</ele>
        <time>2017-05-27T09:57:49Z</time>
      </trkpt>
      <trkpt lat="48.043" lon="-4.70944">
        <ele>49.16</ele>
        <time>2017-05-27T09:58:12Z</time>
      </trkpt>
      <trkpt lat="48.043" lon="-4.70944">
        <ele>49.65</ele>
        <time>2017-05-27T09:58:36Z</time>
      </trkpt>
      <trkpt lat="48.04298" lon="-4.70944">
        <ele>50.13</ele>
        <time>2017-05-27T09:58:57Z</time>
      </trkpt>
      <trkpt lat="48.04291" lon="-4.70943">
        <ele>49.65</ele>
        <time>2017-05-27T09:59:03Z</time>
      </trkpt>
      <trkpt lat="48.04283" lon="-4.70946">
        <ele>50.61</ele>
        <time>2017-05-27T09:59:11Z</time>
      </trkpt>
      <trkpt lat="48.04275" lon="-4.70956">
        <ele>51.09</ele>
        <time>2017-05-27T09:59:20Z</time>
      </trkpt>
      <trkpt lat="48.04273" lon="-4.70965">
        <ele>51.09</ele>
        <time>2017-05-27T09:59:25Z</time>
      </trkpt>
      <trkpt lat="48.04273" lon="-4.70971">
        <ele>51.57</ele>
        <time>2017-05-27T09:59:28Z</time>
      </trkpt>
      <trkpt lat="48.04272" lon="-4.70984">
        <ele>50.61</ele>
        <time>2017-05-27T09:59:36Z</time>
      </trkpt>
      <trkpt lat="48.04275" lon="-4.70988">
        <ele>48.68</ele>
        <time>2017-05-27T09:59:40Z</time>
      </trkpt>
      <trkpt lat="48.04274" lon="-4.7099">
        <ele>48.2</ele>
        <time>2017-05-27T09:59:42Z</time>
      </trkpt>
      <trkpt lat="48.04274" lon="-4.71">
        <ele>46.28</ele>
        <time>2017-05-27T09:59:49Z</time>
      </trkpt>
      <trkpt lat="48.04274" lon="-4.71011">
        <ele>44.36</ele>
        <time>2017-05-27T10:00:04Z</time>
      </trkpt>
      <trkpt lat="48.04273" lon="-4.71023">
        <ele>41.95</ele>
        <time>2017-05-27T10:00:15Z</time>
      </trkpt>
      <trkpt lat="48.04272" lon="-4.71026">
        <ele>41.47</ele>
        <time>2017-05-27T10:00:17Z</time>
      </trkpt>
      <trkpt lat="48.04266" lon="-4.71041">
        <ele>40.51</ele>
        <time>2017-05-27T10:00:26Z</time>
      </trkpt>
      <trkpt lat="48.04262" lon="-4.71052">
        <ele>39.55</ele>
        <time>2017-05-27T10:00:34Z</time>
      </trkpt>
      <trkpt lat="48.04256" lon="-4.71073">
        <ele>37.15</ele>
        <time>2017-05-27T10:00:47Z</time>
      </trkpt>
      <trkpt lat="48.04255" lon="-4.71084">
        <ele>36.19</ele>
        <time>2017-05-27T10:00:53Z</time>
      </trkpt>
      <trkpt lat="48.04251" lon="-4.71105">
        <ele>36.19</ele>
        <time>2017-05-27T10:01:04Z</time>
      </trkpt>
      <trkpt lat="48.04248" lon="-4.7111">
        <ele>36.19</ele>
        <time>2017-05-27T10:01:08Z</time>
      </trkpt>
      <trkpt lat="48.04243" lon="-4.71116">
        <ele>35.71</ele>
        <time>2017-05-27T10:01:12Z</time>
      </trkpt>
      <trkpt lat="48.0424" lon="-4.71121">
        <ele>34.74</ele>
        <time>2017-05-27T10:01:17Z</time>
      </trkpt>
      <trkpt lat="48.0423" lon="-4.71128">
        <ele>34.26</ele>
        <time>2017-05-27T10:01:25Z</time>
      </trkpt>
      <trkpt lat="48.04226" lon="-4.71135">
        <ele>35.23</ele>
        <time>2017-05-27T10:01:30Z</time>
      </trkpt>
      <trkpt lat="48.04217" lon="-4.71146">
        <ele>36.67</ele>
        <time>2017-05-27T10:01:38Z</time>
      </trkpt>
      <trkpt lat="48.04203" lon="-4.71151">
        <ele>40.99</ele>
        <time>2017-05-27T10:01:52Z</time>
      </trkpt>
      <trkpt lat="48.04196" lon="-4.71156">
        <ele>42.92</ele>
        <time>2017-05-27T10:01:59Z</time>
      </trkpt>
      <trkpt lat="48.04189" lon="-4.71163">
        <ele>44.84</ele>
        <time>2017-05-27T10:02:06Z</time>
      </trkpt>
      <trkpt lat="48.04181" lon="-4.71172">
        <ele>45.32</ele>
        <time>2017-05-27T10:02:15Z</time>
      </trkpt>
      <trkpt lat="48.04173" lon="-4.71189">
        <ele>45.8</ele>
        <time>2017-05-27T10:02:26Z</time>
      </trkpt>
      <trkpt lat="48.04174" lon="-4.71197">
        <ele>45.32</ele>
        <time>2017-05-27T10:02:33Z</time>
      </trkpt>
      <trkpt lat="48.04172" lon="-4.71206">
        <ele>44.36</ele>
        <time>2017-05-27T10:02:39Z</time>
      </trkpt>
      <trkpt lat="48.04172" lon="-4.71209">
        <ele>44.36</ele>
        <time>2017-05-27T10:02:41Z</time>
      </trkpt>
      <trkpt lat="48.04165" lon="-4.71228">
        <ele>41.47</ele>
        <time>2017-05-27T10:02:55Z</time>
      </trkpt>
      <trkpt lat="48.04165" lon="-4.7123">
        <ele>40.99</ele>
        <time>2017-05-27T10:02:56Z</time>
      </trkpt>
      <trkpt lat="48.04163" lon="-4.71239">
        <ele>40.03</ele>
        <time>2017-05-27T10:03:00Z</time>
      </trkpt>
      <trkpt lat="48.04155" lon="-4.71253">
        <ele>38.59</ele>
        <time>2017-05-27T10:03:10Z</time>
      </trkpt>
      <trkpt lat="48.0415" lon="-4.71262">
        <ele>38.11</ele>
        <time>2017-05-27T10:03:17Z</time>
      </trkpt>
      <trkpt lat="48.04139" lon="-4.71273">
        <ele>38.11</ele>
        <time>2017-05-27T10:03:25Z</time>
      </trkpt>
      <trkpt lat="48.04136" lon="-4.71282">
        <ele>38.11</ele>
        <time>2017-05-27T10:03:32Z</time>
      </trkpt>
      <trkpt lat="48.04134" lon="-4.71294">
        <ele>38.11</ele>
        <time>2017-05-27T10:03:39Z</time>
      </trkpt>
      <trkpt lat="48.04132" lon="-4.71302">
        <ele>37.63</ele>
        <time>2017-05-27T10:03:44Z</time>
      </trkpt>
      <trkpt lat="48.0413" lon="-4.71321">
        <ele>33.3</ele>
        <time>2017-05-27T10:03:57Z</time>
      </trkpt>
      <trkpt lat="48.0413" lon="-4.7133">
        <ele>31.86</ele>
        <time>2017-05-27T10:04:01Z</time>
      </trkpt>
      <trkpt lat="48.0413" lon="-4.71336">
        <ele>28.98</ele>
        <time>2017-05-27T10:04:06Z</time>
      </trkpt>
      <trkpt lat="48.04129" lon="-4.71357">
        <ele>26.09</ele>
        <time>2017-05-27T10:04:17Z</time>
      </trkpt>
      <trkpt lat="48.04124" lon="-4.71373">
        <ele>26.09</ele>
        <time>2017-05-27T10:04:26Z</time>
      </trkpt>
      <trkpt lat="48.04124" lon="-4.7138">
        <ele>25.61</ele>
        <time>2017-05-27T10:04:30Z</time>
      </trkpt>
      <trkpt lat="48.04121" lon="-4.71395">
        <ele>24.65</ele>
        <time>2017-05-27T10:04:37Z</time>
      </trkpt>
      <trkpt lat="48.04113" lon="-4.71414">
        <ele>22.25</ele>
        <time>2017-05-27T10:04:50Z</time>
      </trkpt>
      <trkpt lat="48.04113" lon="-4.71417">
        <ele>22.25</ele>
        <time>2017-05-27T10:04:52Z</time>
      </trkpt>
      <trkpt lat="48.04108" lon="-4.71436">
        <ele>22.73</ele>
        <time>2017-05-27T10:05:01Z</time>
      </trkpt>
      <trkpt lat="48.04108" lon="-4.71446">
        <ele>23.21</ele>
        <time>2017-05-27T10:05:07Z</time>
      </trkpt>
      <trkpt lat="48.04107" lon="-4.71455">
        <ele>23.21</ele>
        <time>2017-05-27T10:05:11Z</time>
      </trkpt>
      <trkpt lat="48.04111" lon="-4.71481">
        <ele>23.21</ele>
        <time>2017-05-27T10:05:25Z</time>
      </trkpt>
      <trkpt lat="48.0412" lon="-4.71501">
        <ele>26.09</ele>
        <time>2017-05-27T10:05:39Z</time>
      </trkpt>
      <trkpt lat="48.04123" lon="-4.71523">
        <ele>26.57</ele>
        <time>2017-05-27T10:05:50Z</time>
      </trkpt>
      <trkpt lat="48.0412" lon="-4.71546">
        <ele>28.98</ele>
        <time>2017-05-27T10:06:04Z</time>
      </trkpt>
      <trkpt lat="48.0412" lon="-4.71549">
        <ele>28.98</ele>
        <time>2017-05-27T10:06:06Z</time>
      </trkpt>
      <trkpt lat="48.04117" lon="-4.71553">
        <ele>28.98</ele>
        <time>2017-05-27T10:06:10Z</time>
      </trkpt>
      <trkpt lat="48.04114" lon="-4.71562">
        <ele>30.42</ele>
        <time>2017-05-27T10:06:17Z</time>
      </trkpt>
      <trkpt lat="48.04113" lon="-4.71568">
        <ele>31.38</ele>
        <time>2017-05-27T10:06:21Z</time>
      </trkpt>
      <trkpt lat="48.04114" lon="-4.71585">
        <ele>33.78</ele>
        <time>2017-05-27T10:06:30Z</time>
      </trkpt>
      <trkpt lat="48.04112" lon="-4.71598">
        <ele>35.71</ele>
        <time>2017-05-27T10:06:39Z</time>
      </trkpt>
      <trkpt lat="48.04113" lon="-4.71608">
        <ele>36.67</ele>
        <time>2017-05-27T10:06:51Z</time>
      </trkpt>
      <trkpt lat="48.04113" lon="-4.71618">
        <ele>39.07</ele>
        <time>2017-05-27T10:06:58Z</time>
      </trkpt>
      <trkpt lat="48.04114" lon="-4.71623">
        <ele>39.07</ele>
        <time>2017-05-27T10:07:02Z</time>
      </trkpt>
      <trkpt lat="48.04113" lon="-4.71634">
        <ele>39.55</ele>
        <time>2017-05-27T10:07:08Z</time>
      </trkpt>
      <trkpt lat="48.04114" lon="-4.71646">
        <ele>40.03</ele>
        <time>2017-05-27T10:07:16Z</time>
      </trkpt>
      <trkpt lat="48.04116" lon="-4.71654">
        <ele>40.99</ele>
        <time>2017-05-27T10:07:22Z</time>
      </trkpt>
      <trkpt lat="48.04116" lon="-4.71662">
        <ele>40.99</ele>
        <time>2017-05-27T10:07:29Z</time>
      </trkpt>
      <trkpt lat="48.04118" lon="-4.71679">
        <ele>39.07</ele>
        <time>2017-05-27T10:07:43Z</time>
      </trkpt>
      <trkpt lat="48.04118" lon="-4.7168">
        <ele>39.07</ele>
        <time>2017-05-27T10:07:46Z</time>
      </trkpt>
      <trkpt lat="48.0412" lon="-4.71689">
        <ele>37.63</ele>
        <time>2017-05-27T10:07:52Z</time>
      </trkpt>
      <trkpt lat="48.04128" lon="-4.71705">
        <ele>34.74</ele>
        <time>2017-05-27T10:08:05Z</time>
      </trkpt>
      <trkpt lat="48.04137" lon="-4.71728">
        <ele>32.82</ele>
        <time>2017-05-27T10:08:19Z</time>
      </trkpt>
      <trkpt lat="48.04139" lon="-4.71752">
        <ele>31.86</ele>
        <time>2017-05-27T10:08:31Z</time>
      </trkpt>
      <trkpt lat="48.04146" lon="-4.71773">
        <ele>29.94</ele>
        <time>2017-05-27T10:08:44Z</time>
      </trkpt>
      <trkpt lat="48.04155" lon="-4.71792">
        <ele>28.02</ele>
        <time>2017-05-27T10:08:57Z</time>
      </trkpt>
      <trkpt lat="48.04157" lon="-4.71798">
        <ele>28.02</ele>
        <time>2017-05-27T10:09:00Z</time>
      </trkpt>
      <trkpt lat="48.0416" lon="-4.71803">
        <ele>28.02</ele>
        <time>2017-05-27T10:09:04Z</time>
      </trkpt>
      <trkpt lat="48.04171" lon="-4.71828">
        <ele>27.05</ele>
        <time>2017-05-27T10:09:19Z</time>
      </trkpt>
      <trkpt lat="48.04177" lon="-4.71846">
        <ele>26.57</ele>
        <time>2017-05-27T10:09:31Z</time>
      </trkpt>
      <trkpt lat="48.04179" lon="-4.71855">
        <ele>26.57</ele>
        <time>2017-05-27T10:09:36Z</time>
      </trkpt>
      <trkpt lat="48.04179" lon="-4.71862">
        <ele>26.57</ele>
        <time>2017-05-27T10:09:40Z</time>
      </trkpt>
      <trkpt lat="48.04179" lon="-4.71865">
        <ele>27.05</ele>
        <time>2017-05-27T10:09:42Z</time>
      </trkpt>
      <trkpt lat="48.04173" lon="-4.71887">
        <ele>27.05</ele>
        <time>2017-05-27T10:09:56Z</time>
      </trkpt>
      <trkpt lat="48.04173" lon="-4.71889">
        <ele>27.05</ele>
        <time>2017-05-27T10:09:57Z</time>
      </trkpt>
      <trkpt lat="48.0417" lon="-4.719">
        <ele>27.05</ele>
        <time>2017-05-27T10:10:04Z</time>
      </trkpt>
      <trkpt lat="48.0417" lon="-4.71925">
        <ele>28.5</ele>
        <time>2017-05-27T10:10:19Z</time>
      </trkpt>
      <trkpt lat="48.04171" lon="-4.71945">
        <ele>27.53</ele>
        <time>2017-05-27T10:10:32Z</time>
      </trkpt>
      <trkpt lat="48.0417" lon="-4.71953">
        <ele>27.53</ele>
        <time>2017-05-27T10:10:45Z</time>
      </trkpt>
      <trkpt lat="48.0417" lon="-4.71953">
        <ele>28.98</ele>
        <time>2017-05-27T10:11:10Z</time>
      </trkpt>
      <trkpt lat="48.04169" lon="-4.71955">
        <ele>31.38</ele>
        <time>2017-05-27T10:11:31Z</time>
      </trkpt>
      <trkpt lat="48.04169" lon="-4.71954">
        <ele>32.82</ele>
        <time>2017-05-27T10:11:51Z</time>
      </trkpt>
      <trkpt lat="48.04169" lon="-4.71954">
        <ele>32.82</ele>
        <time>2017-05-27T10:12:15Z</time>
      </trkpt>
      <trkpt lat="48.04168" lon="-4.71957">
        <ele>32.34</ele>
        <time>2017-05-27T10:12:25Z</time>
      </trkpt>
      <trkpt lat="48.04158" lon="-4.7196">
        <ele>31.38</ele>
        <time>2017-05-27T10:12:33Z</time>
      </trkpt>
      <trkpt lat="48.04147" lon="-4.7196">
        <ele>30.9</ele>
        <time>2017-05-27T10:12:40Z</time>
      </trkpt>
      <trkpt lat="48.04139" lon="-4.71962">
        <ele>30.42</ele>
        <time>2017-05-27T10:12:47Z</time>
      </trkpt>
      <trkpt lat="48.04114" lon="-4.71978">
        <ele>30.42</ele>
        <time>2017-05-27T10:13:06Z</time>
      </trkpt>
      <trkpt lat="48.04097" lon="-4.71985">
        <ele>31.38</ele>
        <time>2017-05-27T10:13:19Z</time>
      </trkpt>
      <trkpt lat="48.04085" lon="-4.71993">
        <ele>32.34</ele>
        <time>2017-05-27T10:13:28Z</time>
      </trkpt>
      <trkpt lat="48.04081" lon="-4.71992">
        <ele>34.26</ele>
        <time>2017-05-27T10:13:36Z</time>
      </trkpt>
      <trkpt lat="48.04075" lon="-4.7199">
        <ele>36.67</ele>
        <time>2017-05-27T10:13:49Z</time>
      </trkpt>
      <trkpt lat="48.04073" lon="-4.7199">
        <ele>37.63</ele>
        <time>2017-05-27T10:13:55Z</time>
      </trkpt>
      <trkpt lat="48.0407" lon="-4.71991">
        <ele>37.63</ele>
        <time>2017-05-27T10:13:58Z</time>
      </trkpt>
      <trkpt lat="48.04067" lon="-4.7199">
        <ele>39.07</ele>
        <time>2017-05-27T10:14:02Z</time>
      </trkpt>
      <trkpt lat="48.04062" lon="-4.71994">
        <ele>40.03</ele>
        <time>2017-05-27T10:14:07Z</time>
      </trkpt>
      <trkpt lat="48.04056" lon="-4.71993">
        <ele>43.4</ele>
        <time>2017-05-27T10:14:18Z</time>
      </trkpt>
      <trkpt lat="48.04041" lon="-4.72">
        <ele>47.24</ele>
        <time>2017-05-27T10:14:33Z</time>
      </trkpt>
      <trkpt lat="48.04038" lon="-4.72002">
        <ele>47.24</ele>
        <time>2017-05-27T10:14:36Z</time>
      </trkpt>
      <trkpt lat="48.04027" lon="-4.72011">
        <ele>47.24</ele>
        <time>2017-05-27T10:14:46Z</time>
      </trkpt>
      <trkpt lat="48.04025" lon="-4.7202">
        <ele>46.28</ele>
        <time>2017-05-27T10:14:51Z</time>
      </trkpt>
      <trkpt lat="48.04025" lon="-4.7204">
        <ele>45.32</ele>
        <time>2017-05-27T10:15:01Z</time>
      </trkpt>
      <trkpt lat="48.04024" lon="-4.72044">
        <ele>45.8</ele>
        <time>2017-05-27T10:15:03Z</time>
      </trkpt>
      <trkpt lat="48.04023" lon="-4.72052">
        <ele>47.24</ele>
        <time>2017-05-27T10:15:10Z</time>
      </trkpt>
      <trkpt lat="48.04021" lon="-4.72062">
        <ele>48.2</ele>
        <time>2017-05-27T10:15:15Z</time>
      </trkpt>
      <trkpt lat="48.0402" lon="-4.72066">
        <ele>49.16</ele>
        <time>2017-05-27T10:15:18Z</time>
      </trkpt>
      <trkpt lat="48.04017" lon="-4.72087">
        <ele>52.05</ele>
        <time>2017-05-27T10:15:31Z</time>
      </trkpt>
      <trkpt lat="48.04016" lon="-4.72093">
        <ele>52.05</ele>
        <time>2017-05-27T10:15:35Z</time>
      </trkpt>
      <trkpt lat="48.04019" lon="-4.72113">
        <ele>54.45</ele>
        <time>2017-05-27T10:15:49Z</time>
      </trkpt>
      <trkpt lat="48.04023" lon="-4.72138">
        <ele>53.97</ele>
        <time>2017-05-27T10:16:03Z</time>
      </trkpt>
      <trkpt lat="48.04022" lon="-4.72143">
        <ele>53.97</ele>
        <time>2017-05-27T10:16:05Z</time>
      </trkpt>
      <trkpt lat="48.04024" lon="-4.72153">
        <ele>53.49</ele>
        <time>2017-05-27T10:16:09Z</time>
      </trkpt>
      <trkpt lat="48.04034" lon="-4.72179">
        <ele>53.49</ele>
        <time>2017-05-27T10:16:24Z</time>
      </trkpt>
      <trkpt lat="48.04043" lon="-4.7219">
        <ele>54.93</ele>
        <time>2017-05-27T10:16:35Z</time>
      </trkpt>
      <trkpt lat="48.04049" lon="-4.72203">
        <ele>56.37</ele>
        <time>2017-05-27T10:16:47Z</time>
      </trkpt>
      <trkpt lat="48.04051" lon="-4.72206">
        <ele>56.86</ele>
        <time>2017-05-27T10:17:00Z</time>
      </trkpt>
      <trkpt lat="48.04052" lon="-4.72213">
        <ele>56.86</ele>
        <time>2017-05-27T10:17:05Z</time>
      </trkpt>
      <trkpt lat="48.04055" lon="-4.72229">
        <ele>56.37</ele>
        <time>2017-05-27T10:17:16Z</time>
      </trkpt>
      <trkpt lat="48.04055" lon="-4.72251">
        <ele>53.97</ele>
        <time>2017-05-27T10:17:30Z</time>
      </trkpt>
      <trkpt lat="48.04054" lon="-4.72255">
        <ele>53.49</ele>
        <time>2017-05-27T10:17:32Z</time>
      </trkpt>
      <trkpt lat="48.0405" lon="-4.72267">
        <ele>53.49</ele>
        <time>2017-05-27T10:17:47Z</time>
      </trkpt>
      <trkpt lat="48.04046" lon="-4.72284">
        <ele>51.57</ele>
        <time>2017-05-27T10:17:57Z</time>
      </trkpt>
      <trkpt lat="48.04044" lon="-4.72291">
        <ele>51.09</ele>
        <time>2017-05-27T10:18:02Z</time>
      </trkpt>
      <trkpt lat="48.04042" lon="-4.72303">
        <ele>51.09</ele>
        <time>2017-05-27T10:18:08Z</time>
      </trkpt>
      <trkpt lat="48.04041" lon="-4.72312">
        <ele>51.57</ele>
        <time>2017-05-27T10:18:14Z</time>
      </trkpt>
      <trkpt lat="48.04039" lon="-4.72319">
        <ele>52.05</ele>
        <time>2017-05-27T10:18:19Z</time>
      </trkpt>
      <trkpt lat="48.04039" lon="-4.72323">
        <ele>52.05</ele>
        <time>2017-05-27T10:18:21Z</time>
      </trkpt>
      <trkpt lat="48.04042" lon="-4.72336">
        <ele>52.05</ele>
        <time>2017-05-27T10:18:29Z</time>
      </trkpt>
      <trkpt lat="48.04038" lon="-4.72354">
        <ele>52.05</ele>
        <time>2017-05-27T10:18:39Z</time>
      </trkpt>
      <trkpt lat="48.04032" lon="-4.72371">
        <ele>53.49</ele>
        <time>2017-05-27T10:18:49Z</time>
      </trkpt>
      <trkpt lat="48.04031" lon="-4.724">
        <ele>53.97</ele>
        <time>2017-05-27T10:19:04Z</time>
      </trkpt>
      <trkpt lat="48.04028" lon="-4.72409">
        <ele>55.41</ele>
        <time>2017-05-27T10:19:12Z</time>
      </trkpt>
      <trkpt lat="48.0402" lon="-4.72421">
        <ele>56.86</ele>
        <time>2017-05-27T10:19:25Z</time>
      </trkpt>
      <trkpt lat="48.04018" lon="-4.72426">
        <ele>58.3</ele>
        <time>2017-05-27T10:19:29Z</time>
      </trkpt>
      <trkpt lat="48.04017" lon="-4.72434">
        <ele>59.26</ele>
        <time>2017-05-27T10:19:34Z</time>
      </trkpt>
      <trkpt lat="48.04017" lon="-4.72441">
        <ele>59.26</ele>
        <time>2017-05-27T10:19:38Z</time>
      </trkpt>
      <trkpt lat="48.04005" lon="-4.7246">
        <ele>60.22</ele>
        <time>2017-05-27T10:19:53Z</time>
      </trkpt>
      <trkpt lat="48.04004" lon="-4.72466">
        <ele>60.22</ele>
        <time>2017-05-27T10:19:57Z</time>
      </trkpt>
      <trkpt lat="48.04001" lon="-4.7247">
        <ele>60.7</ele>
        <time>2017-05-27T10:20:02Z</time>
      </trkpt>
      <trkpt lat="48.03998" lon="-4.7248">
        <ele>60.22</ele>
        <time>2017-05-27T10:20:08Z</time>
      </trkpt>
      <trkpt lat="48.03999" lon="-4.72498">
        <ele>61.18</ele>
        <time>2017-05-27T10:20:18Z</time>
      </trkpt>
      <trkpt lat="48.03999" lon="-4.72507">
        <ele>62.14</ele>
        <time>2017-05-27T10:20:23Z</time>
      </trkpt>
      <trkpt lat="48.04" lon="-4.72537">
        <ele>60.7</ele>
        <time>2017-05-27T10:20:38Z</time>
      </trkpt>
      <trkpt lat="48.04001" lon="-4.72564">
        <ele>60.22</ele>
        <time>2017-05-27T10:20:52Z</time>
      </trkpt>
      <trkpt lat="48.04002" lon="-4.7258">
        <ele>60.22</ele>
        <time>2017-05-27T10:21:01Z</time>
      </trkpt>
      <trkpt lat="48.04" lon="-4.72599">
        <ele>61.18</ele>
        <time>2017-05-27T10:21:11Z</time>
      </trkpt>
      <trkpt lat="48.03998" lon="-4.72625">
        <ele>61.18</ele>
        <time>2017-05-27T10:21:25Z</time>
      </trkpt>
      <trkpt lat="48.03999" lon="-4.72654">
        <ele>59.74</ele>
        <time>2017-05-27T10:21:40Z</time>
      </trkpt>
      <trkpt lat="48.04" lon="-4.72684">
        <ele>59.74</ele>
        <time>2017-05-27T10:21:55Z</time>
      </trkpt>
      <trkpt lat="48.04001" lon="-4.72696">
        <ele>58.78</ele>
        <time>2017-05-27T10:22:00Z</time>
      </trkpt>
      <trkpt lat="48.03999" lon="-4.72714">
        <ele>58.3</ele>
        <time>2017-05-27T10:22:11Z</time>
      </trkpt>
      <trkpt lat="48.03997" lon="-4.72732">
        <ele>57.34</ele>
        <time>2017-05-27T10:22:21Z</time>
      </trkpt>
      <trkpt lat="48.03997" lon="-4.72758">
        <ele>57.34</ele>
        <time>2017-05-27T10:22:33Z</time>
      </trkpt>
      <trkpt lat="48.03996" lon="-4.72779">
        <ele>58.78</ele>
        <time>2017-05-27T10:22:45Z</time>
      </trkpt>
      <trkpt lat="48.03994" lon="-4.72814">
        <ele>56.86</ele>
        <time>2017-05-27T10:23:02Z</time>
      </trkpt>
      <trkpt lat="48.03989" lon="-4.72846">
        <ele>55.89</ele>
        <time>2017-05-27T10:23:16Z</time>
      </trkpt>
      <trkpt lat="48.03989" lon="-4.7287">
        <ele>56.86</ele>
        <time>2017-05-27T10:23:29Z</time>
      </trkpt>
      <trkpt lat="48.0399" lon="-4.72873">
        <ele>56.86</ele>
        <time>2017-05-27T10:23:31Z</time>
      </trkpt>
      <trkpt lat="48.03989" lon="-4.72889">
        <ele>57.34</ele>
        <time>2017-05-27T10:23:38Z</time>
      </trkpt>
      <trkpt lat="48.03988" lon="-4.72912">
        <ele>58.3</ele>
        <time>2017-05-27T10:23:51Z</time>
      </trkpt>
      <trkpt lat="48.03989" lon="-4.72925">
        <ele>59.26</ele>
        <time>2017-05-27T10:23:59Z</time>
      </trkpt>
      <trkpt lat="48.03989" lon="-4.72938">
        <ele>59.26</ele>
        <time>2017-05-27T10:24:05Z</time>
      </trkpt>
      <trkpt lat="48.03991" lon="-4.72954">
        <ele>58.3</ele>
        <time>2017-05-27T10:24:15Z</time>
      </trkpt>
      <trkpt lat="48.03995" lon="-4.72964">
        <ele>56.86</ele>
        <time>2017-05-27T10:24:21Z</time>
      </trkpt>
      <trkpt lat="48.03996" lon="-4.72968">
        <ele>56.37</ele>
        <time>2017-05-27T10:24:24Z</time>
      </trkpt>
      <trkpt lat="48.03996" lon="-4.72977">
        <ele>56.37</ele>
        <time>2017-05-27T10:24:28Z</time>
      </trkpt>
      <trkpt lat="48.03995" lon="-4.72986">
        <ele>55.89</ele>
        <time>2017-05-27T10:24:32Z</time>
      </trkpt>
      <trkpt lat="48.03994" lon="-4.73003">
        <ele>55.89</ele>
        <time>2017-05-27T10:24:41Z</time>
      </trkpt>
      <trkpt lat="48.03993" lon="-4.7301">
        <ele>55.89</ele>
        <time>2017-05-27T10:24:44Z</time>
      </trkpt>
      <trkpt lat="48.03991" lon="-4.7302">
        <ele>56.86</ele>
        <time>2017-05-27T10:24:50Z</time>
      </trkpt>
      <trkpt lat="48.03986" lon="-4.73028">
        <ele>58.3</ele>
        <time>2017-05-27T10:24:57Z</time>
      </trkpt>
      <trkpt lat="48.03982" lon="-4.73031">
        <ele>59.26</ele>
        <time>2017-05-27T10:25:01Z</time>
      </trkpt>
      <trkpt lat="48.03978" lon="-4.73035">
        <ele>60.22</ele>
        <time>2017-05-27T10:25:14Z</time>
      </trkpt>
      <trkpt lat="48.03973" lon="-4.73041">
        <ele>63.1</ele>
        <time>2017-05-27T10:25:31Z</time>
      </trkpt>
      <trkpt lat="48.03964" lon="-4.73052">
        <ele>63.1</ele>
        <time>2017-05-27T10:25:43Z</time>
      </trkpt>
      <trkpt lat="48.03949" lon="-4.73072">
        <ele>63.58</ele>
        <time>2017-05-27T10:25:58Z</time>
      </trkpt>
      <trkpt lat="48.03948" lon="-4.73075">
        <ele>64.55</ele>
        <time>2017-05-27T10:26:11Z</time>
      </trkpt>
      <trkpt lat="48.03948" lon="-4.73076">
        <ele>64.07</ele>
        <time>2017-05-27T10:26:14Z</time>
      </trkpt>
      <trkpt lat="48.03958" lon="-4.73108">
        <ele>63.1</ele>
        <time>2017-05-27T10:26:31Z</time>
      </trkpt>
      <trkpt lat="48.03964" lon="-4.73116">
        <ele>63.58</ele>
        <time>2017-05-27T10:26:39Z</time>
      </trkpt>
      <trkpt lat="48.03977" lon="-4.73137">
        <ele>62.62</ele>
        <time>2017-05-27T10:26:52Z</time>
      </trkpt>
      <trkpt lat="48.03987" lon="-4.73155">
        <ele>62.62</ele>
        <time>2017-05-27T10:27:05Z</time>
      </trkpt>
      <trkpt lat="48.03992" lon="-4.73164">
        <ele>63.1</ele>
        <time>2017-05-27T10:27:12Z</time>
      </trkpt>
      <trkpt lat="48.03997" lon="-4.73181">
        <ele>63.58</ele>
        <time>2017-05-27T10:27:23Z</time>
      </trkpt>
      <trkpt lat="48.04" lon="-4.73188">
        <ele>63.58</ele>
        <time>2017-05-27T10:27:28Z</time>
      </trkpt>
      <trkpt lat="48.04006" lon="-4.73217">
        <ele>63.58</ele>
        <time>2017-05-27T10:27:44Z</time>
      </trkpt>
      <trkpt lat="48.04005" lon="-4.73229">
        <ele>64.07</ele>
        <time>2017-05-27T10:27:51Z</time>
      </trkpt>
      <trkpt lat="48.04006" lon="-4.73247">
        <ele>63.58</ele>
        <time>2017-05-27T10:28:00Z</time>
      </trkpt>
      <trkpt lat="48.04003" lon="-4.73255">
        <ele>63.58</ele>
        <time>2017-05-27T10:28:05Z</time>
      </trkpt>
      <trkpt lat="48.03995" lon="-4.73284">
        <ele>62.62</ele>
        <time>2017-05-27T10:28:20Z</time>
      </trkpt>
      <trkpt lat="48.03984" lon="-4.73307">
        <ele>64.07</ele>
        <time>2017-05-27T10:28:35Z</time>
      </trkpt>
      <trkpt lat="48.03985" lon="-4.7331">
        <ele>64.07</ele>
        <time>2017-05-27T10:28:37Z</time>
      </trkpt>
      <trkpt lat="48.03984" lon="-4.73343">
        <ele>61.66</ele>
        <time>2017-05-27T10:28:54Z</time>
      </trkpt>
      <trkpt lat="48.03978" lon="-4.73368">
        <ele>60.7</ele>
        <time>2017-05-27T10:29:09Z</time>
      </trkpt>
      <trkpt lat="48.03973" lon="-4.73382">
        <ele>59.74</ele>
        <time>2017-05-27T10:29:21Z</time>
      </trkpt>
      <trkpt lat="48.03963" lon="-4.73403">
        <ele>57.34</ele>
        <time>2017-05-27T10:29:35Z</time>
      </trkpt>
      <trkpt lat="48.03957" lon="-4.73428">
        <ele>56.37</ele>
        <time>2017-05-27T10:29:48Z</time>
      </trkpt>
      <trkpt lat="48.03955" lon="-4.73436">
        <ele>54.93</ele>
        <time>2017-05-27T10:29:52Z</time>
      </trkpt>
      <trkpt lat="48.03956" lon="-4.73441">
        <ele>53.97</ele>
        <time>2017-05-27T10:29:56Z</time>
      </trkpt>
      <trkpt lat="48.03955" lon="-4.73448">
        <ele>53.97</ele>
        <time>2017-05-27T10:29:59Z</time>
      </trkpt>
      <trkpt lat="48.03959" lon="-4.73468">
        <ele>53.01</ele>
        <time>2017-05-27T10:30:11Z</time>
      </trkpt>
      <trkpt lat="48.03963" lon="-4.73475">
        <ele>53.01</ele>
        <time>2017-05-27T10:30:23Z</time>
      </trkpt>
      <trkpt lat="48.03968" lon="-4.73497">
        <ele>52.05</ele>
        <time>2017-05-27T10:30:37Z</time>
      </trkpt>
      <trkpt lat="48.03975" lon="-4.73525">
        <ele>51.57</ele>
        <time>2017-05-27T10:30:52Z</time>
      </trkpt>
      <trkpt lat="48.03979" lon="-4.73544">
        <ele>53.01</ele>
        <time>2017-05-27T10:31:04Z</time>
      </trkpt>
      <trkpt lat="48.03982" lon="-4.73562">
        <ele>53.01</ele>
        <time>2017-05-27T10:31:15Z</time>
      </trkpt>
      <trkpt lat="48.03982" lon="-4.73566">
        <ele>53.01</ele>
        <time>2017-05-27T10:31:17Z</time>
      </trkpt>
      <trkpt lat="48.03981" lon="-4.73571">
        <ele>53.01</ele>
        <time>2017-05-27T10:31:21Z</time>
      </trkpt>
      <trkpt lat="48.03985" lon="-4.73594">
        <ele>51.57</ele>
        <time>2017-05-27T10:31:35Z</time>
      </trkpt>
      <trkpt lat="48.03985" lon="-4.73597">
        <ele>51.57</ele>
        <time>2017-05-27T10:31:37Z</time>
      </trkpt>
      <trkpt lat="48.03988" lon="-4.73606">
        <ele>50.61</ele>
        <time>2017-05-27T10:31:43Z</time>
      </trkpt>
      <trkpt lat="48.03989" lon="-4.73626">
        <ele>49.65</ele>
        <time>2017-05-27T10:31:56Z</time>
      </trkpt>
      <trkpt lat="48.0399" lon="-4.73636">
        <ele>50.61</ele>
        <time>2017-05-27T10:32:07Z</time>
      </trkpt>
      <trkpt lat="48.03991" lon="-4.73645">
        <ele>50.61</ele>
        <time>2017-05-27T10:32:12Z</time>
      </trkpt>
      <trkpt lat="48.03989" lon="-4.7366">
        <ele>52.05</ele>
        <time>2017-05-27T10:32:22Z</time>
      </trkpt>
      <trkpt lat="48.03989" lon="-4.73668">
        <ele>52.53</ele>
        <time>2017-05-27T10:32:35Z</time>
      </trkpt>
      <trkpt lat="48.03989" lon="-4.73668">
        <ele>53.01</ele>
        <time>2017-05-27T10:32:56Z</time>
      </trkpt>
      <trkpt lat="48.0399" lon="-4.73667">
        <ele>53.01</ele>
        <time>2017-05-27T10:33:19Z</time>
      </trkpt>
      <trkpt lat="48.0399" lon="-4.73667">
        <ele>53.01</ele>
        <time>2017-05-27T10:33:47Z</time>
      </trkpt>
      <trkpt lat="48.0399" lon="-4.73665">
        <ele>53.49</ele>
        <time>2017-05-27T10:34:06Z</time>
      </trkpt>
      <trkpt lat="48.03991" lon="-4.73663">
        <ele>53.97</ele>
        <time>2017-05-27T10:34:24Z</time>
      </trkpt>
      <trkpt lat="48.03991" lon="-4.73663">
        <ele>53.97</ele>
        <time>2017-05-27T10:34:32Z</time>
      </trkpt>
      <trkpt lat="48.03991" lon="-4.73662">
        <ele>54.45</ele>
        <time>2017-05-27T10:34:38Z</time>
      </trkpt>
      <trkpt lat="48.0399" lon="-4.73666">
        <ele>54.45</ele>
        <time>2017-05-27T10:34:55Z</time>
      </trkpt>
      <trkpt lat="48.0399" lon="-4.73666">
        <ele>54.93</ele>
        <time>2017-05-27T10:35:31Z</time>
      </trkpt>
      <trkpt lat="48.0399" lon="-4.73665">
        <ele>54.93</ele>
        <time>2017-05-27T10:35:43Z</time>
      </trkpt>
      <trkpt lat="48.0399" lon="-4.73663">
        <ele>54.93</ele>
        <time>2017-05-27T10:35:58Z</time>
      </trkpt>
      <trkpt lat="48.0399" lon="-4.73663">
        <ele>54.93</ele>
        <time>2017-05-27T10:36:22Z</time>
      </trkpt>
      <trkpt lat="48.03991" lon="-4.73664">
        <ele>54.93</ele>
        <time>2017-05-27T10:36:51Z</time>
      </trkpt>
      <trkpt lat="48.03991" lon="-4.73664">
        <ele>54.93</ele>
        <time>2017-05-27T10:37:16Z</time>
      </trkpt>
      <trkpt lat="48.03991" lon="-4.73664">
        <ele>54.45</ele>
        <time>2017-05-27T10:37:42Z</time>
      </trkpt>
      <trkpt lat="48.03991" lon="-4.73664">
        <ele>54.45</ele>
        <time>2017-05-27T10:37:49Z</time>
      </trkpt>
      <trkpt lat="48.0399" lon="-4.73663">
        <ele>54.45</ele>
        <time>2017-05-27T10:37:51Z</time>
      </trkpt>
      <trkpt lat="48.03992" lon="-4.73654">
        <ele>53.97</ele>
        <time>2017-05-27T10:37:57Z</time>
      </trkpt>
      <trkpt lat="48.03996" lon="-4.73646">
        <ele>53.49</ele>
        <time>2017-05-27T10:38:11Z</time>
      </trkpt>
      <trkpt lat="48.03997" lon="-4.73646">
        <ele>53.01</ele>
        <time>2017-05-27T10:38:19Z</time>
      </trkpt>
      <trkpt lat="48.03998" lon="-4.73645">
        <ele>52.53</ele>
        <time>2017-05-27T10:38:22Z</time>
      </trkpt>
      <trkpt lat="48.04" lon="-4.73643">
        <ele>52.05</ele>
        <time>2017-05-27T10:38:40Z</time>
      </trkpt>
      <trkpt lat="48.04" lon="-4.73643">
        <ele>51.57</ele>
        <time>2017-05-27T10:38:57Z</time>
      </trkpt>
      <trkpt lat="48.04" lon="-4.73643">
        <ele>50.61</ele>
        <time>2017-05-27T10:39:18Z</time>
      </trkpt>
      <trkpt lat="48.03999" lon="-4.73644">
        <ele>51.57</ele>
        <time>2017-05-27T10:39:52Z</time>
      </trkpt>
      <trkpt lat="48.03999" lon="-4.73644">
        <ele>51.57</ele>
        <time>2017-05-27T10:40:13Z</time>
      </trkpt>
      <trkpt lat="48.03999" lon="-4.73643">
        <ele>51.57</ele>
        <time>2017-05-27T10:40:24Z</time>
      </trkpt>
      <trkpt lat="48.04" lon="-4.73641">
        <ele>71.27</ele>
        <time>2017-05-27T11:38:31Z</time>
      </trkpt>
      <trkpt lat="48.03999" lon="-4.73644">
        <ele>54.93</ele>
        <time>2017-05-27T11:38:51Z</time>
      </trkpt>
      <trkpt lat="48.03999" lon="-4.73647">
        <ele>53.49</ele>
        <time>2017-05-27T11:39:12Z</time>
      </trkpt>
      <trkpt lat="48.03998" lon="-4.73645">
        <ele>53.49</ele>
        <time>2017-05-27T11:39:16Z</time>
      </trkpt>
      <trkpt lat="48.03993" lon="-4.73644">
        <ele>53.01</ele>
        <time>2017-05-27T11:39:31Z</time>
      </trkpt>
      <trkpt lat="48.03992" lon="-4.73642">
        <ele>53.01</ele>
        <time>2017-05-27T11:39:53Z</time>
      </trkpt>
      <trkpt lat="48.03988" lon="-4.73634">
        <ele>52.05</ele>
        <time>2017-05-27T11:40:10Z</time>
      </trkpt>
      <trkpt lat="48.03986" lon="-4.73629">
        <ele>52.53</ele>
        <time>2017-05-27T11:40:25Z</time>
      </trkpt>
      <trkpt lat="48.03986" lon="-4.73615">
        <ele>50.13</ele>
        <time>2017-05-27T11:40:38Z</time>
      </trkpt>
      <trkpt lat="48.03984" lon="-4.73605">
        <ele>48.2</ele>
        <time>2017-05-27T11:40:50Z</time>
      </trkpt>
      <trkpt lat="48.03984" lon="-4.73603">
        <ele>48.2</ele>
        <time>2017-05-27T11:40:54Z</time>
      </trkpt>
      <trkpt lat="48.03982" lon="-4.73585">
        <ele>44.84</ele>
        <time>2017-05-27T11:41:06Z</time>
      </trkpt>
      <trkpt lat="48.0398" lon="-4.73576">
        <ele>43.88</ele>
        <time>2017-05-27T11:41:13Z</time>
      </trkpt>
      <trkpt lat="48.03981" lon="-4.73559">
        <ele>43.4</ele>
        <time>2017-05-27T11:41:25Z</time>
      </trkpt>
      <trkpt lat="48.03977" lon="-4.73536">
        <ele>42.92</ele>
        <time>2017-05-27T11:41:39Z</time>
      </trkpt>
      <trkpt lat="48.03976" lon="-4.7353">
        <ele>42.92</ele>
        <time>2017-05-27T11:41:43Z</time>
      </trkpt>
      <trkpt lat="48.03972" lon="-4.73514">
        <ele>41.47</ele>
        <time>2017-05-27T11:41:55Z</time>
      </trkpt>
      <trkpt lat="48.03968" lon="-4.73501">
        <ele>41.47</ele>
        <time>2017-05-27T11:42:05Z</time>
      </trkpt>
      <trkpt lat="48.03965" lon="-4.73486">
        <ele>42.44</ele>
        <time>2017-05-27T11:42:18Z</time>
      </trkpt>
      <trkpt lat="48.0396" lon="-4.73468">
        <ele>45.8</ele>
        <time>2017-05-27T11:42:32Z</time>
      </trkpt>
      <trkpt lat="48.03956" lon="-4.7345">
        <ele>46.76</ele>
        <time>2017-05-27T11:42:44Z</time>
      </trkpt>
      <trkpt lat="48.03952" lon="-4.7344">
        <ele>48.68</ele>
        <time>2017-05-27T11:42:53Z</time>
      </trkpt>
      <trkpt lat="48.03946" lon="-4.73433">
        <ele>50.13</ele>
        <time>2017-05-27T11:43:00Z</time>
      </trkpt>
      <trkpt lat="48.03938" lon="-4.73418">
        <ele>52.53</ele>
        <time>2017-05-27T11:43:13Z</time>
      </trkpt>
      <trkpt lat="48.03934" lon="-4.73413">
        <ele>53.01</ele>
        <time>2017-05-27T11:43:17Z</time>
      </trkpt>
      <trkpt lat="48.03933" lon="-4.7341">
        <ele>53.01</ele>
        <time>2017-05-27T11:43:19Z</time>
      </trkpt>
      <trkpt lat="48.03931" lon="-4.73403">
        <ele>53.01</ele>
        <time>2017-05-27T11:43:24Z</time>
      </trkpt>
      <trkpt lat="48.03928" lon="-4.73393">
        <ele>52.53</ele>
        <time>2017-05-27T11:43:31Z</time>
      </trkpt>
      <trkpt lat="48.03924" lon="-4.73377">
        <ele>53.49</ele>
        <time>2017-05-27T11:43:44Z</time>
      </trkpt>
      <trkpt lat="48.03921" lon="-4.73363">
        <ele>53.97</ele>
        <time>2017-05-27T11:43:53Z</time>
      </trkpt>
      <trkpt lat="48.03916" lon="-4.7335">
        <ele>54.45</ele>
        <time>2017-05-27T11:44:03Z</time>
      </trkpt>
      <trkpt lat="48.03915" lon="-4.73346">
        <ele>54.45</ele>
        <time>2017-05-27T11:44:06Z</time>
      </trkpt>
      <trkpt lat="48.03912" lon="-4.73337">
        <ele>54.93</ele>
        <time>2017-05-27T11:44:19Z</time>
      </trkpt>
      <trkpt lat="48.03906" lon="-4.73335">
        <ele>55.89</ele>
        <time>2017-05-27T11:44:32Z</time>
      </trkpt>
      <trkpt lat="48.03906" lon="-4.73335">
        <ele>55.89</ele>
        <time>2017-05-27T11:44:35Z</time>
      </trkpt>
      <trkpt lat="48.03902" lon="-4.73331">
        <ele>55.89</ele>
        <time>2017-05-27T11:44:38Z</time>
      </trkpt>
      <trkpt lat="48.039" lon="-4.73319">
        <ele>54.45</ele>
        <time>2017-05-27T11:44:45Z</time>
      </trkpt>
      <trkpt lat="48.03898" lon="-4.73311">
        <ele>53.49</ele>
        <time>2017-05-27T11:44:51Z</time>
      </trkpt>
      <trkpt lat="48.03895" lon="-4.73301">
        <ele>54.93</ele>
        <time>2017-05-27T11:44:57Z</time>
      </trkpt>
      <trkpt lat="48.03893" lon="-4.73295">
        <ele>54.93</ele>
        <time>2017-05-27T11:45:00Z</time>
      </trkpt>
      <trkpt lat="48.03885" lon="-4.73275">
        <ele>54.93</ele>
        <time>2017-05-27T11:45:13Z</time>
      </trkpt>
      <trkpt lat="48.03883" lon="-4.7327">
        <ele>55.41</ele>
        <time>2017-05-27T11:45:17Z</time>
      </trkpt>
      <trkpt lat="48.03881" lon="-4.73265">
        <ele>55.41</ele>
        <time>2017-05-27T11:45:21Z</time>
      </trkpt>
      <trkpt lat="48.03872" lon="-4.73244">
        <ele>53.97</ele>
        <time>2017-05-27T11:45:35Z</time>
      </trkpt>
      <trkpt lat="48.03871" lon="-4.73241">
        <ele>54.45</ele>
        <time>2017-05-27T11:45:37Z</time>
      </trkpt>
      <trkpt lat="48.03862" lon="-4.7322">
        <ele>54.45</ele>
        <time>2017-05-27T11:45:51Z</time>
      </trkpt>
      <trkpt lat="48.0386" lon="-4.73205">
        <ele>56.86</ele>
        <time>2017-05-27T11:46:00Z</time>
      </trkpt>
      <trkpt lat="48.03861" lon="-4.73193">
        <ele>59.26</ele>
        <time>2017-05-27T11:46:07Z</time>
      </trkpt>
      <trkpt lat="48.0386" lon="-4.73174">
        <ele>60.7</ele>
        <time>2017-05-27T11:46:18Z</time>
      </trkpt>
      <trkpt lat="48.0386" lon="-4.73169">
        <ele>62.14</ele>
        <time>2017-05-27T11:46:33Z</time>
      </trkpt>
      <trkpt lat="48.03859" lon="-4.73169">
        <ele>62.62</ele>
        <time>2017-05-27T11:46:52Z</time>
      </trkpt>
      <trkpt lat="48.03859" lon="-4.73169">
        <ele>63.1</ele>
        <time>2017-05-27T11:47:13Z</time>
      </trkpt>
      <trkpt lat="48.03858" lon="-4.73169">
        <ele>63.1</ele>
        <time>2017-05-27T11:47:39Z</time>
      </trkpt>
      <trkpt lat="48.0386" lon="-4.73162">
        <ele>63.1</ele>
        <time>2017-05-27T11:47:57Z</time>
      </trkpt>
      <trkpt lat="48.03861" lon="-4.73159">
        <ele>63.1</ele>
        <time>2017-05-27T11:48:03Z</time>
      </trkpt>
      <trkpt lat="48.03861" lon="-4.73156">
        <ele>63.1</ele>
        <time>2017-05-27T11:48:05Z</time>
      </trkpt>
      <trkpt lat="48.03863" lon="-4.73151">
        <ele>62.62</ele>
        <time>2017-05-27T11:48:08Z</time>
      </trkpt>
      <trkpt lat="48.03864" lon="-4.73149">
        <ele>63.1</ele>
        <time>2017-05-27T11:48:10Z</time>
      </trkpt>
      <trkpt lat="48.03866" lon="-4.7315">
        <ele>63.58</ele>
        <time>2017-05-27T11:48:12Z</time>
      </trkpt>
      <trkpt lat="48.03869" lon="-4.73162">
        <ele>63.1</ele>
        <time>2017-05-27T11:48:38Z</time>
      </trkpt>
      <trkpt lat="48.03869" lon="-4.73163">
        <ele>63.58</ele>
        <time>2017-05-27T11:49:09Z</time>
      </trkpt>
      <trkpt lat="48.03871" lon="-4.73174">
        <ele>63.1</ele>
        <time>2017-05-27T11:49:26Z</time>
      </trkpt>
      <trkpt lat="48.03854" lon="-4.73151">
        <ele>62.14</ele>
        <time>2017-05-27T11:49:43Z</time>
      </trkpt>
      <trkpt lat="48.03849" lon="-4.73152">
        <ele>63.1</ele>
        <time>2017-05-27T11:50:03Z</time>
      </trkpt>
      <trkpt lat="48.03852" lon="-4.73155">
        <ele>64.55</ele>
        <time>2017-05-27T11:50:26Z</time>
      </trkpt>
      <trkpt lat="48.03858" lon="-4.73162">
        <ele>66.95</ele>
        <time>2017-05-27T11:50:54Z</time>
      </trkpt>
      <trkpt lat="48.03862" lon="-4.73159">
        <ele>66.47</ele>
        <time>2017-05-27T11:51:22Z</time>
      </trkpt>
      <trkpt lat="48.03865" lon="-4.73154">
        <ele>65.51</ele>
        <time>2017-05-27T11:51:44Z</time>
      </trkpt>
      <trkpt lat="48.03864" lon="-4.73152">
        <ele>65.51</ele>
        <time>2017-05-27T11:52:07Z</time>
      </trkpt>
      <trkpt lat="48.03863" lon="-4.73151">
        <ele>65.51</ele>
        <time>2017-05-27T11:52:13Z</time>
      </trkpt>
      <trkpt lat="48.03862" lon="-4.73161">
        <ele>64.07</ele>
        <time>2017-05-27T11:52:26Z</time>
      </trkpt>
      <trkpt lat="48.03862" lon="-4.73164">
        <ele>63.58</ele>
        <time>2017-05-27T11:52:28Z</time>
      </trkpt>
      <trkpt lat="48.03851" lon="-4.73183">
        <ele>62.62</ele>
        <time>2017-05-27T11:52:40Z</time>
      </trkpt>
      <trkpt lat="48.0385" lon="-4.73183">
        <ele>62.62</ele>
        <time>2017-05-27T11:52:41Z</time>
      </trkpt>
      <trkpt lat="48.03841" lon="-4.73179">
        <ele>63.1</ele>
        <time>2017-05-27T11:52:50Z</time>
      </trkpt>
      <trkpt lat="48.03836" lon="-4.73175">
        <ele>62.62</ele>
        <time>2017-05-27T11:52:55Z</time>
      </trkpt>
      <trkpt lat="48.03829" lon="-4.73173">
        <ele>62.62</ele>
        <time>2017-05-27T11:52:59Z</time>
      </trkpt>
      <trkpt lat="48.03826" lon="-4.73172">
        <ele>62.14</ele>
        <time>2017-05-27T11:53:02Z</time>
      </trkpt>
      <trkpt lat="48.03821" lon="-4.7317">
        <ele>60.22</ele>
        <time>2017-05-27T11:53:08Z</time>
      </trkpt>
      <trkpt lat="48.03808" lon="-4.73171">
        <ele>58.78</ele>
        <time>2017-05-27T11:53:17Z</time>
      </trkpt>
      <trkpt lat="48.03796" lon="-4.73171">
        <ele>57.82</ele>
        <time>2017-05-27T11:53:27Z</time>
      </trkpt>
      <trkpt lat="48.03783" lon="-4.73164">
        <ele>58.3</ele>
        <time>2017-05-27T11:53:38Z</time>
      </trkpt>
      <trkpt lat="48.03772" lon="-4.73143">
        <ele>57.34</ele>
        <time>2017-05-27T11:53:50Z</time>
      </trkpt>
      <trkpt lat="48.03763" lon="-4.73121">
        <ele>55.89</ele>
        <time>2017-05-27T11:54:05Z</time>
      </trkpt>
      <trkpt lat="48.03753" lon="-4.73096">
        <ele>57.34</ele>
        <time>2017-05-27T11:54:18Z</time>
      </trkpt>
      <trkpt lat="48.03752" lon="-4.73093">
        <ele>57.82</ele>
        <time>2017-05-27T11:54:21Z</time>
      </trkpt>
      <trkpt lat="48.03745" lon="-4.7308">
        <ele>58.78</ele>
        <time>2017-05-27T11:54:28Z</time>
      </trkpt>
      <trkpt lat="48.03733" lon="-4.73062">
        <ele>57.82</ele>
        <time>2017-05-27T11:54:41Z</time>
      </trkpt>
      <trkpt lat="48.03731" lon="-4.73045">
        <ele>58.78</ele>
        <time>2017-05-27T11:54:51Z</time>
      </trkpt>
      <trkpt lat="48.03718" lon="-4.73026">
        <ele>59.74</ele>
        <time>2017-05-27T11:55:02Z</time>
      </trkpt>
      <trkpt lat="48.03711" lon="-4.73017">
        <ele>60.22</ele>
        <time>2017-05-27T11:55:12Z</time>
      </trkpt>
      <trkpt lat="48.03707" lon="-4.73015">
        <ele>60.7</ele>
        <time>2017-05-27T11:55:15Z</time>
      </trkpt>
      <trkpt lat="48.0369" lon="-4.73001">
        <ele>61.18</ele>
        <time>2017-05-27T11:55:27Z</time>
      </trkpt>
      <trkpt lat="48.03679" lon="-4.72983">
        <ele>63.58</ele>
        <time>2017-05-27T11:55:41Z</time>
      </trkpt>
      <trkpt lat="48.03676" lon="-4.72977">
        <ele>63.1</ele>
        <time>2017-05-27T11:55:44Z</time>
      </trkpt>
      <trkpt lat="48.03662" lon="-4.72956">
        <ele>62.62</ele>
        <time>2017-05-27T11:55:58Z</time>
      </trkpt>
      <trkpt lat="48.03651" lon="-4.7293">
        <ele>61.66</ele>
        <time>2017-05-27T11:56:11Z</time>
      </trkpt>
      <trkpt lat="48.03643" lon="-4.72911">
        <ele>59.74</ele>
        <time>2017-05-27T11:56:24Z</time>
      </trkpt>
      <trkpt lat="48.03629" lon="-4.72882">
        <ele>60.7</ele>
        <time>2017-05-27T11:56:42Z</time>
      </trkpt>
      <trkpt lat="48.03618" lon="-4.72851">
        <ele>61.18</ele>
        <time>2017-05-27T11:56:59Z</time>
      </trkpt>
      <trkpt lat="48.03613" lon="-4.72834">
        <ele>64.07</ele>
        <time>2017-05-27T11:57:09Z</time>
      </trkpt>
      <trkpt lat="48.03604" lon="-4.72822">
        <ele>64.07</ele>
        <time>2017-05-27T11:57:20Z</time>
      </trkpt>
      <trkpt lat="48.03598" lon="-4.72816">
        <ele>63.1</ele>
        <time>2017-05-27T11:57:26Z</time>
      </trkpt>
      <trkpt lat="48.03594" lon="-4.72812">
        <ele>62.14</ele>
        <time>2017-05-27T11:57:32Z</time>
      </trkpt>
      <trkpt lat="48.03592" lon="-4.7281">
        <ele>61.18</ele>
        <time>2017-05-27T11:57:35Z</time>
      </trkpt>
      <trkpt lat="48.03587" lon="-4.72805">
        <ele>59.26</ele>
        <time>2017-05-27T11:57:42Z</time>
      </trkpt>
      <trkpt lat="48.03585" lon="-4.72803">
        <ele>57.82</ele>
        <time>2017-05-27T11:57:45Z</time>
      </trkpt>
      <trkpt lat="48.03582" lon="-4.72799">
        <ele>56.37</ele>
        <time>2017-05-27T11:57:49Z</time>
      </trkpt>
      <trkpt lat="48.03579" lon="-4.72796">
        <ele>56.37</ele>
        <time>2017-05-27T11:57:55Z</time>
      </trkpt>
      <trkpt lat="48.03576" lon="-4.72789">
        <ele>54.93</ele>
        <time>2017-05-27T11:57:59Z</time>
      </trkpt>
      <trkpt lat="48.03572" lon="-4.72786">
        <ele>53.97</ele>
        <time>2017-05-27T11:58:03Z</time>
      </trkpt>
      <trkpt lat="48.03563" lon="-4.72772">
        <ele>53.01</ele>
        <time>2017-05-27T11:58:13Z</time>
      </trkpt>
      <trkpt lat="48.03548" lon="-4.72756">
        <ele>52.53</ele>
        <time>2017-05-27T11:58:27Z</time>
      </trkpt>
      <trkpt lat="48.03538" lon="-4.72746">
        <ele>51.57</ele>
        <time>2017-05-27T11:58:34Z</time>
      </trkpt>
      <trkpt lat="48.03537" lon="-4.72745">
        <ele>51.57</ele>
        <time>2017-05-27T11:58:36Z</time>
      </trkpt>
      <trkpt lat="48.03534" lon="-4.72746">
        <ele>51.57</ele>
        <time>2017-05-27T11:58:39Z</time>
      </trkpt>
      <trkpt lat="48.03528" lon="-4.72742">
        <ele>51.57</ele>
        <time>2017-05-27T11:58:44Z</time>
      </trkpt>
      <trkpt lat="48.03526" lon="-4.72743">
        <ele>50.61</ele>
        <time>2017-05-27T11:59:02Z</time>
      </trkpt>
      <trkpt lat="48.03519" lon="-4.72739">
        <ele>50.13</ele>
        <time>2017-05-27T11:59:11Z</time>
      </trkpt>
      <trkpt lat="48.03508" lon="-4.72734">
        <ele>50.61</ele>
        <time>2017-05-27T11:59:17Z</time>
      </trkpt>
      <trkpt lat="48.03499" lon="-4.72729">
        <ele>49.16</ele>
        <time>2017-05-27T11:59:27Z</time>
      </trkpt>
      <trkpt lat="48.03492" lon="-4.72721">
        <ele>48.2</ele>
        <time>2017-05-27T11:59:34Z</time>
      </trkpt>
      <trkpt lat="48.03476" lon="-4.72713">
        <ele>44.84</ele>
        <time>2017-05-27T11:59:48Z</time>
      </trkpt>
      <trkpt lat="48.03475" lon="-4.72713">
        <ele>44.84</ele>
        <time>2017-05-27T11:59:49Z</time>
      </trkpt>
      <trkpt lat="48.03467" lon="-4.72708">
        <ele>43.88</ele>
        <time>2017-05-27T11:59:54Z</time>
      </trkpt>
      <trkpt lat="48.03459" lon="-4.72702">
        <ele>42.92</ele>
        <time>2017-05-27T11:59:59Z</time>
      </trkpt>
      <trkpt lat="48.03444" lon="-4.72694">
        <ele>39.55</ele>
        <time>2017-05-27T12:00:12Z</time>
      </trkpt>
      <trkpt lat="48.03445" lon="-4.72697">
        <ele>38.59</ele>
        <time>2017-05-27T12:00:37Z</time>
      </trkpt>
      <trkpt lat="48.03442" lon="-4.72697">
        <ele>38.59</ele>
        <time>2017-05-27T12:00:56Z</time>
      </trkpt>
      <trkpt lat="48.03439" lon="-4.72695">
        <ele>38.59</ele>
        <time>2017-05-27T12:00:59Z</time>
      </trkpt>
      <trkpt lat="48.03435" lon="-4.72692">
        <ele>39.07</ele>
        <time>2017-05-27T12:01:02Z</time>
      </trkpt>
      <trkpt lat="48.03433" lon="-4.72692">
        <ele>39.07</ele>
        <time>2017-05-27T12:01:05Z</time>
      </trkpt>
      <trkpt lat="48.03421" lon="-4.72687">
        <ele>38.59</ele>
        <time>2017-05-27T12:01:13Z</time>
      </trkpt>
      <trkpt lat="48.03414" lon="-4.72684">
        <ele>39.55</ele>
        <time>2017-05-27T12:01:17Z</time>
      </trkpt>
      <trkpt lat="48.03408" lon="-4.72679">
        <ele>40.51</ele>
        <time>2017-05-27T12:01:21Z</time>
      </trkpt>
      <trkpt lat="48.03399" lon="-4.72673">
        <ele>40.51</ele>
        <time>2017-05-27T12:01:31Z</time>
      </trkpt>
      <trkpt lat="48.03389" lon="-4.72668">
        <ele>40.51</ele>
        <time>2017-05-27T12:01:40Z</time>
      </trkpt>
      <trkpt lat="48.03379" lon="-4.72662">
        <ele>41.47</ele>
        <time>2017-05-27T12:01:45Z</time>
      </trkpt>
      <trkpt lat="48.0337" lon="-4.72653">
        <ele>41.95</ele>
        <time>2017-05-27T12:01:51Z</time>
      </trkpt>
      <trkpt lat="48.03363" lon="-4.72643">
        <ele>42.44</ele>
        <time>2017-05-27T12:02:02Z</time>
      </trkpt>
      <trkpt lat="48.03362" lon="-4.72638">
        <ele>42.44</ele>
        <time>2017-05-27T12:02:05Z</time>
      </trkpt>
      <trkpt lat="48.0335" lon="-4.72618">
        <ele>45.32</ele>
        <time>2017-05-27T12:02:18Z</time>
      </trkpt>
      <trkpt lat="48.03348" lon="-4.72606">
        <ele>46.28</ele>
        <time>2017-05-27T12:02:25Z</time>
      </trkpt>
      <trkpt lat="48.03344" lon="-4.7258">
        <ele>48.68</ele>
        <time>2017-05-27T12:02:37Z</time>
      </trkpt>
      <trkpt lat="48.03343" lon="-4.72566">
        <ele>48.68</ele>
        <time>2017-05-27T12:02:52Z</time>
      </trkpt>
      <trkpt lat="48.03343" lon="-4.72563">
        <ele>49.16</ele>
        <time>2017-05-27T12:03:12Z</time>
      </trkpt>
      <trkpt lat="48.03343" lon="-4.72561">
        <ele>49.16</ele>
        <time>2017-05-27T12:03:29Z</time>
      </trkpt>
      <trkpt lat="48.03344" lon="-4.72561">
        <ele>49.65</ele>
        <time>2017-05-27T12:03:56Z</time>
      </trkpt>
      <trkpt lat="48.03344" lon="-4.72561">
        <ele>49.65</ele>
        <time>2017-05-27T12:04:17Z</time>
      </trkpt>
      <trkpt lat="48.03344" lon="-4.72561">
        <ele>49.65</ele>
        <time>2017-05-27T12:04:24Z</time>
      </trkpt>
      <trkpt lat="48.03344" lon="-4.72549">
        <ele>48.2</ele>
        <time>2017-05-27T12:04:31Z</time>
      </trkpt>
      <trkpt lat="48.03345" lon="-4.72539">
        <ele>49.16</ele>
        <time>2017-05-27T12:04:46Z</time>
      </trkpt>
      <trkpt lat="48.03345" lon="-4.72548">
        <ele>49.16</ele>
        <time>2017-05-27T12:05:01Z</time>
      </trkpt>
      <trkpt lat="48.0334" lon="-4.72557">
        <ele>48.68</ele>
        <time>2017-05-27T12:05:14Z</time>
      </trkpt>
      <trkpt lat="48.03338" lon="-4.72555">
        <ele>48.2</ele>
        <time>2017-05-27T12:05:18Z</time>
      </trkpt>
      <trkpt lat="48.03337" lon="-4.7254">
        <ele>45.8</ele>
        <time>2017-05-27T12:05:28Z</time>
      </trkpt>
      <trkpt lat="48.03337" lon="-4.7253">
        <ele>44.36</ele>
        <time>2017-05-27T12:05:35Z</time>
      </trkpt>
      <trkpt lat="48.03338" lon="-4.72523">
        <ele>43.88</ele>
        <time>2017-05-27T12:05:39Z</time>
      </trkpt>
      <trkpt lat="48.03338" lon="-4.72516">
        <ele>43.88</ele>
        <time>2017-05-27T12:05:45Z</time>
      </trkpt>
      <trkpt lat="48.0334" lon="-4.72503">
        <ele>44.84</ele>
        <time>2017-05-27T12:05:56Z</time>
      </trkpt>
      <trkpt lat="48.03341" lon="-4.72488">
        <ele>45.32</ele>
        <time>2017-05-27T12:06:04Z</time>
      </trkpt>
      <trkpt lat="48.03344" lon="-4.72479">
        <ele>45.8</ele>
        <time>2017-05-27T12:06:10Z</time>
      </trkpt>
      <trkpt lat="48.03343" lon="-4.72457">
        <ele>40.03</ele>
        <time>2017-05-27T12:06:23Z</time>
      </trkpt>
      <trkpt lat="48.03342" lon="-4.72452">
        <ele>39.07</ele>
        <time>2017-05-27T12:06:28Z</time>
      </trkpt>
      <trkpt lat="48.03342" lon="-4.72439">
        <ele>38.11</ele>
        <time>2017-05-27T12:06:33Z</time>
      </trkpt>
      <trkpt lat="48.03342" lon="-4.72436">
        <ele>37.63</ele>
        <time>2017-05-27T12:06:35Z</time>
      </trkpt>
      <trkpt lat="48.03342" lon="-4.72422">
        <ele>34.74</ele>
        <time>2017-05-27T12:06:45Z</time>
      </trkpt>
      <trkpt lat="48.03356" lon="-4.72416">
        <ele>34.26</ele>
        <time>2017-05-27T12:06:56Z</time>
      </trkpt>
      <trkpt lat="48.03359" lon="-4.72413">
        <ele>35.23</ele>
        <time>2017-05-27T12:06:58Z</time>
      </trkpt>
      <trkpt lat="48.03369" lon="-4.724">
        <ele>37.63</ele>
        <time>2017-05-27T12:07:07Z</time>
      </trkpt>
      <trkpt lat="48.03378" lon="-4.7239">
        <ele>39.55</ele>
        <time>2017-05-27T12:07:14Z</time>
      </trkpt>
      <trkpt lat="48.03397" lon="-4.72371">
        <ele>46.28</ele>
        <time>2017-05-27T12:07:27Z</time>
      </trkpt>
      <trkpt lat="48.034" lon="-4.72363">
        <ele>46.28</ele>
        <time>2017-05-27T12:07:31Z</time>
      </trkpt>
      <trkpt lat="48.03402" lon="-4.72359">
        <ele>46.28</ele>
        <time>2017-05-27T12:07:33Z</time>
      </trkpt>
      <trkpt lat="48.03412" lon="-4.72342">
        <ele>46.76</ele>
        <time>2017-05-27T12:07:41Z</time>
      </trkpt>
      <trkpt lat="48.0342" lon="-4.72322">
        <ele>45.8</ele>
        <time>2017-05-27T12:07:51Z</time>
      </trkpt>
      <trkpt lat="48.0342" lon="-4.72316">
        <ele>45.32</ele>
        <time>2017-05-27T12:07:56Z</time>
      </trkpt>
      <trkpt lat="48.03424" lon="-4.72299">
        <ele>43.88</ele>
        <time>2017-05-27T12:08:07Z</time>
      </trkpt>
      <trkpt lat="48.03426" lon="-4.72293">
        <ele>43.88</ele>
        <time>2017-05-27T12:08:10Z</time>
      </trkpt>
      <trkpt lat="48.03431" lon="-4.72276">
        <ele>42.92</ele>
        <time>2017-05-27T12:08:19Z</time>
      </trkpt>
      <trkpt lat="48.03436" lon="-4.72261">
        <ele>41.95</ele>
        <time>2017-05-27T12:08:26Z</time>
      </trkpt>
      <trkpt lat="48.03441" lon="-4.72246">
        <ele>40.03</ele>
        <time>2017-05-27T12:08:32Z</time>
      </trkpt>
      <trkpt lat="48.03441" lon="-4.72219">
        <ele>35.71</ele>
        <time>2017-05-27T12:08:48Z</time>
      </trkpt>
      <trkpt lat="48.03441" lon="-4.72212">
        <ele>34.74</ele>
        <time>2017-05-27T12:08:53Z</time>
      </trkpt>
      <trkpt lat="48.03437" lon="-4.72203">
        <ele>34.26</ele>
        <time>2017-05-27T12:08:59Z</time>
      </trkpt>
      <trkpt lat="48.03432" lon="-4.72184">
        <ele>34.26</ele>
        <time>2017-05-27T12:09:13Z</time>
      </trkpt>
      <trkpt lat="48.03431" lon="-4.72171">
        <ele>34.26</ele>
        <time>2017-05-27T12:09:19Z</time>
      </trkpt>
      <trkpt lat="48.03425" lon="-4.7215">
        <ele>33.3</ele>
        <time>2017-05-27T12:09:32Z</time>
      </trkpt>
      <trkpt lat="48.03425" lon="-4.72141">
        <ele>33.78</ele>
        <time>2017-05-27T12:09:38Z</time>
      </trkpt>
      <trkpt lat="48.03425" lon="-4.72134">
        <ele>33.78</ele>
        <time>2017-05-27T12:09:41Z</time>
      </trkpt>
      <trkpt lat="48.03424" lon="-4.72112">
        <ele>34.26</ele>
        <time>2017-05-27T12:09:54Z</time>
      </trkpt>
      <trkpt lat="48.03428" lon="-4.72107">
        <ele>36.19</ele>
        <time>2017-05-27T12:10:01Z</time>
      </trkpt>
      <trkpt lat="48.03431" lon="-4.72099">
        <ele>39.55</ele>
        <time>2017-05-27T12:10:16Z</time>
      </trkpt>
      <trkpt lat="48.03434" lon="-4.72091">
        <ele>41.47</ele>
        <time>2017-05-27T12:10:26Z</time>
      </trkpt>
      <trkpt lat="48.03437" lon="-4.72068">
        <ele>43.4</ele>
        <time>2017-05-27T12:10:38Z</time>
      </trkpt>
      <trkpt lat="48.03437" lon="-4.72064">
        <ele>43.88</ele>
        <time>2017-05-27T12:10:40Z</time>
      </trkpt>
      <trkpt lat="48.03433" lon="-4.72047">
        <ele>44.36</ele>
        <time>2017-05-27T12:10:54Z</time>
      </trkpt>
      <trkpt lat="48.03431" lon="-4.7204">
        <ele>44.36</ele>
        <time>2017-05-27T12:11:18Z</time>
      </trkpt>
      <trkpt lat="48.0343" lon="-4.7204">
        <ele>43.4</ele>
        <time>2017-05-27T12:11:52Z</time>
      </trkpt>
      <trkpt lat="48.0343" lon="-4.72037">
        <ele>42.44</ele>
        <time>2017-05-27T12:12:09Z</time>
      </trkpt>
      <trkpt lat="48.0343" lon="-4.72036">
        <ele>41.95</ele>
        <time>2017-05-27T12:12:24Z</time>
      </trkpt>
      <trkpt lat="48.03433" lon="-4.72029">
        <ele>40.51</ele>
        <time>2017-05-27T12:12:28Z</time>
      </trkpt>
      <trkpt lat="48.0344" lon="-4.7201">
        <ele>39.07</ele>
        <time>2017-05-27T12:12:41Z</time>
      </trkpt>
      <trkpt lat="48.0345" lon="-4.71996">
        <ele>39.55</ele>
        <time>2017-05-27T12:12:52Z</time>
      </trkpt>
      <trkpt lat="48.03453" lon="-4.7199">
        <ele>39.55</ele>
        <time>2017-05-27T12:12:57Z</time>
      </trkpt>
      <trkpt lat="48.0346" lon="-4.71973">
        <ele>39.07</ele>
        <time>2017-05-27T12:13:07Z</time>
      </trkpt>
      <trkpt lat="48.03464" lon="-4.71957">
        <ele>38.59</ele>
        <time>2017-05-27T12:13:17Z</time>
      </trkpt>
      <trkpt lat="48.03465" lon="-4.71943">
        <ele>38.11</ele>
        <time>2017-05-27T12:13:24Z</time>
      </trkpt>
      <trkpt lat="48.03461" lon="-4.71923">
        <ele>39.55</ele>
        <time>2017-05-27T12:13:35Z</time>
      </trkpt>
      <trkpt lat="48.03458" lon="-4.71906">
        <ele>40.03</ele>
        <time>2017-05-27T12:13:43Z</time>
      </trkpt>
      <trkpt lat="48.03451" lon="-4.71884">
        <ele>40.99</ele>
        <time>2017-05-27T12:13:55Z</time>
      </trkpt>
      <trkpt lat="48.03446" lon="-4.71869">
        <ele>40.51</ele>
        <time>2017-05-27T12:14:04Z</time>
      </trkpt>
      <trkpt lat="48.03443" lon="-4.71861">
        <ele>40.51</ele>
        <time>2017-05-27T12:14:08Z</time>
      </trkpt>
      <trkpt lat="48.03436" lon="-4.71843">
        <ele>40.99</ele>
        <time>2017-05-27T12:14:19Z</time>
      </trkpt>
      <trkpt lat="48.03435" lon="-4.71832">
        <ele>40.99</ele>
        <time>2017-05-27T12:14:24Z</time>
      </trkpt>
      <trkpt lat="48.03433" lon="-4.71825">
        <ele>40.03</ele>
        <time>2017-05-27T12:14:29Z</time>
      </trkpt>
      <trkpt lat="48.03431" lon="-4.71814">
        <ele>40.03</ele>
        <time>2017-05-27T12:14:35Z</time>
      </trkpt>
      <trkpt lat="48.03426" lon="-4.71792">
        <ele>39.55</ele>
        <time>2017-05-27T12:14:47Z</time>
      </trkpt>
      <trkpt lat="48.03425" lon="-4.71772">
        <ele>40.51</ele>
        <time>2017-05-27T12:14:57Z</time>
      </trkpt>
      <trkpt lat="48.03418" lon="-4.71759">
        <ele>40.03</ele>
        <time>2017-05-27T12:15:05Z</time>
      </trkpt>
      <trkpt lat="48.03409" lon="-4.71745">
        <ele>40.99</ele>
        <time>2017-05-27T12:15:16Z</time>
      </trkpt>
      <trkpt lat="48.03406" lon="-4.71734">
        <ele>41.95</ele>
        <time>2017-05-27T12:15:21Z</time>
      </trkpt>
      <trkpt lat="48.03407" lon="-4.71729">
        <ele>41.95</ele>
        <time>2017-05-27T12:15:28Z</time>
      </trkpt>
      <trkpt lat="48.03404" lon="-4.71721">
        <ele>41.47</ele>
        <time>2017-05-27T12:15:34Z</time>
      </trkpt>
      <trkpt lat="48.03394" lon="-4.71704">
        <ele>40.03</ele>
        <time>2017-05-27T12:15:44Z</time>
      </trkpt>
      <trkpt lat="48.03383" lon="-4.71683">
        <ele>38.59</ele>
        <time>2017-05-27T12:15:56Z</time>
      </trkpt>
      <trkpt lat="48.03377" lon="-4.71677">
        <ele>38.11</ele>
        <time>2017-05-27T12:16:02Z</time>
      </trkpt>
      <trkpt lat="48.03374" lon="-4.71675">
        <ele>39.55</ele>
        <time>2017-05-27T12:16:05Z</time>
      </trkpt>
      <trkpt lat="48.03374" lon="-4.71666">
        <ele>40.51</ele>
        <time>2017-05-27T12:16:10Z</time>
      </trkpt>
      <trkpt lat="48.03372" lon="-4.71671">
        <ele>41.95</ele>
        <time>2017-05-27T12:16:14Z</time>
      </trkpt>
      <trkpt lat="48.03366" lon="-4.71669">
        <ele>42.44</ele>
        <time>2017-05-27T12:16:19Z</time>
      </trkpt>
      <trkpt lat="48.03365" lon="-4.71667">
        <ele>42.92</ele>
        <time>2017-05-27T12:16:21Z</time>
      </trkpt>
      <trkpt lat="48.03363" lon="-4.71665">
        <ele>42.92</ele>
        <time>2017-05-27T12:16:23Z</time>
      </trkpt>
      <trkpt lat="48.03357" lon="-4.71662">
        <ele>43.4</ele>
        <time>2017-05-27T12:16:28Z</time>
      </trkpt>
      <trkpt lat="48.03351" lon="-4.71655">
        <ele>43.4</ele>
        <time>2017-05-27T12:16:34Z</time>
      </trkpt>
      <trkpt lat="48.03347" lon="-4.7165">
        <ele>43.88</ele>
        <time>2017-05-27T12:16:39Z</time>
      </trkpt>
      <trkpt lat="48.0334" lon="-4.7165">
        <ele>42.44</ele>
        <time>2017-05-27T12:16:55Z</time>
      </trkpt>
      <trkpt lat="48.03341" lon="-4.71649">
        <ele>40.99</ele>
        <time>2017-05-27T12:17:25Z</time>
      </trkpt>
      <trkpt lat="48.03341" lon="-4.71647">
        <ele>39.55</ele>
        <time>2017-05-27T12:17:44Z</time>
      </trkpt>
      <trkpt lat="48.03341" lon="-4.71648">
        <ele>39.07</ele>
        <time>2017-05-27T12:18:08Z</time>
      </trkpt>
      <trkpt lat="48.03341" lon="-4.71648">
        <ele>38.59</ele>
        <time>2017-05-27T12:18:27Z</time>
      </trkpt>
      <trkpt lat="48.03343" lon="-4.71639">
        <ele>38.59</ele>
        <time>2017-05-27T12:18:49Z</time>
      </trkpt>
      <trkpt lat="48.03343" lon="-4.71636">
        <ele>38.59</ele>
        <time>2017-05-27T12:18:51Z</time>
      </trkpt>
      <trkpt lat="48.03342" lon="-4.71631">
        <ele>37.63</ele>
        <time>2017-05-27T12:18:55Z</time>
      </trkpt>
      <trkpt lat="48.03347" lon="-4.71618">
        <ele>35.23</ele>
        <time>2017-05-27T12:19:07Z</time>
      </trkpt>
      <trkpt lat="48.03348" lon="-4.71614">
        <ele>34.26</ele>
        <time>2017-05-27T12:19:14Z</time>
      </trkpt>
      <trkpt lat="48.03347" lon="-4.71609">
        <ele>32.34</ele>
        <time>2017-05-27T12:19:20Z</time>
      </trkpt>
      <trkpt lat="48.03348" lon="-4.71606">
        <ele>31.86</ele>
        <time>2017-05-27T12:19:22Z</time>
      </trkpt>
      <trkpt lat="48.03355" lon="-4.71589">
        <ele>29.46</ele>
        <time>2017-05-27T12:19:35Z</time>
      </trkpt>
      <trkpt lat="48.03356" lon="-4.71588">
        <ele>28.98</ele>
        <time>2017-05-27T12:19:37Z</time>
      </trkpt>
      <trkpt lat="48.03359" lon="-4.71582">
        <ele>28.5</ele>
        <time>2017-05-27T12:19:41Z</time>
      </trkpt>
      <trkpt lat="48.03367" lon="-4.71563">
        <ele>24.17</ele>
        <time>2017-05-27T12:19:52Z</time>
      </trkpt>
      <trkpt lat="48.03367" lon="-4.71552">
        <ele>22.73</ele>
        <time>2017-05-27T12:19:59Z</time>
      </trkpt>
      <trkpt lat="48.03369" lon="-4.71542">
        <ele>22.73</ele>
        <time>2017-05-27T12:20:08Z</time>
      </trkpt>
      <trkpt lat="48.03374" lon="-4.71533">
        <ele>23.69</ele>
        <time>2017-05-27T12:20:15Z</time>
      </trkpt>
      <trkpt lat="48.03382" lon="-4.71511">
        <ele>23.69</ele>
        <time>2017-05-27T12:20:26Z</time>
      </trkpt>
      <trkpt lat="48.03385" lon="-4.71502">
        <ele>23.21</ele>
        <time>2017-05-27T12:20:39Z</time>
      </trkpt>
      <trkpt lat="48.03391" lon="-4.71497">
        <ele>24.17</ele>
        <time>2017-05-27T12:20:53Z</time>
      </trkpt>
      <trkpt lat="48.03398" lon="-4.7149">
        <ele>25.61</ele>
        <time>2017-05-27T12:21:00Z</time>
      </trkpt>
      <trkpt lat="48.03415" lon="-4.71481">
        <ele>28.02</ele>
        <time>2017-05-27T12:21:14Z</time>
      </trkpt>
      <trkpt lat="48.0342" lon="-4.71464">
        <ele>29.46</ele>
        <time>2017-05-27T12:21:26Z</time>
      </trkpt>
      <trkpt lat="48.03417" lon="-4.71462">
        <ele>28.98</ele>
        <time>2017-05-27T12:21:45Z</time>
      </trkpt>
      <trkpt lat="48.03416" lon="-4.71461">
        <ele>28.5</ele>
        <time>2017-05-27T12:22:07Z</time>
      </trkpt>
      <trkpt lat="48.03416" lon="-4.71453">
        <ele>28.5</ele>
        <time>2017-05-27T12:22:18Z</time>
      </trkpt>
      <trkpt lat="48.03411" lon="-4.71434">
        <ele>29.46</ele>
        <time>2017-05-27T12:22:29Z</time>
      </trkpt>
      <trkpt lat="48.03411" lon="-4.71432">
        <ele>29.46</ele>
        <time>2017-05-27T12:22:30Z</time>
      </trkpt>
      <trkpt lat="48.03407" lon="-4.7141">
        <ele>29.94</ele>
        <time>2017-05-27T12:22:42Z</time>
      </trkpt>
      <trkpt lat="48.03407" lon="-4.71409">
        <ele>29.94</ele>
        <time>2017-05-27T12:22:43Z</time>
      </trkpt>
      <trkpt lat="48.03403" lon="-4.714">
        <ele>29.46</ele>
        <time>2017-05-27T12:22:48Z</time>
      </trkpt>
      <trkpt lat="48.03406" lon="-4.7139">
        <ele>28.5</ele>
        <time>2017-05-27T12:22:55Z</time>
      </trkpt>
      <trkpt lat="48.03404" lon="-4.71385">
        <ele>28.5</ele>
        <time>2017-05-27T12:22:57Z</time>
      </trkpt>
      <trkpt lat="48.03401" lon="-4.71375">
        <ele>26.09</ele>
        <time>2017-05-27T12:23:03Z</time>
      </trkpt>
      <trkpt lat="48.03399" lon="-4.71369">
        <ele>25.61</ele>
        <time>2017-05-27T12:23:07Z</time>
      </trkpt>
      <trkpt lat="48.03396" lon="-4.71364">
        <ele>25.61</ele>
        <time>2017-05-27T12:23:09Z</time>
      </trkpt>
      <trkpt lat="48.03392" lon="-4.71351">
        <ele>26.09</ele>
        <time>2017-05-27T12:23:18Z</time>
      </trkpt>
      <trkpt lat="48.03373" lon="-4.71313">
        <ele>24.17</ele>
        <time>2017-05-27T12:23:35Z</time>
      </trkpt>
      <trkpt lat="48.03369" lon="-4.71302">
        <ele>24.17</ele>
        <time>2017-05-27T12:23:44Z</time>
      </trkpt>
      <trkpt lat="48.03365" lon="-4.71287">
        <ele>25.61</ele>
        <time>2017-05-27T12:23:54Z</time>
      </trkpt>
      <trkpt lat="48.03366" lon="-4.71285">
        <ele>26.09</ele>
        <time>2017-05-27T12:23:57Z</time>
      </trkpt>
      <trkpt lat="48.03364" lon="-4.7128">
        <ele>26.09</ele>
        <time>2017-05-27T12:24:01Z</time>
      </trkpt>
      <trkpt lat="48.03367" lon="-4.71274">
        <ele>25.61</ele>
        <time>2017-05-27T12:24:07Z</time>
      </trkpt>
      <trkpt lat="48.03371" lon="-4.71271">
        <ele>25.61</ele>
        <time>2017-05-27T12:24:11Z</time>
      </trkpt>
      <trkpt lat="48.03381" lon="-4.71265">
        <ele>23.69</ele>
        <time>2017-05-27T12:24:22Z</time>
      </trkpt>
      <trkpt lat="48.03384" lon="-4.71264">
        <ele>23.21</ele>
        <time>2017-05-27T12:24:24Z</time>
      </trkpt>
      <trkpt lat="48.03404" lon="-4.71262">
        <ele>15.52</ele>
        <time>2017-05-27T12:24:39Z</time>
      </trkpt>
      <trkpt lat="48.03409" lon="-4.71263">
        <ele>15.04</ele>
        <time>2017-05-27T12:24:45Z</time>
      </trkpt>
      <trkpt lat="48.03414" lon="-4.71259">
        <ele>14.08</ele>
        <time>2017-05-27T12:24:49Z</time>
      </trkpt>
      <trkpt lat="48.03425" lon="-4.71261">
        <ele>9.75</ele>
        <time>2017-05-27T12:25:04Z</time>
      </trkpt>
      <trkpt lat="48.03427" lon="-4.71261">
        <ele>9.75</ele>
        <time>2017-05-27T12:25:38Z</time>
      </trkpt>
      <trkpt lat="48.03429" lon="-4.71261">
        <ele>9.75</ele>
        <time>2017-05-27T12:26:13Z</time>
      </trkpt>
      <trkpt lat="48.03429" lon="-4.71261">
        <ele>9.27</ele>
        <time>2017-05-27T12:26:14Z</time>
      </trkpt>
      <trkpt lat="48.03439" lon="-4.71261">
        <ele>7.83</ele>
        <time>2017-05-27T12:26:21Z</time>
      </trkpt>
      <trkpt lat="48.03446" lon="-4.71265">
        <ele>5.91</ele>
        <time>2017-05-27T12:26:31Z</time>
      </trkpt>
      <trkpt lat="48.03458" lon="-4.71251">
        <ele>5.91</ele>
        <time>2017-05-27T12:26:39Z</time>
      </trkpt>
      <trkpt lat="48.03456" lon="-4.71238">
        <ele>6.87</ele>
        <time>2017-05-27T12:26:45Z</time>
      </trkpt>
      <trkpt lat="48.03446" lon="-4.71224">
        <ele>8.79</ele>
        <time>2017-05-27T12:26:57Z</time>
      </trkpt>
      <trkpt lat="48.03436" lon="-4.71205">
        <ele>10.23</ele>
        <time>2017-05-27T12:27:10Z</time>
      </trkpt>
      <trkpt lat="48.03435" lon="-4.71196">
        <ele>9.75</ele>
        <time>2017-05-27T12:27:15Z</time>
      </trkpt>
      <trkpt lat="48.03425" lon="-4.71186">
        <ele>8.31</ele>
        <time>2017-05-27T12:27:22Z</time>
      </trkpt>
      <trkpt lat="48.03425" lon="-4.71181">
        <ele>8.31</ele>
        <time>2017-05-27T12:27:25Z</time>
      </trkpt>
      <trkpt lat="48.03428" lon="-4.71168">
        <ele>8.31</ele>
        <time>2017-05-27T12:27:34Z</time>
      </trkpt>
      <trkpt lat="48.03425" lon="-4.71162">
        <ele>9.27</ele>
        <time>2017-05-27T12:27:39Z</time>
      </trkpt>
      <trkpt lat="48.03417" lon="-4.71156">
        <ele>13.12</ele>
        <time>2017-05-27T12:27:52Z</time>
      </trkpt>
      <trkpt lat="48.03415" lon="-4.71156">
        <ele>14.56</ele>
        <time>2017-05-27T12:27:56Z</time>
      </trkpt>
      <trkpt lat="48.03406" lon="-4.7115">
        <ele>16.96</ele>
        <time>2017-05-27T12:28:09Z</time>
      </trkpt>
      <trkpt lat="48.03405" lon="-4.71149">
        <ele>17.44</ele>
        <time>2017-05-27T12:28:10Z</time>
      </trkpt>
      <trkpt lat="48.03401" lon="-4.7114">
        <ele>18.4</ele>
        <time>2017-05-27T12:28:26Z</time>
      </trkpt>
      <trkpt lat="48.03391" lon="-4.71129">
        <ele>19.84</ele>
        <time>2017-05-27T12:28:36Z</time>
      </trkpt>
      <trkpt lat="48.03372" lon="-4.71115">
        <ele>21.29</ele>
        <time>2017-05-27T12:28:52Z</time>
      </trkpt>
      <trkpt lat="48.03359" lon="-4.71098">
        <ele>22.25</ele>
        <time>2017-05-27T12:29:06Z</time>
      </trkpt>
      <trkpt lat="48.03357" lon="-4.7109">
        <ele>22.25</ele>
        <time>2017-05-27T12:29:10Z</time>
      </trkpt>
      <trkpt lat="48.03357" lon="-4.7108">
        <ele>23.21</ele>
        <time>2017-05-27T12:29:17Z</time>
      </trkpt>
      <trkpt lat="48.03358" lon="-4.7107">
        <ele>23.21</ele>
        <time>2017-05-27T12:29:23Z</time>
      </trkpt>
      <trkpt lat="48.03349" lon="-4.71043">
        <ele>25.13</ele>
        <time>2017-05-27T12:29:38Z</time>
      </trkpt>
      <trkpt lat="48.03339" lon="-4.71013">
        <ele>25.13</ele>
        <time>2017-05-27T12:29:53Z</time>
      </trkpt>
      <trkpt lat="48.03329" lon="-4.70988">
        <ele>25.13</ele>
        <time>2017-05-27T12:30:09Z</time>
      </trkpt>
      <trkpt lat="48.03319" lon="-4.70971">
        <ele>23.69</ele>
        <time>2017-05-27T12:30:22Z</time>
      </trkpt>
      <trkpt lat="48.03315" lon="-4.70961">
        <ele>24.17</ele>
        <time>2017-05-27T12:30:28Z</time>
      </trkpt>
      <trkpt lat="48.03308" lon="-4.70949">
        <ele>24.17</ele>
        <time>2017-05-27T12:30:36Z</time>
      </trkpt>
      <trkpt lat="48.03305" lon="-4.7094">
        <ele>23.21</ele>
        <time>2017-05-27T12:30:40Z</time>
      </trkpt>
      <trkpt lat="48.03302" lon="-4.70938">
        <ele>23.21</ele>
        <time>2017-05-27T12:30:42Z</time>
      </trkpt>
      <trkpt lat="48.033" lon="-4.70939">
        <ele>23.69</ele>
        <time>2017-05-27T12:30:45Z</time>
      </trkpt>
      <trkpt lat="48.03292" lon="-4.70926">
        <ele>28.02</ele>
        <time>2017-05-27T12:30:59Z</time>
      </trkpt>
      <trkpt lat="48.03289" lon="-4.70925">
        <ele>31.38</ele>
        <time>2017-05-27T12:31:07Z</time>
      </trkpt>
      <trkpt lat="48.03285" lon="-4.70919">
        <ele>36.67</ele>
        <time>2017-05-27T12:31:14Z</time>
      </trkpt>
      <trkpt lat="48.03271" lon="-4.70916">
        <ele>47.24</ele>
        <time>2017-05-27T12:31:24Z</time>
      </trkpt>
      <trkpt lat="48.03263" lon="-4.70909">
        <ele>49.65</ele>
        <time>2017-05-27T12:31:32Z</time>
      </trkpt>
      <trkpt lat="48.03257" lon="-4.70904">
        <ele>50.13</ele>
        <time>2017-05-27T12:31:36Z</time>
      </trkpt>
      <trkpt lat="48.03243" lon="-4.70898">
        <ele>51.09</ele>
        <time>2017-05-27T12:31:46Z</time>
      </trkpt>
      <trkpt lat="48.03225" lon="-4.70892">
        <ele>48.68</ele>
        <time>2017-05-27T12:32:00Z</time>
      </trkpt>
      <trkpt lat="48.03217" lon="-4.70889">
        <ele>47.24</ele>
        <time>2017-05-27T12:32:10Z</time>
      </trkpt>
      <trkpt lat="48.03216" lon="-4.70879">
        <ele>45.32</ele>
        <time>2017-05-27T12:32:17Z</time>
      </trkpt>
      <trkpt lat="48.03217" lon="-4.70851">
        <ele>44.36</ele>
        <time>2017-05-27T12:32:31Z</time>
      </trkpt>
      <trkpt lat="48.03218" lon="-4.70845">
        <ele>44.84</ele>
        <time>2017-05-27T12:32:34Z</time>
      </trkpt>
      <trkpt lat="48.03218" lon="-4.7084">
        <ele>45.32</ele>
        <time>2017-05-27T12:32:37Z</time>
      </trkpt>
      <trkpt lat="48.03216" lon="-4.70828">
        <ele>46.28</ele>
        <time>2017-05-27T12:32:43Z</time>
      </trkpt>
      <trkpt lat="48.03215" lon="-4.70813">
        <ele>47.24</ele>
        <time>2017-05-27T12:32:51Z</time>
      </trkpt>
      <trkpt lat="48.03212" lon="-4.70811">
        <ele>46.28</ele>
        <time>2017-05-27T12:33:08Z</time>
      </trkpt>
      <trkpt lat="48.03213" lon="-4.7081">
        <ele>46.28</ele>
        <time>2017-05-27T12:33:18Z</time>
      </trkpt>
      <trkpt lat="48.03215" lon="-4.70802">
        <ele>46.28</ele>
        <time>2017-05-27T12:33:23Z</time>
      </trkpt>
      <trkpt lat="48.03219" lon="-4.70774">
        <ele>45.8</ele>
        <time>2017-05-27T12:33:38Z</time>
      </trkpt>
      <trkpt lat="48.0321" lon="-4.70748">
        <ele>48.68</ele>
        <time>2017-05-27T12:33:53Z</time>
      </trkpt>
      <trkpt lat="48.03204" lon="-4.70722">
        <ele>46.76</ele>
        <time>2017-05-27T12:34:06Z</time>
      </trkpt>
      <trkpt lat="48.03201" lon="-4.70699">
        <ele>48.68</ele>
        <time>2017-05-27T12:34:20Z</time>
      </trkpt>
      <trkpt lat="48.03201" lon="-4.7069">
        <ele>50.13</ele>
        <time>2017-05-27T12:34:26Z</time>
      </trkpt>
      <trkpt lat="48.03194" lon="-4.70673">
        <ele>52.05</ele>
        <time>2017-05-27T12:34:38Z</time>
      </trkpt>
      <trkpt lat="48.03178" lon="-4.70655">
        <ele>52.53</ele>
        <time>2017-05-27T12:34:54Z</time>
      </trkpt>
      <trkpt lat="48.03176" lon="-4.70653">
        <ele>52.53</ele>
        <time>2017-05-27T12:34:56Z</time>
      </trkpt>
      <trkpt lat="48.03165" lon="-4.70642">
        <ele>52.53</ele>
        <time>2017-05-27T12:35:07Z</time>
      </trkpt>
      <trkpt lat="48.0315" lon="-4.70621">
        <ele>53.01</ele>
        <time>2017-05-27T12:35:24Z</time>
      </trkpt>
      <trkpt lat="48.03136" lon="-4.70601">
        <ele>52.05</ele>
        <time>2017-05-27T12:35:39Z</time>
      </trkpt>
      <trkpt lat="48.03134" lon="-4.70598">
        <ele>52.05</ele>
        <time>2017-05-27T12:35:42Z</time>
      </trkpt>
      <trkpt lat="48.03125" lon="-4.7058">
        <ele>51.09</ele>
        <time>2017-05-27T12:35:55Z</time>
      </trkpt>
      <trkpt lat="48.03121" lon="-4.70572">
        <ele>50.61</ele>
        <time>2017-05-27T12:36:01Z</time>
      </trkpt>
      <trkpt lat="48.03118" lon="-4.70568">
        <ele>50.61</ele>
        <time>2017-05-27T12:36:04Z</time>
      </trkpt>
      <trkpt lat="48.03116" lon="-4.70561">
        <ele>50.13</ele>
        <time>2017-05-27T12:36:08Z</time>
      </trkpt>
      <trkpt lat="48.03111" lon="-4.7055">
        <ele>47.72</ele>
        <time>2017-05-27T12:36:16Z</time>
      </trkpt>
      <trkpt lat="48.03102" lon="-4.7054">
        <ele>45.8</ele>
        <time>2017-05-27T12:36:26Z</time>
      </trkpt>
      <trkpt lat="48.03097" lon="-4.7053">
        <ele>44.84</ele>
        <time>2017-05-27T12:36:33Z</time>
      </trkpt>
      <trkpt lat="48.03095" lon="-4.70528">
        <ele>45.32</ele>
        <time>2017-05-27T12:36:35Z</time>
      </trkpt>
      <trkpt lat="48.03089" lon="-4.70518">
        <ele>45.32</ele>
        <time>2017-05-27T12:36:42Z</time>
      </trkpt>
      <trkpt lat="48.03079" lon="-4.70498">
        <ele>45.32</ele>
        <time>2017-05-27T12:36:55Z</time>
      </trkpt>
      <trkpt lat="48.03076" lon="-4.70482">
        <ele>44.84</ele>
        <time>2017-05-27T12:37:02Z</time>
      </trkpt>
      <trkpt lat="48.03072" lon="-4.70473">
        <ele>43.88</ele>
        <time>2017-05-27T12:37:09Z</time>
      </trkpt>
      <trkpt lat="48.0307" lon="-4.70458">
        <ele>43.88</ele>
        <time>2017-05-27T12:37:16Z</time>
      </trkpt>
      <trkpt lat="48.03066" lon="-4.70438">
        <ele>43.88</ele>
        <time>2017-05-27T12:37:26Z</time>
      </trkpt>
      <trkpt lat="48.03065" lon="-4.70428">
        <ele>45.32</ele>
        <time>2017-05-27T12:37:32Z</time>
      </trkpt>
      <trkpt lat="48.03063" lon="-4.70416">
        <ele>45.32</ele>
        <time>2017-05-27T12:37:38Z</time>
      </trkpt>
      <trkpt lat="48.03062" lon="-4.70405">
        <ele>45.8</ele>
        <time>2017-05-27T12:37:44Z</time>
      </trkpt>
      <trkpt lat="48.03057" lon="-4.70381">
        <ele>45.8</ele>
        <time>2017-05-27T12:37:59Z</time>
      </trkpt>
      <trkpt lat="48.03057" lon="-4.70379">
        <ele>45.8</ele>
        <time>2017-05-27T12:38:00Z</time>
      </trkpt>
      <trkpt lat="48.03053" lon="-4.70353">
        <ele>46.76</ele>
        <time>2017-05-27T12:38:15Z</time>
      </trkpt>
      <trkpt lat="48.03049" lon="-4.70341">
        <ele>46.28</ele>
        <time>2017-05-27T12:38:23Z</time>
      </trkpt>
      <trkpt lat="48.03048" lon="-4.70335">
        <ele>45.8</ele>
        <time>2017-05-27T12:38:27Z</time>
      </trkpt>
      <trkpt lat="48.03046" lon="-4.70329">
        <ele>46.76</ele>
        <time>2017-05-27T12:38:31Z</time>
      </trkpt>
      <trkpt lat="48.03045" lon="-4.70321">
        <ele>46.76</ele>
        <time>2017-05-27T12:38:36Z</time>
      </trkpt>
      <trkpt lat="48.03041" lon="-4.70312">
        <ele>45.8</ele>
        <time>2017-05-27T12:38:42Z</time>
      </trkpt>
      <trkpt lat="48.03032" lon="-4.70296">
        <ele>46.28</ele>
        <time>2017-05-27T12:38:53Z</time>
      </trkpt>
      <trkpt lat="48.03024" lon="-4.70279">
        <ele>46.76</ele>
        <time>2017-05-27T12:39:07Z</time>
      </trkpt>
      <trkpt lat="48.03023" lon="-4.70278">
        <ele>46.76</ele>
        <time>2017-05-27T12:39:08Z</time>
      </trkpt>
      <trkpt lat="48.03019" lon="-4.70269">
        <ele>47.24</ele>
        <time>2017-05-27T12:39:14Z</time>
      </trkpt>
      <trkpt lat="48.03015" lon="-4.70256">
        <ele>48.2</ele>
        <time>2017-05-27T12:39:21Z</time>
      </trkpt>
      <trkpt lat="48.03011" lon="-4.70248">
        <ele>49.16</ele>
        <time>2017-05-27T12:39:26Z</time>
      </trkpt>
      <trkpt lat="48.03005" lon="-4.70233">
        <ele>48.2</ele>
        <time>2017-05-27T12:39:37Z</time>
      </trkpt>
      <trkpt lat="48.03003" lon="-4.7023">
        <ele>48.2</ele>
        <time>2017-05-27T12:39:39Z</time>
      </trkpt>
      <trkpt lat="48.03" lon="-4.70226">
        <ele>48.68</ele>
        <time>2017-05-27T12:39:43Z</time>
      </trkpt>
      <trkpt lat="48.02993" lon="-4.70213">
        <ele>48.68</ele>
        <time>2017-05-27T12:39:52Z</time>
      </trkpt>
      <trkpt lat="48.02985" lon="-4.70192">
        <ele>50.13</ele>
        <time>2017-05-27T12:40:04Z</time>
      </trkpt>
      <trkpt lat="48.02974" lon="-4.70179">
        <ele>50.61</ele>
        <time>2017-05-27T12:40:18Z</time>
      </trkpt>
      <trkpt lat="48.02974" lon="-4.70178">
        <ele>50.61</ele>
        <time>2017-05-27T12:40:19Z</time>
      </trkpt>
      <trkpt lat="48.02968" lon="-4.70172">
        <ele>51.57</ele>
        <time>2017-05-27T12:40:27Z</time>
      </trkpt>
      <trkpt lat="48.02961" lon="-4.70167">
        <ele>51.09</ele>
        <time>2017-05-27T12:40:32Z</time>
      </trkpt>
      <trkpt lat="48.02947" lon="-4.70145">
        <ele>51.57</ele>
        <time>2017-05-27T12:40:48Z</time>
      </trkpt>
      <trkpt lat="48.0294" lon="-4.70137">
        <ele>50.13</ele>
        <time>2017-05-27T12:40:57Z</time>
      </trkpt>
      <trkpt lat="48.02939" lon="-4.7013">
        <ele>49.65</ele>
        <time>2017-05-27T12:41:01Z</time>
      </trkpt>
      <trkpt lat="48.02929" lon="-4.7011">
        <ele>51.09</ele>
        <time>2017-05-27T12:41:14Z</time>
      </trkpt>
      <trkpt lat="48.02926" lon="-4.70101">
        <ele>51.57</ele>
        <time>2017-05-27T12:41:20Z</time>
      </trkpt>
      <trkpt lat="48.02918" lon="-4.70086">
        <ele>51.57</ele>
        <time>2017-05-27T12:41:32Z</time>
      </trkpt>
      <trkpt lat="48.02911" lon="-4.70079">
        <ele>52.05</ele>
        <time>2017-05-27T12:41:38Z</time>
      </trkpt>
      <trkpt lat="48.02906" lon="-4.70065">
        <ele>51.09</ele>
        <time>2017-05-27T12:41:49Z</time>
      </trkpt>
      <trkpt lat="48.02903" lon="-4.70057">
        <ele>49.65</ele>
        <time>2017-05-27T12:41:57Z</time>
      </trkpt>
      <trkpt lat="48.0289" lon="-4.70036">
        <ele>48.68</ele>
        <time>2017-05-27T12:42:13Z</time>
      </trkpt>
      <trkpt lat="48.0289" lon="-4.70033">
        <ele>48.2</ele>
        <time>2017-05-27T12:42:16Z</time>
      </trkpt>
      <trkpt lat="48.02888" lon="-4.70023">
        <ele>47.24</ele>
        <time>2017-05-27T12:42:22Z</time>
      </trkpt>
      <trkpt lat="48.02887" lon="-4.70015">
        <ele>47.24</ele>
        <time>2017-05-27T12:42:27Z</time>
      </trkpt>
      <trkpt lat="48.02881" lon="-4.70005">
        <ele>45.32</ele>
        <time>2017-05-27T12:42:35Z</time>
      </trkpt>
      <trkpt lat="48.02867" lon="-4.69986">
        <ele>46.28</ele>
        <time>2017-05-27T12:42:49Z</time>
      </trkpt>
      <trkpt lat="48.02865" lon="-4.6998">
        <ele>46.76</ele>
        <time>2017-05-27T12:42:54Z</time>
      </trkpt>
      <trkpt lat="48.02856" lon="-4.69965">
        <ele>46.76</ele>
        <time>2017-05-27T12:43:08Z</time>
      </trkpt>
      <trkpt lat="48.02851" lon="-4.69958">
        <ele>46.28</ele>
        <time>2017-05-27T12:43:20Z</time>
      </trkpt>
      <trkpt lat="48.02849" lon="-4.69952">
        <ele>45.32</ele>
        <time>2017-05-27T12:43:24Z</time>
      </trkpt>
      <trkpt lat="48.02848" lon="-4.6994">
        <ele>44.84</ele>
        <time>2017-05-27T12:43:31Z</time>
      </trkpt>
      <trkpt lat="48.02838" lon="-4.69928">
        <ele>46.28</ele>
        <time>2017-05-27T12:43:38Z</time>
      </trkpt>
      <trkpt lat="48.02835" lon="-4.69922">
        <ele>47.24</ele>
        <time>2017-05-27T12:43:41Z</time>
      </trkpt>
      <trkpt lat="48.0282" lon="-4.69907">
        <ele>46.76</ele>
        <time>2017-05-27T12:43:54Z</time>
      </trkpt>
      <trkpt lat="48.02807" lon="-4.69895">
        <ele>46.76</ele>
        <time>2017-05-27T12:44:06Z</time>
      </trkpt>
      <trkpt lat="48.02803" lon="-4.69892">
        <ele>45.8</ele>
        <time>2017-05-27T12:44:09Z</time>
      </trkpt>
      <trkpt lat="48.02786" lon="-4.69876">
        <ele>43.4</ele>
        <time>2017-05-27T12:44:24Z</time>
      </trkpt>
      <trkpt lat="48.02775" lon="-4.69868">
        <ele>41.95</ele>
        <time>2017-05-27T12:44:31Z</time>
      </trkpt>
      <trkpt lat="48.02761" lon="-4.69852">
        <ele>40.03</ele>
        <time>2017-05-27T12:44:43Z</time>
      </trkpt>
      <trkpt lat="48.02754" lon="-4.69847">
        <ele>38.59</ele>
        <time>2017-05-27T12:44:50Z</time>
      </trkpt>
      <trkpt lat="48.02737" lon="-4.69826">
        <ele>37.15</ele>
        <time>2017-05-27T12:45:06Z</time>
      </trkpt>
      <trkpt lat="48.02722" lon="-4.69811">
        <ele>35.71</ele>
        <time>2017-05-27T12:45:20Z</time>
      </trkpt>
      <trkpt lat="48.02716" lon="-4.69806">
        <ele>35.71</ele>
        <time>2017-05-27T12:45:25Z</time>
      </trkpt>
      <trkpt lat="48.02705" lon="-4.69795">
        <ele>36.67</ele>
        <time>2017-05-27T12:45:36Z</time>
      </trkpt>
      <trkpt lat="48.02696" lon="-4.69786">
        <ele>37.15</ele>
        <time>2017-05-27T12:45:44Z</time>
      </trkpt>
      <trkpt lat="48.02681" lon="-4.6977">
        <ele>38.59</ele>
        <time>2017-05-27T12:45:59Z</time>
      </trkpt>
      <trkpt lat="48.02667" lon="-4.69753">
        <ele>35.71</ele>
        <time>2017-05-27T12:46:12Z</time>
      </trkpt>
      <trkpt lat="48.02655" lon="-4.69734">
        <ele>33.3</ele>
        <time>2017-05-27T12:46:26Z</time>
      </trkpt>
      <trkpt lat="48.02652" lon="-4.69731">
        <ele>33.78</ele>
        <time>2017-05-27T12:46:44Z</time>
      </trkpt>
      <trkpt lat="48.02651" lon="-4.69731">
        <ele>34.26</ele>
        <time>2017-05-27T12:47:05Z</time>
      </trkpt>
      <trkpt lat="48.02651" lon="-4.6973">
        <ele>34.26</ele>
        <time>2017-05-27T12:47:34Z</time>
      </trkpt>
      <trkpt lat="48.02651" lon="-4.6973">
        <ele>34.74</ele>
        <time>2017-05-27T12:48:03Z</time>
      </trkpt>
      <trkpt lat="48.02651" lon="-4.6973">
        <ele>35.23</ele>
        <time>2017-05-27T12:48:35Z</time>
      </trkpt>
      <trkpt lat="48.0265" lon="-4.6973">
        <ele>35.71</ele>
        <time>2017-05-27T12:49:09Z</time>
      </trkpt>
      <trkpt lat="48.0265" lon="-4.69731">
        <ele>36.19</ele>
        <time>2017-05-27T12:49:43Z</time>
      </trkpt>
      <trkpt lat="48.0265" lon="-4.69731">
        <ele>35.71</ele>
        <time>2017-05-27T12:50:02Z</time>
      </trkpt>
      <trkpt lat="48.0265" lon="-4.69731">
        <ele>35.71</ele>
        <time>2017-05-27T12:50:30Z</time>
      </trkpt>
      <trkpt lat="48.0265" lon="-4.6973">
        <ele>35.71</ele>
        <time>2017-05-27T12:50:53Z</time>
      </trkpt>
      <trkpt lat="48.0265" lon="-4.6973">
        <ele>35.71</ele>
        <time>2017-05-27T12:51:20Z</time>
      </trkpt>
      <trkpt lat="48.0265" lon="-4.69731">
        <ele>35.23</ele>
        <time>2017-05-27T12:51:43Z</time>
      </trkpt>
      <trkpt lat="48.0265" lon="-4.69732">
        <ele>34.74</ele>
        <time>2017-05-27T12:52:23Z</time>
      </trkpt>
      <trkpt lat="48.0265" lon="-4.69732">
        <ele>34.26</ele>
        <time>2017-05-27T12:53:06Z</time>
      </trkpt>
      <trkpt lat="48.0265" lon="-4.69732">
        <ele>34.26</ele>
        <time>2017-05-27T12:53:49Z</time>
      </trkpt>
      <trkpt lat="48.0265" lon="-4.69732">
        <ele>34.74</ele>
        <time>2017-05-27T12:54:34Z</time>
      </trkpt>
      <trkpt lat="48.02651" lon="-4.69734">
        <ele>34.74</ele>
        <time>2017-05-27T12:54:55Z</time>
      </trkpt>
      <trkpt lat="48.02651" lon="-4.6973">
        <ele>34.74</ele>
        <time>2017-05-27T12:55:17Z</time>
      </trkpt>
      <trkpt lat="48.02651" lon="-4.69728">
        <ele>34.74</ele>
        <time>2017-05-27T12:55:40Z</time>
      </trkpt>
      <trkpt lat="48.02651" lon="-4.69728">
        <ele>34.74</ele>
        <time>2017-05-27T12:56:09Z</time>
      </trkpt>
      <trkpt lat="48.02651" lon="-4.69729">
        <ele>34.74</ele>
        <time>2017-05-27T12:56:38Z</time>
      </trkpt>
      <trkpt lat="48.02651" lon="-4.69729">
        <ele>35.23</ele>
        <time>2017-05-27T12:57:03Z</time>
      </trkpt>
      <trkpt lat="48.02651" lon="-4.69729">
        <ele>35.23</ele>
        <time>2017-05-27T12:57:28Z</time>
      </trkpt>
      <trkpt lat="48.02651" lon="-4.69729">
        <ele>35.71</ele>
        <time>2017-05-27T12:57:54Z</time>
      </trkpt>
      <trkpt lat="48.02651" lon="-4.69729">
        <ele>35.23</ele>
        <time>2017-05-27T12:58:27Z</time>
      </trkpt>
      <trkpt lat="48.02652" lon="-4.6973">
        <ele>35.23</ele>
        <time>2017-05-27T12:58:41Z</time>
      </trkpt>
      <trkpt lat="48.02651" lon="-4.69731">
        <ele>35.23</ele>
        <time>2017-05-27T12:59:07Z</time>
      </trkpt>
      <trkpt lat="48.0265" lon="-4.69732">
        <ele>34.74</ele>
        <time>2017-05-27T12:59:25Z</time>
      </trkpt>
      <trkpt lat="48.02652" lon="-4.69732">
        <ele>34.74</ele>
        <time>2017-05-27T12:59:49Z</time>
      </trkpt>
      <trkpt lat="48.02654" lon="-4.69731">
        <ele>34.74</ele>
        <time>2017-05-27T12:59:56Z</time>
      </trkpt>
      <trkpt lat="48.0266" lon="-4.69725">
        <ele>34.74</ele>
        <time>2017-05-27T13:00:08Z</time>
      </trkpt>
      <trkpt lat="48.02666" lon="-4.6972">
        <ele>35.23</ele>
        <time>2017-05-27T13:00:16Z</time>
      </trkpt>
      <trkpt lat="48.0268" lon="-4.69713">
        <ele>36.67</ele>
        <time>2017-05-27T13:00:26Z</time>
      </trkpt>
      <trkpt lat="48.0268" lon="-4.69713">
        <ele>37.15</ele>
        <time>2017-05-27T13:00:27Z</time>
      </trkpt>
      <trkpt lat="48.02693" lon="-4.69702">
        <ele>36.19</ele>
        <time>2017-05-27T13:00:37Z</time>
      </trkpt>
      <trkpt lat="48.02694" lon="-4.69701">
        <ele>36.19</ele>
        <time>2017-05-27T13:00:38Z</time>
      </trkpt>
      <trkpt lat="48.02696" lon="-4.69699">
        <ele>35.71</ele>
        <time>2017-05-27T13:00:41Z</time>
      </trkpt>
      <trkpt lat="48.02701" lon="-4.69689">
        <ele>34.74</ele>
        <time>2017-05-27T13:00:48Z</time>
      </trkpt>
      <trkpt lat="48.02704" lon="-4.69684">
        <ele>34.26</ele>
        <time>2017-05-27T13:00:52Z</time>
      </trkpt>
      <trkpt lat="48.02707" lon="-4.69683">
        <ele>32.82</ele>
        <time>2017-05-27T13:00:56Z</time>
      </trkpt>
      <trkpt lat="48.02708" lon="-4.69677">
        <ele>31.38</ele>
        <time>2017-05-27T13:01:00Z</time>
      </trkpt>
      <trkpt lat="48.02708" lon="-4.69672">
        <ele>29.46</ele>
        <time>2017-05-27T13:01:05Z</time>
      </trkpt>
      <trkpt lat="48.02707" lon="-4.69668">
        <ele>28.02</ele>
        <time>2017-05-27T13:01:09Z</time>
      </trkpt>
      <trkpt lat="48.02708" lon="-4.69645">
        <ele>24.17</ele>
        <time>2017-05-27T13:01:25Z</time>
      </trkpt>
      <trkpt lat="48.02706" lon="-4.69629">
        <ele>21.77</ele>
        <time>2017-05-27T13:01:37Z</time>
      </trkpt>
      <trkpt lat="48.02707" lon="-4.69618">
        <ele>21.29</ele>
        <time>2017-05-27T13:01:50Z</time>
      </trkpt>
      <trkpt lat="48.02706" lon="-4.69613">
        <ele>21.29</ele>
        <time>2017-05-27T13:01:53Z</time>
      </trkpt>
      <trkpt lat="48.02706" lon="-4.6961">
        <ele>20.81</ele>
        <time>2017-05-27T13:01:56Z</time>
      </trkpt>
      <trkpt lat="48.02708" lon="-4.69604">
        <ele>19.36</ele>
        <time>2017-05-27T13:02:03Z</time>
      </trkpt>
      <trkpt lat="48.02707" lon="-4.696">
        <ele>18.88</ele>
        <time>2017-05-27T13:02:11Z</time>
      </trkpt>
      <trkpt lat="48.0271" lon="-4.69593">
        <ele>17.92</ele>
        <time>2017-05-27T13:02:23Z</time>
      </trkpt>
      <trkpt lat="48.02714" lon="-4.69584">
        <ele>16.48</ele>
        <time>2017-05-27T13:02:36Z</time>
      </trkpt>
      <trkpt lat="48.02721" lon="-4.69586">
        <ele>15.04</ele>
        <time>2017-05-27T13:02:42Z</time>
      </trkpt>
      <trkpt lat="48.02732" lon="-4.69591">
        <ele>14.08</ele>
        <time>2017-05-27T13:02:53Z</time>
      </trkpt>
      <trkpt lat="48.02736" lon="-4.69591">
        <ele>12.63</ele>
        <time>2017-05-27T13:03:06Z</time>
      </trkpt>
      <trkpt lat="48.02736" lon="-4.69591">
        <ele>12.15</ele>
        <time>2017-05-27T13:03:07Z</time>
      </trkpt>
      <trkpt lat="48.0274" lon="-4.69594">
        <ele>11.19</ele>
        <time>2017-05-27T13:03:15Z</time>
      </trkpt>
      <trkpt lat="48.02744" lon="-4.69599">
        <ele>12.63</ele>
        <time>2017-05-27T13:03:30Z</time>
      </trkpt>
      <trkpt lat="48.02742" lon="-4.69598">
        <ele>13.12</ele>
        <time>2017-05-27T13:03:52Z</time>
      </trkpt>
      <trkpt lat="48.02741" lon="-4.69596">
        <ele>13.6</ele>
        <time>2017-05-27T13:04:18Z</time>
      </trkpt>
      <trkpt lat="48.02743" lon="-4.69598">
        <ele>14.08</ele>
        <time>2017-05-27T13:04:36Z</time>
      </trkpt>
      <trkpt lat="48.02745" lon="-4.69599">
        <ele>14.56</ele>
        <time>2017-05-27T13:04:38Z</time>
      </trkpt>
      <trkpt lat="48.02751" lon="-4.69598">
        <ele>14.56</ele>
        <time>2017-05-27T13:04:54Z</time>
      </trkpt>
      <trkpt lat="48.02751" lon="-4.696">
        <ele>15.04</ele>
        <time>2017-05-27T13:04:58Z</time>
      </trkpt>
      <trkpt lat="48.02753" lon="-4.69603">
        <ele>16</ele>
        <time>2017-05-27T13:05:02Z</time>
      </trkpt>
      <trkpt lat="48.02757" lon="-4.69605">
        <ele>16.96</ele>
        <time>2017-05-27T13:05:05Z</time>
      </trkpt>
      <trkpt lat="48.0277" lon="-4.6961">
        <ele>19.84</ele>
        <time>2017-05-27T13:05:19Z</time>
      </trkpt>
      <trkpt lat="48.02787" lon="-4.69611">
        <ele>22.73</ele>
        <time>2017-05-27T13:05:38Z</time>
      </trkpt>
      <trkpt lat="48.02793" lon="-4.69611">
        <ele>23.21</ele>
        <time>2017-05-27T13:05:45Z</time>
      </trkpt>
      <trkpt lat="48.028" lon="-4.6961">
        <ele>24.65</ele>
        <time>2017-05-27T13:06:03Z</time>
      </trkpt>
      <trkpt lat="48.02799" lon="-4.69609">
        <ele>25.61</ele>
        <time>2017-05-27T13:06:34Z</time>
      </trkpt>
      <trkpt lat="48.02799" lon="-4.69609">
        <ele>26.57</ele>
        <time>2017-05-27T13:07:04Z</time>
      </trkpt>
      <trkpt lat="48.028" lon="-4.6961">
        <ele>26.09</ele>
        <time>2017-05-27T13:07:05Z</time>
      </trkpt>
      <trkpt lat="48.0282" lon="-4.6962">
        <ele>24.17</ele>
        <time>2017-05-27T13:07:22Z</time>
      </trkpt>
      <trkpt lat="48.02844" lon="-4.69628">
        <ele>24.65</ele>
        <time>2017-05-27T13:07:37Z</time>
      </trkpt>
      <trkpt lat="48.02871" lon="-4.69628">
        <ele>26.09</ele>
        <time>2017-05-27T13:07:54Z</time>
      </trkpt>
      <trkpt lat="48.02882" lon="-4.69628">
        <ele>27.53</ele>
        <time>2017-05-27T13:08:02Z</time>
      </trkpt>
      <trkpt lat="48.02884" lon="-4.69625">
        <ele>28.02</ele>
        <time>2017-05-27T13:08:04Z</time>
      </trkpt>
      <trkpt lat="48.02888" lon="-4.69616">
        <ele>28.02</ele>
        <time>2017-05-27T13:08:09Z</time>
      </trkpt>
      <trkpt lat="48.02891" lon="-4.69586">
        <ele>28.5</ele>
        <time>2017-05-27T13:08:23Z</time>
      </trkpt>
      <trkpt lat="48.02883" lon="-4.69569">
        <ele>26.57</ele>
        <time>2017-05-27T13:08:39Z</time>
      </trkpt>
      <trkpt lat="48.02878" lon="-4.69559">
        <ele>24.65</ele>
        <time>2017-05-27T13:08:45Z</time>
      </trkpt>
      <trkpt lat="48.02876" lon="-4.69533">
        <ele>25.13</ele>
        <time>2017-05-27T13:08:57Z</time>
      </trkpt>
      <trkpt lat="48.02876" lon="-4.69529">
        <ele>25.61</ele>
        <time>2017-05-27T13:09:00Z</time>
      </trkpt>
      <trkpt lat="48.0288" lon="-4.69503">
        <ele>22.73</ele>
        <time>2017-05-27T13:09:12Z</time>
      </trkpt>
      <trkpt lat="48.0288" lon="-4.69474">
        <ele>22.73</ele>
        <time>2017-05-27T13:09:26Z</time>
      </trkpt>
      <trkpt lat="48.02882" lon="-4.69467">
        <ele>22.25</ele>
        <time>2017-05-27T13:09:29Z</time>
      </trkpt>
      <trkpt lat="48.02883" lon="-4.6944">
        <ele>21.77</ele>
        <time>2017-05-27T13:09:41Z</time>
      </trkpt>
      <trkpt lat="48.02883" lon="-4.69436">
        <ele>21.29</ele>
        <time>2017-05-27T13:09:44Z</time>
      </trkpt>
      <trkpt lat="48.02881" lon="-4.69424">
        <ele>21.29</ele>
        <time>2017-05-27T13:09:50Z</time>
      </trkpt>
      <trkpt lat="48.02877" lon="-4.69396">
        <ele>22.73</ele>
        <time>2017-05-27T13:10:04Z</time>
      </trkpt>
      <trkpt lat="48.02877" lon="-4.69395">
        <ele>23.21</ele>
        <time>2017-05-27T13:10:05Z</time>
      </trkpt>
      <trkpt lat="48.02861" lon="-4.69366">
        <ele>22.73</ele>
        <time>2017-05-27T13:10:25Z</time>
      </trkpt>
      <trkpt lat="48.02852" lon="-4.69343">
        <ele>22.25</ele>
        <time>2017-05-27T13:10:37Z</time>
      </trkpt>
      <trkpt lat="48.0285" lon="-4.6932">
        <ele>19.84</ele>
        <time>2017-05-27T13:10:51Z</time>
      </trkpt>
      <trkpt lat="48.02849" lon="-4.69312">
        <ele>17.92</ele>
        <time>2017-05-27T13:10:57Z</time>
      </trkpt>
      <trkpt lat="48.02846" lon="-4.69308">
        <ele>17.92</ele>
        <time>2017-05-27T13:10:59Z</time>
      </trkpt>
      <trkpt lat="48.02841" lon="-4.69302">
        <ele>18.4</ele>
        <time>2017-05-27T13:11:05Z</time>
      </trkpt>
      <trkpt lat="48.0283" lon="-4.69285">
        <ele>20.32</ele>
        <time>2017-05-27T13:11:20Z</time>
      </trkpt>
      <trkpt lat="48.0282" lon="-4.69267">
        <ele>25.61</ele>
        <time>2017-05-27T13:11:34Z</time>
      </trkpt>
      <trkpt lat="48.02814" lon="-4.6925">
        <ele>28.98</ele>
        <time>2017-05-27T13:11:44Z</time>
      </trkpt>
      <trkpt lat="48.02812" lon="-4.69245">
        <ele>28.98</ele>
        <time>2017-05-27T13:11:48Z</time>
      </trkpt>
      <trkpt lat="48.02811" lon="-4.69241">
        <ele>29.46</ele>
        <time>2017-05-27T13:11:51Z</time>
      </trkpt>
      <trkpt lat="48.02808" lon="-4.69232">
        <ele>28.98</ele>
        <time>2017-05-27T13:11:56Z</time>
      </trkpt>
      <trkpt lat="48.02803" lon="-4.69214">
        <ele>31.86</ele>
        <time>2017-05-27T13:12:11Z</time>
      </trkpt>
      <trkpt lat="48.02803" lon="-4.69213">
        <ele>32.34</ele>
        <time>2017-05-27T13:12:12Z</time>
      </trkpt>
      <trkpt lat="48.028" lon="-4.69193">
        <ele>34.74</ele>
        <time>2017-05-27T13:12:24Z</time>
      </trkpt>
      <trkpt lat="48.02795" lon="-4.69168">
        <ele>35.23</ele>
        <time>2017-05-27T13:12:38Z</time>
      </trkpt>
      <trkpt lat="48.02792" lon="-4.69152">
        <ele>36.67</ele>
        <time>2017-05-27T13:12:51Z</time>
      </trkpt>
      <trkpt lat="48.02789" lon="-4.69146">
        <ele>37.15</ele>
        <time>2017-05-27T13:12:55Z</time>
      </trkpt>
      <trkpt lat="48.02787" lon="-4.69138">
        <ele>37.15</ele>
        <time>2017-05-27T13:13:00Z</time>
      </trkpt>
      <trkpt lat="48.02785" lon="-4.69135">
        <ele>38.11</ele>
        <time>2017-05-27T13:13:19Z</time>
      </trkpt>
      <trkpt lat="48.02784" lon="-4.69135">
        <ele>38.11</ele>
        <time>2017-05-27T13:13:42Z</time>
      </trkpt>
      <trkpt lat="48.02778" lon="-4.69119">
        <ele>38.11</ele>
        <time>2017-05-27T13:13:52Z</time>
      </trkpt>
      <trkpt lat="48.02777" lon="-4.69113">
        <ele>38.11</ele>
        <time>2017-05-27T13:13:55Z</time>
      </trkpt>
      <trkpt lat="48.02774" lon="-4.69099">
        <ele>39.07</ele>
        <time>2017-05-27T13:14:03Z</time>
      </trkpt>
      <trkpt lat="48.02772" lon="-4.69088">
        <ele>40.03</ele>
        <time>2017-05-27T13:14:08Z</time>
      </trkpt>
      <trkpt lat="48.02759" lon="-4.69059">
        <ele>44.36</ele>
        <time>2017-05-27T13:14:25Z</time>
      </trkpt>
      <trkpt lat="48.02747" lon="-4.6903">
        <ele>44.36</ele>
        <time>2017-05-27T13:14:39Z</time>
      </trkpt>
      <trkpt lat="48.02744" lon="-4.69027">
        <ele>44.84</ele>
        <time>2017-05-27T13:14:43Z</time>
      </trkpt>
      <trkpt lat="48.0273" lon="-4.69006">
        <ele>44.36</ele>
        <time>2017-05-27T13:14:58Z</time>
      </trkpt>
      <trkpt lat="48.02724" lon="-4.6899">
        <ele>42.44</ele>
        <time>2017-05-27T13:15:12Z</time>
      </trkpt>
      <trkpt lat="48.02724" lon="-4.68988">
        <ele>42.44</ele>
        <time>2017-05-27T13:15:15Z</time>
      </trkpt>
      <trkpt lat="48.02728" lon="-4.68976">
        <ele>45.32</ele>
        <time>2017-05-27T13:15:23Z</time>
      </trkpt>
      <trkpt lat="48.02727" lon="-4.6897">
        <ele>45.8</ele>
        <time>2017-05-27T13:15:26Z</time>
      </trkpt>
      <trkpt lat="48.02728" lon="-4.6896">
        <ele>46.28</ele>
        <time>2017-05-27T13:15:30Z</time>
      </trkpt>
      <trkpt lat="48.02729" lon="-4.68933">
        <ele>44.84</ele>
        <time>2017-05-27T13:15:44Z</time>
      </trkpt>
      <trkpt lat="48.02732" lon="-4.68921">
        <ele>43.4</ele>
        <time>2017-05-27T13:15:49Z</time>
      </trkpt>
      <trkpt lat="48.0273" lon="-4.68907">
        <ele>42.44</ele>
        <time>2017-05-27T13:15:57Z</time>
      </trkpt>
      <trkpt lat="48.0273" lon="-4.68898">
        <ele>42.44</ele>
        <time>2017-05-27T13:16:01Z</time>
      </trkpt>
      <trkpt lat="48.0273" lon="-4.68869">
        <ele>40.99</ele>
        <time>2017-05-27T13:16:15Z</time>
      </trkpt>
      <trkpt lat="48.02733" lon="-4.68869">
        <ele>41.47</ele>
        <time>2017-05-27T13:16:20Z</time>
      </trkpt>
      <trkpt lat="48.02732" lon="-4.68849">
        <ele>41.47</ele>
        <time>2017-05-27T13:16:35Z</time>
      </trkpt>
      <trkpt lat="48.02731" lon="-4.68839">
        <ele>40.99</ele>
        <time>2017-05-27T13:16:39Z</time>
      </trkpt>
      <trkpt lat="48.02728" lon="-4.68818">
        <ele>40.51</ele>
        <time>2017-05-27T13:16:51Z</time>
      </trkpt>
      <trkpt lat="48.02731" lon="-4.68798">
        <ele>37.63</ele>
        <time>2017-05-27T13:17:01Z</time>
      </trkpt>
      <trkpt lat="48.02734" lon="-4.68775">
        <ele>33.78</ele>
        <time>2017-05-27T13:17:13Z</time>
      </trkpt>
      <trkpt lat="48.02735" lon="-4.68763">
        <ele>33.3</ele>
        <time>2017-05-27T13:17:20Z</time>
      </trkpt>
      <trkpt lat="48.02737" lon="-4.68745">
        <ele>34.74</ele>
        <time>2017-05-27T13:17:28Z</time>
      </trkpt>
      <trkpt lat="48.02736" lon="-4.68729">
        <ele>38.11</ele>
        <time>2017-05-27T13:17:38Z</time>
      </trkpt>
      <trkpt lat="48.02737" lon="-4.68721">
        <ele>38.11</ele>
        <time>2017-05-27T13:17:41Z</time>
      </trkpt>
      <trkpt lat="48.02743" lon="-4.68704">
        <ele>37.63</ele>
        <time>2017-05-27T13:17:50Z</time>
      </trkpt>
      <trkpt lat="48.02745" lon="-4.68696">
        <ele>37.63</ele>
        <time>2017-05-27T13:17:54Z</time>
      </trkpt>
      <trkpt lat="48.02747" lon="-4.68692">
        <ele>37.63</ele>
        <time>2017-05-27T13:17:56Z</time>
      </trkpt>
      <trkpt lat="48.02753" lon="-4.68681">
        <ele>37.63</ele>
        <time>2017-05-27T13:18:04Z</time>
      </trkpt>
      <trkpt lat="48.02753" lon="-4.68677">
        <ele>37.63</ele>
        <time>2017-05-27T13:18:06Z</time>
      </trkpt>
      <trkpt lat="48.02755" lon="-4.68665">
        <ele>37.63</ele>
        <time>2017-05-27T13:18:11Z</time>
      </trkpt>
      <trkpt lat="48.0276" lon="-4.68651">
        <ele>36.67</ele>
        <time>2017-05-27T13:18:18Z</time>
      </trkpt>
      <trkpt lat="48.0276" lon="-4.68627">
        <ele>32.82</ele>
        <time>2017-05-27T13:18:31Z</time>
      </trkpt>
      <trkpt lat="48.02753" lon="-4.68599">
        <ele>31.86</ele>
        <time>2017-05-27T13:18:44Z</time>
      </trkpt>
      <trkpt lat="48.02743" lon="-4.68574">
        <ele>28.5</ele>
        <time>2017-05-27T13:18:58Z</time>
      </trkpt>
      <trkpt lat="48.02739" lon="-4.68556">
        <ele>26.57</ele>
        <time>2017-05-27T13:19:08Z</time>
      </trkpt>
      <trkpt lat="48.02739" lon="-4.68553">
        <ele>26.57</ele>
        <time>2017-05-27T13:19:10Z</time>
      </trkpt>
      <trkpt lat="48.02737" lon="-4.68548">
        <ele>26.57</ele>
        <time>2017-05-27T13:19:14Z</time>
      </trkpt>
      <trkpt lat="48.02736" lon="-4.68546">
        <ele>26.57</ele>
        <time>2017-05-27T13:19:16Z</time>
      </trkpt>
      <trkpt lat="48.02734" lon="-4.6854">
        <ele>25.61</ele>
        <time>2017-05-27T13:19:20Z</time>
      </trkpt>
      <trkpt lat="48.02733" lon="-4.68528">
        <ele>24.17</ele>
        <time>2017-05-27T13:19:26Z</time>
      </trkpt>
      <trkpt lat="48.02734" lon="-4.68515">
        <ele>22.25</ele>
        <time>2017-05-27T13:19:35Z</time>
      </trkpt>
      <trkpt lat="48.02732" lon="-4.68499">
        <ele>21.29</ele>
        <time>2017-05-27T13:19:43Z</time>
      </trkpt>
      <trkpt lat="48.02729" lon="-4.68491">
        <ele>22.25</ele>
        <time>2017-05-27T13:19:48Z</time>
      </trkpt>
      <trkpt lat="48.02724" lon="-4.6848">
        <ele>23.69</ele>
        <time>2017-05-27T13:19:55Z</time>
      </trkpt>
      <trkpt lat="48.02723" lon="-4.6846">
        <ele>22.25</ele>
        <time>2017-05-27T13:20:04Z</time>
      </trkpt>
      <trkpt lat="48.02719" lon="-4.6843">
        <ele>22.25</ele>
        <time>2017-05-27T13:20:18Z</time>
      </trkpt>
      <trkpt lat="48.02721" lon="-4.68407">
        <ele>20.81</ele>
        <time>2017-05-27T13:20:28Z</time>
      </trkpt>
      <trkpt lat="48.02721" lon="-4.68404">
        <ele>20.81</ele>
        <time>2017-05-27T13:20:30Z</time>
      </trkpt>
      <trkpt lat="48.02728" lon="-4.68397">
        <ele>20.81</ele>
        <time>2017-05-27T13:20:39Z</time>
      </trkpt>
      <trkpt lat="48.02727" lon="-4.6839">
        <ele>21.29</ele>
        <time>2017-05-27T13:20:44Z</time>
      </trkpt>
      <trkpt lat="48.02727" lon="-4.68383">
        <ele>20.81</ele>
        <time>2017-05-27T13:20:48Z</time>
      </trkpt>
      <trkpt lat="48.02724" lon="-4.68369">
        <ele>19.84</ele>
        <time>2017-05-27T13:20:56Z</time>
      </trkpt>
      <trkpt lat="48.02726" lon="-4.68366">
        <ele>19.84</ele>
        <time>2017-05-27T13:20:59Z</time>
      </trkpt>
      <trkpt lat="48.02739" lon="-4.68356">
        <ele>21.29</ele>
        <time>2017-05-27T13:21:10Z</time>
      </trkpt>
      <trkpt lat="48.02741" lon="-4.68354">
        <ele>20.81</ele>
        <time>2017-05-27T13:21:13Z</time>
      </trkpt>
      <trkpt lat="48.02749" lon="-4.68331">
        <ele>18.4</ele>
        <time>2017-05-27T13:21:28Z</time>
      </trkpt>
      <trkpt lat="48.02751" lon="-4.68321">
        <ele>17.44</ele>
        <time>2017-05-27T13:21:37Z</time>
      </trkpt>
      <trkpt lat="48.02753" lon="-4.68319">
        <ele>16.96</ele>
        <time>2017-05-27T13:21:39Z</time>
      </trkpt>
      <trkpt lat="48.02754" lon="-4.68306">
        <ele>14.08</ele>
        <time>2017-05-27T13:21:52Z</time>
      </trkpt>
      <trkpt lat="48.02753" lon="-4.683">
        <ele>15.04</ele>
        <time>2017-05-27T13:22:02Z</time>
      </trkpt>
      <trkpt lat="48.02748" lon="-4.68278">
        <ele>18.88</ele>
        <time>2017-05-27T13:22:16Z</time>
      </trkpt>
      <trkpt lat="48.02745" lon="-4.68263">
        <ele>25.61</ele>
        <time>2017-05-27T13:22:29Z</time>
      </trkpt>
      <trkpt lat="48.02741" lon="-4.68241">
        <ele>30.9</ele>
        <time>2017-05-27T13:22:41Z</time>
      </trkpt>
      <trkpt lat="48.02741" lon="-4.68228">
        <ele>32.82</ele>
        <time>2017-05-27T13:22:50Z</time>
      </trkpt>
      <trkpt lat="48.02741" lon="-4.68225">
        <ele>32.82</ele>
        <time>2017-05-27T13:22:52Z</time>
      </trkpt>
      <trkpt lat="48.0274" lon="-4.68215">
        <ele>32.34</ele>
        <time>2017-05-27T13:22:57Z</time>
      </trkpt>
      <trkpt lat="48.02743" lon="-4.68194">
        <ele>32.34</ele>
        <time>2017-05-27T13:23:11Z</time>
      </trkpt>
      <trkpt lat="48.02747" lon="-4.68182">
        <ele>34.26</ele>
        <time>2017-05-27T13:23:22Z</time>
      </trkpt>
      <trkpt lat="48.02749" lon="-4.68177">
        <ele>34.74</ele>
        <time>2017-05-27T13:23:26Z</time>
      </trkpt>
      <trkpt lat="48.02748" lon="-4.6816">
        <ele>34.74</ele>
        <time>2017-05-27T13:23:38Z</time>
      </trkpt>
      <trkpt lat="48.02748" lon="-4.68157">
        <ele>34.74</ele>
        <time>2017-05-27T13:23:41Z</time>
      </trkpt>
      <trkpt lat="48.02747" lon="-4.68138">
        <ele>34.26</ele>
        <time>2017-05-27T13:23:53Z</time>
      </trkpt>
      <trkpt lat="48.02747" lon="-4.68113">
        <ele>37.15</ele>
        <time>2017-05-27T13:24:09Z</time>
      </trkpt>
      <trkpt lat="48.02745" lon="-4.68103">
        <ele>36.67</ele>
        <time>2017-05-27T13:24:14Z</time>
      </trkpt>
      <trkpt lat="48.02745" lon="-4.68086">
        <ele>34.74</ele>
        <time>2017-05-27T13:24:23Z</time>
      </trkpt>
      <trkpt lat="48.02744" lon="-4.68083">
        <ele>34.74</ele>
        <time>2017-05-27T13:24:25Z</time>
      </trkpt>
      <trkpt lat="48.02747" lon="-4.68061">
        <ele>35.23</ele>
        <time>2017-05-27T13:24:38Z</time>
      </trkpt>
      <trkpt lat="48.02748" lon="-4.68049">
        <ele>34.26</ele>
        <time>2017-05-27T13:24:44Z</time>
      </trkpt>
      <trkpt lat="48.02748" lon="-4.68022">
        <ele>35.71</ele>
        <time>2017-05-27T13:24:58Z</time>
      </trkpt>
      <trkpt lat="48.02747" lon="-4.68017">
        <ele>36.19</ele>
        <time>2017-05-27T13:25:01Z</time>
      </trkpt>
      <trkpt lat="48.02747" lon="-4.68013">
        <ele>36.19</ele>
        <time>2017-05-27T13:25:16Z</time>
      </trkpt>
      <trkpt lat="48.02746" lon="-4.68013">
        <ele>38.11</ele>
        <time>2017-05-27T13:25:48Z</time>
      </trkpt>
      <trkpt lat="48.02745" lon="-4.68014">
        <ele>38.59</ele>
        <time>2017-05-27T13:26:12Z</time>
      </trkpt>
      <trkpt lat="48.02745" lon="-4.68015">
        <ele>39.07</ele>
        <time>2017-05-27T13:26:40Z</time>
      </trkpt>
      <trkpt lat="48.02745" lon="-4.68015">
        <ele>39.07</ele>
        <time>2017-05-27T13:27:06Z</time>
      </trkpt>
      <trkpt lat="48.02746" lon="-4.68015">
        <ele>39.55</ele>
        <time>2017-05-27T13:27:36Z</time>
      </trkpt>
      <trkpt lat="48.02746" lon="-4.68016">
        <ele>39.07</ele>
        <time>2017-05-27T13:28:02Z</time>
      </trkpt>
      <trkpt lat="48.02745" lon="-4.68016">
        <ele>38.59</ele>
        <time>2017-05-27T13:28:28Z</time>
      </trkpt>
      <trkpt lat="48.02743" lon="-4.68016">
        <ele>40.03</ele>
        <time>2017-05-27T13:28:58Z</time>
      </trkpt>
      <trkpt lat="48.02743" lon="-4.68016">
        <ele>40.03</ele>
        <time>2017-05-27T13:29:27Z</time>
      </trkpt>
      <trkpt lat="48.02743" lon="-4.68016">
        <ele>40.03</ele>
        <time>2017-05-27T13:29:54Z</time>
      </trkpt>
      <trkpt lat="48.02747" lon="-4.68004">
        <ele>40.03</ele>
        <time>2017-05-27T13:30:09Z</time>
      </trkpt>
      <trkpt lat="48.02747" lon="-4.67992">
        <ele>40.03</ele>
        <time>2017-05-27T13:30:22Z</time>
      </trkpt>
      <trkpt lat="48.0275" lon="-4.67964">
        <ele>40.51</ele>
        <time>2017-05-27T13:30:36Z</time>
      </trkpt>
      <trkpt lat="48.02751" lon="-4.67961">
        <ele>40.51</ele>
        <time>2017-05-27T13:30:39Z</time>
      </trkpt>
      <trkpt lat="48.02755" lon="-4.67939">
        <ele>40.03</ele>
        <time>2017-05-27T13:30:49Z</time>
      </trkpt>
      <trkpt lat="48.02756" lon="-4.67926">
        <ele>38.59</ele>
        <time>2017-05-27T13:30:57Z</time>
      </trkpt>
      <trkpt lat="48.02758" lon="-4.67917">
        <ele>38.59</ele>
        <time>2017-05-27T13:31:01Z</time>
      </trkpt>
      <trkpt lat="48.02764" lon="-4.67894">
        <ele>38.59</ele>
        <time>2017-05-27T13:31:14Z</time>
      </trkpt>
      <trkpt lat="48.02764" lon="-4.67876">
        <ele>40.03</ele>
        <time>2017-05-27T13:31:23Z</time>
      </trkpt>
      <trkpt lat="48.02757" lon="-4.67864">
        <ele>39.55</ele>
        <time>2017-05-27T13:31:30Z</time>
      </trkpt>
      <trkpt lat="48.02747" lon="-4.67837">
        <ele>40.51</ele>
        <time>2017-05-27T13:31:44Z</time>
      </trkpt>
      <trkpt lat="48.02746" lon="-4.67811">
        <ele>38.59</ele>
        <time>2017-05-27T13:31:57Z</time>
      </trkpt>
      <trkpt lat="48.02745" lon="-4.67791">
        <ele>37.15</ele>
        <time>2017-05-27T13:32:09Z</time>
      </trkpt>
      <trkpt lat="48.02744" lon="-4.67788">
        <ele>37.15</ele>
        <time>2017-05-27T13:32:11Z</time>
      </trkpt>
      <trkpt lat="48.02747" lon="-4.67777">
        <ele>37.15</ele>
        <time>2017-05-27T13:32:17Z</time>
      </trkpt>
      <trkpt lat="48.02746" lon="-4.6777">
        <ele>37.15</ele>
        <time>2017-05-27T13:32:23Z</time>
      </trkpt>
      <trkpt lat="48.02745" lon="-4.67758">
        <ele>36.67</ele>
        <time>2017-05-27T13:32:30Z</time>
      </trkpt>
      <trkpt lat="48.02742" lon="-4.67747">
        <ele>36.67</ele>
        <time>2017-05-27T13:32:37Z</time>
      </trkpt>
      <trkpt lat="48.02738" lon="-4.67732">
        <ele>36.19</ele>
        <time>2017-05-27T13:32:44Z</time>
      </trkpt>
      <trkpt lat="48.02734" lon="-4.67704">
        <ele>34.26</ele>
        <time>2017-05-27T13:32:59Z</time>
      </trkpt>
      <trkpt lat="48.02735" lon="-4.67686">
        <ele>32.34</ele>
        <time>2017-05-27T13:33:09Z</time>
      </trkpt>
      <trkpt lat="48.02736" lon="-4.67679">
        <ele>34.26</ele>
        <time>2017-05-27T13:33:14Z</time>
      </trkpt>
      <trkpt lat="48.02735" lon="-4.67665">
        <ele>36.67</ele>
        <time>2017-05-27T13:33:21Z</time>
      </trkpt>
      <trkpt lat="48.02749" lon="-4.67641">
        <ele>39.07</ele>
        <time>2017-05-27T13:33:37Z</time>
      </trkpt>
      <trkpt lat="48.02761" lon="-4.67619">
        <ele>40.99</ele>
        <time>2017-05-27T13:33:51Z</time>
      </trkpt>
      <trkpt lat="48.02767" lon="-4.676">
        <ele>42.44</ele>
        <time>2017-05-27T13:34:03Z</time>
      </trkpt>
      <trkpt lat="48.02772" lon="-4.67587">
        <ele>41.95</ele>
        <time>2017-05-27T13:34:11Z</time>
      </trkpt>
      <trkpt lat="48.0278" lon="-4.67572">
        <ele>44.36</ele>
        <time>2017-05-27T13:34:24Z</time>
      </trkpt>
      <trkpt lat="48.02783" lon="-4.67572">
        <ele>44.36</ele>
        <time>2017-05-27T13:34:30Z</time>
      </trkpt>
      <trkpt lat="48.02787" lon="-4.67576">
        <ele>45.32</ele>
        <time>2017-05-27T13:34:35Z</time>
      </trkpt>
      <trkpt lat="48.0279" lon="-4.6758">
        <ele>45.32</ele>
        <time>2017-05-27T13:34:40Z</time>
      </trkpt>
      <trkpt lat="48.02795" lon="-4.67579">
        <ele>46.28</ele>
        <time>2017-05-27T13:34:46Z</time>
      </trkpt>
      <trkpt lat="48.02806" lon="-4.67583">
        <ele>48.68</ele>
        <time>2017-05-27T13:34:56Z</time>
      </trkpt>
      <trkpt lat="48.02813" lon="-4.6758">
        <ele>50.13</ele>
        <time>2017-05-27T13:35:02Z</time>
      </trkpt>
      <trkpt lat="48.02819" lon="-4.67581">
        <ele>50.13</ele>
        <time>2017-05-27T13:35:09Z</time>
      </trkpt>
      <trkpt lat="48.02822" lon="-4.67576">
        <ele>50.13</ele>
        <time>2017-05-27T13:35:16Z</time>
      </trkpt>
      <trkpt lat="48.02822" lon="-4.67559">
        <ele>47.72</ele>
        <time>2017-05-27T13:35:28Z</time>
      </trkpt>
      <trkpt lat="48.02821" lon="-4.67542">
        <ele>44.36</ele>
        <time>2017-05-27T13:35:44Z</time>
      </trkpt>
      <trkpt lat="48.0282" lon="-4.67542">
        <ele>43.88</ele>
        <time>2017-05-27T13:35:46Z</time>
      </trkpt>
      <trkpt lat="48.02817" lon="-4.67529">
        <ele>41.95</ele>
        <time>2017-05-27T13:35:59Z</time>
      </trkpt>
      <trkpt lat="48.02809" lon="-4.67515">
        <ele>37.63</ele>
        <time>2017-05-27T13:36:14Z</time>
      </trkpt>
      <trkpt lat="48.02804" lon="-4.67504">
        <ele>32.82</ele>
        <time>2017-05-27T13:36:25Z</time>
      </trkpt>
      <trkpt lat="48.02799" lon="-4.67509">
        <ele>31.86</ele>
        <time>2017-05-27T13:36:32Z</time>
      </trkpt>
      <trkpt lat="48.02796" lon="-4.67514">
        <ele>32.82</ele>
        <time>2017-05-27T13:36:43Z</time>
      </trkpt>
      <trkpt lat="48.0279" lon="-4.67506">
        <ele>33.3</ele>
        <time>2017-05-27T13:36:50Z</time>
      </trkpt>
      <trkpt lat="48.02787" lon="-4.67508">
        <ele>33.3</ele>
        <time>2017-05-27T13:36:55Z</time>
      </trkpt>
      <trkpt lat="48.02781" lon="-4.67508">
        <ele>33.78</ele>
        <time>2017-05-27T13:37:00Z</time>
      </trkpt>
      <trkpt lat="48.02782" lon="-4.67508">
        <ele>32.82</ele>
        <time>2017-05-27T13:37:19Z</time>
      </trkpt>
      <trkpt lat="48.02782" lon="-4.67506">
        <ele>32.34</ele>
        <time>2017-05-27T13:37:30Z</time>
      </trkpt>
      <trkpt lat="48.02782" lon="-4.67498">
        <ele>33.3</ele>
        <time>2017-05-27T13:37:35Z</time>
      </trkpt>
      <trkpt lat="48.02781" lon="-4.67493">
        <ele>33.3</ele>
        <time>2017-05-27T13:37:38Z</time>
      </trkpt>
      <trkpt lat="48.02784" lon="-4.67466">
        <ele>33.3</ele>
        <time>2017-05-27T13:37:53Z</time>
      </trkpt>
      <trkpt lat="48.02784" lon="-4.67463">
        <ele>32.82</ele>
        <time>2017-05-27T13:37:55Z</time>
      </trkpt>
      <trkpt lat="48.02789" lon="-4.6745">
        <ele>31.38</ele>
        <time>2017-05-27T13:38:05Z</time>
      </trkpt>
      <trkpt lat="48.02789" lon="-4.67435">
        <ele>31.38</ele>
        <time>2017-05-27T13:38:14Z</time>
      </trkpt>
      <trkpt lat="48.02785" lon="-4.67424">
        <ele>31.86</ele>
        <time>2017-05-27T13:38:21Z</time>
      </trkpt>
      <trkpt lat="48.02783" lon="-4.67415">
        <ele>31.86</ele>
        <time>2017-05-27T13:38:27Z</time>
      </trkpt>
      <trkpt lat="48.02775" lon="-4.67396">
        <ele>33.78</ele>
        <time>2017-05-27T13:38:39Z</time>
      </trkpt>
      <trkpt lat="48.0276" lon="-4.6738">
        <ele>37.15</ele>
        <time>2017-05-27T13:38:54Z</time>
      </trkpt>
      <trkpt lat="48.02748" lon="-4.67362">
        <ele>40.03</ele>
        <time>2017-05-27T13:39:09Z</time>
      </trkpt>
      <trkpt lat="48.02743" lon="-4.67351">
        <ele>40.99</ele>
        <time>2017-05-27T13:39:17Z</time>
      </trkpt>
      <trkpt lat="48.02739" lon="-4.67333">
        <ele>40.99</ele>
        <time>2017-05-27T13:39:27Z</time>
      </trkpt>
      <trkpt lat="48.02731" lon="-4.67313">
        <ele>41.95</ele>
        <time>2017-05-27T13:39:37Z</time>
      </trkpt>
      <trkpt lat="48.02727" lon="-4.67306">
        <ele>41.95</ele>
        <time>2017-05-27T13:39:43Z</time>
      </trkpt>
      <trkpt lat="48.02721" lon="-4.6727">
        <ele>42.92</ele>
        <time>2017-05-27T13:40:00Z</time>
      </trkpt>
      <trkpt lat="48.0271" lon="-4.67242">
        <ele>41.95</ele>
        <time>2017-05-27T13:40:16Z</time>
      </trkpt>
      <trkpt lat="48.02708" lon="-4.67217">
        <ele>41.47</ele>
        <time>2017-05-27T13:40:27Z</time>
      </trkpt>
      <trkpt lat="48.02706" lon="-4.67209">
        <ele>41.47</ele>
        <time>2017-05-27T13:40:31Z</time>
      </trkpt>
      <trkpt lat="48.02704" lon="-4.67189">
        <ele>44.36</ele>
        <time>2017-05-27T13:40:43Z</time>
      </trkpt>
      <trkpt lat="48.02704" lon="-4.67188">
        <ele>44.84</ele>
        <time>2017-05-27T13:40:44Z</time>
      </trkpt>
      <trkpt lat="48.02703" lon="-4.67182">
        <ele>45.8</ele>
        <time>2017-05-27T13:40:48Z</time>
      </trkpt>
      <trkpt lat="48.02699" lon="-4.67171">
        <ele>48.2</ele>
        <time>2017-05-27T13:41:03Z</time>
      </trkpt>
      <trkpt lat="48.02699" lon="-4.67169">
        <ele>48.68</ele>
        <time>2017-05-27T13:41:27Z</time>
      </trkpt>
      <trkpt lat="48.02699" lon="-4.67169">
        <ele>48.68</ele>
        <time>2017-05-27T13:42:01Z</time>
      </trkpt>
      <trkpt lat="48.02698" lon="-4.67168">
        <ele>48.68</ele>
        <time>2017-05-27T13:42:23Z</time>
      </trkpt>
      <trkpt lat="48.02698" lon="-4.67168">
        <ele>48.68</ele>
        <time>2017-05-27T13:42:47Z</time>
      </trkpt>
      <trkpt lat="48.02698" lon="-4.67168">
        <ele>48.68</ele>
        <time>2017-05-27T13:43:06Z</time>
      </trkpt>
      <trkpt lat="48.02698" lon="-4.67167">
        <ele>48.2</ele>
        <time>2017-05-27T13:43:24Z</time>
      </trkpt>
      <trkpt lat="48.02698" lon="-4.67167">
        <ele>48.68</ele>
        <time>2017-05-27T13:43:49Z</time>
      </trkpt>
      <trkpt lat="48.02698" lon="-4.67168">
        <ele>48.2</ele>
        <time>2017-05-27T13:44:16Z</time>
      </trkpt>
      <trkpt lat="48.02698" lon="-4.67168">
        <ele>48.2</ele>
        <time>2017-05-27T13:44:45Z</time>
      </trkpt>
      <trkpt lat="48.02698" lon="-4.67167">
        <ele>47.72</ele>
        <time>2017-05-27T13:45:13Z</time>
      </trkpt>
      <trkpt lat="48.02698" lon="-4.67167">
        <ele>47.72</ele>
        <time>2017-05-27T13:45:47Z</time>
      </trkpt>
      <trkpt lat="48.02698" lon="-4.67167">
        <ele>47.72</ele>
        <time>2017-05-27T13:46:22Z</time>
      </trkpt>
      <trkpt lat="48.02698" lon="-4.67167">
        <ele>48.2</ele>
        <time>2017-05-27T13:46:45Z</time>
      </trkpt>
      <trkpt lat="48.02697" lon="-4.67165">
        <ele>47.72</ele>
        <time>2017-05-27T13:47:13Z</time>
      </trkpt>
      <trkpt lat="48.02696" lon="-4.67158">
        <ele>47.72</ele>
        <time>2017-05-27T13:47:27Z</time>
      </trkpt>
      <trkpt lat="48.02695" lon="-4.67156">
        <ele>48.2</ele>
        <time>2017-05-27T13:47:28Z</time>
      </trkpt>
      <trkpt lat="48.02694" lon="-4.67152">
        <ele>48.2</ele>
        <time>2017-05-27T13:47:31Z</time>
      </trkpt>
      <trkpt lat="48.02688" lon="-4.67134">
        <ele>48.2</ele>
        <time>2017-05-27T13:47:40Z</time>
      </trkpt>
      <trkpt lat="48.02686" lon="-4.67127">
        <ele>47.72</ele>
        <time>2017-05-27T13:47:54Z</time>
      </trkpt>
      <trkpt lat="48.02685" lon="-4.67125">
        <ele>47.24</ele>
        <time>2017-05-27T13:47:59Z</time>
      </trkpt>
      <trkpt lat="48.02678" lon="-4.67111">
        <ele>44.36</ele>
        <time>2017-05-27T13:48:09Z</time>
      </trkpt>
      <trkpt lat="48.02677" lon="-4.67103">
        <ele>42.92</ele>
        <time>2017-05-27T13:48:14Z</time>
      </trkpt>
      <trkpt lat="48.02675" lon="-4.67091">
        <ele>41.47</ele>
        <time>2017-05-27T13:48:20Z</time>
      </trkpt>
      <trkpt lat="48.02673" lon="-4.67082">
        <ele>41.47</ele>
        <time>2017-05-27T13:48:23Z</time>
      </trkpt>
      <trkpt lat="48.02668" lon="-4.67062">
        <ele>38.11</ele>
        <time>2017-05-27T13:48:35Z</time>
      </trkpt>
      <trkpt lat="48.02667" lon="-4.67044">
        <ele>35.23</ele>
        <time>2017-05-27T13:48:43Z</time>
      </trkpt>
      <trkpt lat="48.02663" lon="-4.67031">
        <ele>34.74</ele>
        <time>2017-05-27T13:48:51Z</time>
      </trkpt>
      <trkpt lat="48.02663" lon="-4.67027">
        <ele>34.26</ele>
        <time>2017-05-27T13:48:54Z</time>
      </trkpt>
      <trkpt lat="48.02655" lon="-4.67001">
        <ele>33.3</ele>
        <time>2017-05-27T13:49:09Z</time>
      </trkpt>
      <trkpt lat="48.02653" lon="-4.66996">
        <ele>32.82</ele>
        <time>2017-05-27T13:49:12Z</time>
      </trkpt>
      <trkpt lat="48.0265" lon="-4.66972">
        <ele>29.46</ele>
        <time>2017-05-27T13:49:26Z</time>
      </trkpt>
      <trkpt lat="48.02649" lon="-4.66962">
        <ele>29.46</ele>
        <time>2017-05-27T13:49:35Z</time>
      </trkpt>
      <trkpt lat="48.02651" lon="-4.66948">
        <ele>28.98</ele>
        <time>2017-05-27T13:49:42Z</time>
      </trkpt>
      <trkpt lat="48.02653" lon="-4.66922">
        <ele>29.94</ele>
        <time>2017-05-27T13:49:56Z</time>
      </trkpt>
      <trkpt lat="48.02654" lon="-4.66915">
        <ele>29.94</ele>
        <time>2017-05-27T13:49:59Z</time>
      </trkpt>
      <trkpt lat="48.02648" lon="-4.66896">
        <ele>27.05</ele>
        <time>2017-05-27T13:50:14Z</time>
      </trkpt>
      <trkpt lat="48.02647" lon="-4.66875">
        <ele>28.02</ele>
        <time>2017-05-27T13:50:26Z</time>
      </trkpt>
      <trkpt lat="48.02648" lon="-4.66872">
        <ele>28.02</ele>
        <time>2017-05-27T13:50:29Z</time>
      </trkpt>
      <trkpt lat="48.02646" lon="-4.66859">
        <ele>28.02</ele>
        <time>2017-05-27T13:50:36Z</time>
      </trkpt>
      <trkpt lat="48.02645" lon="-4.66845">
        <ele>28.02</ele>
        <time>2017-05-27T13:50:41Z</time>
      </trkpt>
      <trkpt lat="48.02639" lon="-4.66824">
        <ele>27.05</ele>
        <time>2017-05-27T13:50:56Z</time>
      </trkpt>
      <trkpt lat="48.02637" lon="-4.66816">
        <ele>27.05</ele>
        <time>2017-05-27T13:51:01Z</time>
      </trkpt>
      <trkpt lat="48.0263" lon="-4.66789">
        <ele>27.05</ele>
        <time>2017-05-27T13:51:14Z</time>
      </trkpt>
      <trkpt lat="48.02622" lon="-4.66761">
        <ele>25.61</ele>
        <time>2017-05-27T13:51:30Z</time>
      </trkpt>
      <trkpt lat="48.0262" lon="-4.66757">
        <ele>25.13</ele>
        <time>2017-05-27T13:51:32Z</time>
      </trkpt>
      <trkpt lat="48.02617" lon="-4.66748">
        <ele>23.69</ele>
        <time>2017-05-27T13:51:38Z</time>
      </trkpt>
      <trkpt lat="48.02615" lon="-4.66727">
        <ele>22.25</ele>
        <time>2017-05-27T13:51:49Z</time>
      </trkpt>
      <trkpt lat="48.02616" lon="-4.66717">
        <ele>21.29</ele>
        <time>2017-05-27T13:51:54Z</time>
      </trkpt>
      <trkpt lat="48.02622" lon="-4.66704">
        <ele>20.81</ele>
        <time>2017-05-27T13:52:04Z</time>
      </trkpt>
      <trkpt lat="48.02625" lon="-4.667">
        <ele>18.88</ele>
        <time>2017-05-27T13:52:10Z</time>
      </trkpt>
      <trkpt lat="48.02626" lon="-4.66697">
        <ele>18.88</ele>
        <time>2017-05-27T13:52:12Z</time>
      </trkpt>
      <trkpt lat="48.02623" lon="-4.66692">
        <ele>16.96</ele>
        <time>2017-05-27T13:52:26Z</time>
      </trkpt>
      <trkpt lat="48.02624" lon="-4.66687">
        <ele>16</ele>
        <time>2017-05-27T13:52:36Z</time>
      </trkpt>
      <trkpt lat="48.02629" lon="-4.66682">
        <ele>15.04</ele>
        <time>2017-05-27T13:52:40Z</time>
      </trkpt>
      <trkpt lat="48.02632" lon="-4.66675">
        <ele>14.08</ele>
        <time>2017-05-27T13:52:44Z</time>
      </trkpt>
      <trkpt lat="48.02633" lon="-4.66664">
        <ele>12.63</ele>
        <time>2017-05-27T13:52:50Z</time>
      </trkpt>
      <trkpt lat="48.02629" lon="-4.66659">
        <ele>11.19</ele>
        <time>2017-05-27T13:52:54Z</time>
      </trkpt>
      <trkpt lat="48.02621" lon="-4.66641">
        <ele>12.63</ele>
        <time>2017-05-27T13:53:07Z</time>
      </trkpt>
      <trkpt lat="48.02622" lon="-4.66635">
        <ele>13.12</ele>
        <time>2017-05-27T13:53:12Z</time>
      </trkpt>
      <trkpt lat="48.02627" lon="-4.66629">
        <ele>15.04</ele>
        <time>2017-05-27T13:53:19Z</time>
      </trkpt>
      <trkpt lat="48.02636" lon="-4.66612">
        <ele>15.52</ele>
        <time>2017-05-27T13:53:33Z</time>
      </trkpt>
      <trkpt lat="48.02636" lon="-4.66609">
        <ele>16</ele>
        <time>2017-05-27T13:53:35Z</time>
      </trkpt>
      <trkpt lat="48.02643" lon="-4.66601">
        <ele>17.92</ele>
        <time>2017-05-27T13:53:43Z</time>
      </trkpt>
      <trkpt lat="48.02651" lon="-4.66594">
        <ele>19.84</ele>
        <time>2017-05-27T13:53:51Z</time>
      </trkpt>
      <trkpt lat="48.02653" lon="-4.66588">
        <ele>20.32</ele>
        <time>2017-05-27T13:53:54Z</time>
      </trkpt>
      <trkpt lat="48.02659" lon="-4.66585">
        <ele>21.29</ele>
        <time>2017-05-27T13:54:00Z</time>
      </trkpt>
      <trkpt lat="48.0266" lon="-4.66583">
        <ele>21.29</ele>
        <time>2017-05-27T13:54:02Z</time>
      </trkpt>
      <trkpt lat="48.02669" lon="-4.66564">
        <ele>21.77</ele>
        <time>2017-05-27T13:54:15Z</time>
      </trkpt>
      <trkpt lat="48.02669" lon="-4.66563">
        <ele>21.77</ele>
        <time>2017-05-27T13:54:16Z</time>
      </trkpt>
      <trkpt lat="48.02672" lon="-4.66557">
        <ele>21.77</ele>
        <time>2017-05-27T13:54:20Z</time>
      </trkpt>
      <trkpt lat="48.02676" lon="-4.66552">
        <ele>22.25</ele>
        <time>2017-05-27T13:54:24Z</time>
      </trkpt>
      <trkpt lat="48.02686" lon="-4.66528">
        <ele>23.69</ele>
        <time>2017-05-27T13:54:38Z</time>
      </trkpt>
      <trkpt lat="48.02689" lon="-4.66525">
        <ele>24.17</ele>
        <time>2017-05-27T13:54:42Z</time>
      </trkpt>
      <trkpt lat="48.02693" lon="-4.66521">
        <ele>24.17</ele>
        <time>2017-05-27T13:54:47Z</time>
      </trkpt>
      <trkpt lat="48.02694" lon="-4.66516">
        <ele>25.61</ele>
        <time>2017-05-27T13:54:52Z</time>
      </trkpt>
      <trkpt lat="48.02696" lon="-4.66506">
        <ele>25.61</ele>
        <time>2017-05-27T13:55:00Z</time>
      </trkpt>
      <trkpt lat="48.02698" lon="-4.66503">
        <ele>25.61</ele>
        <time>2017-05-27T13:55:02Z</time>
      </trkpt>
      <trkpt lat="48.02704" lon="-4.66486">
        <ele>24.65</ele>
        <time>2017-05-27T13:55:12Z</time>
      </trkpt>
      <trkpt lat="48.02705" lon="-4.66474">
        <ele>24.65</ele>
        <time>2017-05-27T13:55:19Z</time>
      </trkpt>
      <trkpt lat="48.02707" lon="-4.66464">
        <ele>24.17</ele>
        <time>2017-05-27T13:55:25Z</time>
      </trkpt>
      <trkpt lat="48.02706" lon="-4.66448">
        <ele>22.25</ele>
        <time>2017-05-27T13:55:39Z</time>
      </trkpt>
      <trkpt lat="48.02705" lon="-4.66439">
        <ele>21.29</ele>
        <time>2017-05-27T13:55:45Z</time>
      </trkpt>
      <trkpt lat="48.02703" lon="-4.66432">
        <ele>19.84</ele>
        <time>2017-05-27T13:55:50Z</time>
      </trkpt>
      <trkpt lat="48.02703" lon="-4.66427">
        <ele>18.88</ele>
        <time>2017-05-27T13:55:53Z</time>
      </trkpt>
      <trkpt lat="48.02702" lon="-4.6642">
        <ele>17.44</ele>
        <time>2017-05-27T13:55:57Z</time>
      </trkpt>
      <trkpt lat="48.02704" lon="-4.66414">
        <ele>16.96</ele>
        <time>2017-05-27T13:56:00Z</time>
      </trkpt>
      <trkpt lat="48.02708" lon="-4.66405">
        <ele>15.04</ele>
        <time>2017-05-27T13:56:08Z</time>
      </trkpt>
      <trkpt lat="48.02708" lon="-4.664">
        <ele>15.04</ele>
        <time>2017-05-27T13:56:11Z</time>
      </trkpt>
      <trkpt lat="48.02706" lon="-4.66379">
        <ele>17.44</ele>
        <time>2017-05-27T13:56:22Z</time>
      </trkpt>
      <trkpt lat="48.02707" lon="-4.66368">
        <ele>21.29</ele>
        <time>2017-05-27T13:56:35Z</time>
      </trkpt>
      <trkpt lat="48.02709" lon="-4.66359">
        <ele>22.73</ele>
        <time>2017-05-27T13:56:44Z</time>
      </trkpt>
      <trkpt lat="48.02706" lon="-4.66347">
        <ele>26.09</ele>
        <time>2017-05-27T13:56:53Z</time>
      </trkpt>
      <trkpt lat="48.02703" lon="-4.66341">
        <ele>27.53</ele>
        <time>2017-05-27T13:56:57Z</time>
      </trkpt>
      <trkpt lat="48.02686" lon="-4.66326">
        <ele>29.94</ele>
        <time>2017-05-27T13:57:13Z</time>
      </trkpt>
      <trkpt lat="48.02677" lon="-4.66323">
        <ele>28.98</ele>
        <time>2017-05-27T13:57:22Z</time>
      </trkpt>
      <trkpt lat="48.02669" lon="-4.66307">
        <ele>27.53</ele>
        <time>2017-05-27T13:57:31Z</time>
      </trkpt>
      <trkpt lat="48.02664" lon="-4.66293">
        <ele>28.5</ele>
        <time>2017-05-27T13:57:38Z</time>
      </trkpt>
      <trkpt lat="48.02662" lon="-4.66288">
        <ele>28.98</ele>
        <time>2017-05-27T13:57:40Z</time>
      </trkpt>
      <trkpt lat="48.02657" lon="-4.66281">
        <ele>29.94</ele>
        <time>2017-05-27T13:57:46Z</time>
      </trkpt>
      <trkpt lat="48.0265" lon="-4.66257">
        <ele>31.86</ele>
        <time>2017-05-27T13:57:58Z</time>
      </trkpt>
      <trkpt lat="48.02645" lon="-4.66249">
        <ele>32.34</ele>
        <time>2017-05-27T13:58:04Z</time>
      </trkpt>
      <trkpt lat="48.02641" lon="-4.66236">
        <ele>32.82</ele>
        <time>2017-05-27T13:58:12Z</time>
      </trkpt>
      <trkpt lat="48.02637" lon="-4.66226">
        <ele>33.3</ele>
        <time>2017-05-27T13:58:18Z</time>
      </trkpt>
      <trkpt lat="48.02636" lon="-4.66223">
        <ele>33.78</ele>
        <time>2017-05-27T13:58:32Z</time>
      </trkpt>
      <trkpt lat="48.02636" lon="-4.66221">
        <ele>33.3</ele>
        <time>2017-05-27T13:58:50Z</time>
      </trkpt>
      <trkpt lat="48.02636" lon="-4.66219">
        <ele>32.82</ele>
        <time>2017-05-27T13:59:23Z</time>
      </trkpt>
      <trkpt lat="48.02634" lon="-4.66219">
        <ele>33.3</ele>
        <time>2017-05-27T13:59:36Z</time>
      </trkpt>
      <trkpt lat="48.02627" lon="-4.66203">
        <ele>31.38</ele>
        <time>2017-05-27T13:59:52Z</time>
      </trkpt>
      <trkpt lat="48.02627" lon="-4.66203">
        <ele>30.42</ele>
        <time>2017-05-27T14:00:07Z</time>
      </trkpt>
      <trkpt lat="48.02627" lon="-4.66202">
        <ele>29.46</ele>
        <time>2017-05-27T14:00:45Z</time>
      </trkpt>
      <trkpt lat="48.02628" lon="-4.66202">
        <ele>29.94</ele>
        <time>2017-05-27T14:01:13Z</time>
      </trkpt>
      <trkpt lat="48.02628" lon="-4.66202">
        <ele>29.94</ele>
        <time>2017-05-27T14:01:51Z</time>
      </trkpt>
      <trkpt lat="48.02628" lon="-4.66202">
        <ele>30.42</ele>
        <time>2017-05-27T14:02:25Z</time>
      </trkpt>
      <trkpt lat="48.02628" lon="-4.66203">
        <ele>30.9</ele>
        <time>2017-05-27T14:03:02Z</time>
      </trkpt>
      <trkpt lat="48.02628" lon="-4.66203">
        <ele>30.9</ele>
        <time>2017-05-27T14:03:27Z</time>
      </trkpt>
      <trkpt lat="48.02628" lon="-4.66204">
        <ele>30.9</ele>
        <time>2017-05-27T14:03:48Z</time>
      </trkpt>
      <trkpt lat="48.02628" lon="-4.66205">
        <ele>30.42</ele>
        <time>2017-05-27T14:04:16Z</time>
      </trkpt>
      <trkpt lat="48.02629" lon="-4.66204">
        <ele>30.42</ele>
        <time>2017-05-27T14:04:46Z</time>
      </trkpt>
      <trkpt lat="48.02629" lon="-4.66204">
        <ele>29.94</ele>
        <time>2017-05-27T14:05:15Z</time>
      </trkpt>
      <trkpt lat="48.02629" lon="-4.66204">
        <ele>29.94</ele>
        <time>2017-05-27T14:05:40Z</time>
      </trkpt>
      <trkpt lat="48.02628" lon="-4.66204">
        <ele>30.42</ele>
        <time>2017-05-27T14:06:07Z</time>
      </trkpt>
      <trkpt lat="48.02628" lon="-4.66205">
        <ele>29.94</ele>
        <time>2017-05-27T14:06:43Z</time>
      </trkpt>
      <trkpt lat="48.02628" lon="-4.66204">
        <ele>30.42</ele>
        <time>2017-05-27T14:07:04Z</time>
      </trkpt>
      <trkpt lat="48.02628" lon="-4.66204">
        <ele>30.42</ele>
        <time>2017-05-27T14:07:29Z</time>
      </trkpt>
      <trkpt lat="48.02628" lon="-4.66203">
        <ele>30.42</ele>
        <time>2017-05-27T14:08:01Z</time>
      </trkpt>
      <trkpt lat="48.02627" lon="-4.66204">
        <ele>30.42</ele>
        <time>2017-05-27T14:08:22Z</time>
      </trkpt>
      <trkpt lat="48.02627" lon="-4.66204">
        <ele>30.42</ele>
        <time>2017-05-27T14:08:54Z</time>
      </trkpt>
      <trkpt lat="48.02627" lon="-4.66204">
        <ele>30.42</ele>
        <time>2017-05-27T14:09:20Z</time>
      </trkpt>
      <trkpt lat="48.02627" lon="-4.66204">
        <ele>30.42</ele>
        <time>2017-05-27T14:09:47Z</time>
      </trkpt>
      <trkpt lat="48.02627" lon="-4.66204">
        <ele>29.94</ele>
        <time>2017-05-27T14:10:22Z</time>
      </trkpt>
      <trkpt lat="48.02628" lon="-4.66203">
        <ele>30.42</ele>
        <time>2017-05-27T14:10:40Z</time>
      </trkpt>
      <trkpt lat="48.02628" lon="-4.66205">
        <ele>31.38</ele>
        <time>2017-05-27T14:11:18Z</time>
      </trkpt>
      <trkpt lat="48.02628" lon="-4.66205">
        <ele>31.86</ele>
        <time>2017-05-27T14:11:45Z</time>
      </trkpt>
      <trkpt lat="48.02628" lon="-4.66205">
        <ele>31.86</ele>
        <time>2017-05-27T14:12:16Z</time>
      </trkpt>
      <trkpt lat="48.02629" lon="-4.66205">
        <ele>31.86</ele>
        <time>2017-05-27T14:12:53Z</time>
      </trkpt>
      <trkpt lat="48.02628" lon="-4.66205">
        <ele>32.34</ele>
        <time>2017-05-27T14:13:32Z</time>
      </trkpt>
      <trkpt lat="48.02628" lon="-4.66205">
        <ele>32.82</ele>
        <time>2017-05-27T14:14:11Z</time>
      </trkpt>
      <trkpt lat="48.02628" lon="-4.66205">
        <ele>32.82</ele>
        <time>2017-05-27T14:14:39Z</time>
      </trkpt>
      <trkpt lat="48.02628" lon="-4.66205">
        <ele>33.3</ele>
        <time>2017-05-27T14:15:10Z</time>
      </trkpt>
      <trkpt lat="48.02629" lon="-4.66205">
        <ele>33.3</ele>
        <time>2017-05-27T14:15:41Z</time>
      </trkpt>
      <trkpt lat="48.02629" lon="-4.66205">
        <ele>33.78</ele>
        <time>2017-05-27T14:16:13Z</time>
      </trkpt>
      <trkpt lat="48.02629" lon="-4.66205">
        <ele>33.78</ele>
        <time>2017-05-27T14:16:46Z</time>
      </trkpt>
      <trkpt lat="48.02629" lon="-4.66205">
        <ele>33.78</ele>
        <time>2017-05-27T14:17:25Z</time>
      </trkpt>
      <trkpt lat="48.02629" lon="-4.66205">
        <ele>33.78</ele>
        <time>2017-05-27T14:18:04Z</time>
      </trkpt>
      <trkpt lat="48.02629" lon="-4.66205">
        <ele>33.78</ele>
        <time>2017-05-27T14:18:38Z</time>
      </trkpt>
      <trkpt lat="48.02629" lon="-4.66205">
        <ele>33.3</ele>
        <time>2017-05-27T14:19:15Z</time>
      </trkpt>
      <trkpt lat="48.02629" lon="-4.66205">
        <ele>33.3</ele>
        <time>2017-05-27T14:19:53Z</time>
      </trkpt>
      <trkpt lat="48.02629" lon="-4.66205">
        <ele>33.3</ele>
        <time>2017-05-27T14:20:30Z</time>
      </trkpt>
      <trkpt lat="48.02629" lon="-4.66205">
        <ele>33.3</ele>
        <time>2017-05-27T14:21:05Z</time>
      </trkpt>
      <trkpt lat="48.02629" lon="-4.66204">
        <ele>33.3</ele>
        <time>2017-05-27T14:21:40Z</time>
      </trkpt>
      <trkpt lat="48.02629" lon="-4.66205">
        <ele>32.82</ele>
        <time>2017-05-27T14:22:15Z</time>
      </trkpt>
      <trkpt lat="48.02629" lon="-4.66205">
        <ele>32.82</ele>
        <time>2017-05-27T14:23:02Z</time>
      </trkpt>
      <trkpt lat="48.02629" lon="-4.66205">
        <ele>32.82</ele>
        <time>2017-05-27T14:23:33Z</time>
      </trkpt>
      <trkpt lat="48.02628" lon="-4.66205">
        <ele>32.82</ele>
        <time>2017-05-27T14:23:34Z</time>
      </trkpt>
      <trkpt lat="48.02624" lon="-4.66203">
        <ele>32.34</ele>
        <time>2017-05-27T14:23:39Z</time>
      </trkpt>
      <trkpt lat="48.02621" lon="-4.66201">
        <ele>32.82</ele>
        <time>2017-05-27T14:23:42Z</time>
      </trkpt>
      <trkpt lat="48.02618" lon="-4.66199">
        <ele>32.82</ele>
        <time>2017-05-27T14:24:05Z</time>
      </trkpt>
      <trkpt lat="48.02618" lon="-4.66201">
        <ele>32.34</ele>
        <time>2017-05-27T14:24:27Z</time>
      </trkpt>
      <trkpt lat="48.02618" lon="-4.66201">
        <ele>31.86</ele>
        <time>2017-05-27T14:24:49Z</time>
      </trkpt>
      <trkpt lat="48.02617" lon="-4.66201">
        <ele>32.34</ele>
        <time>2017-05-27T14:25:00Z</time>
      </trkpt>
      <trkpt lat="48.02613" lon="-4.66202">
        <ele>32.34</ele>
        <time>2017-05-27T14:25:04Z</time>
      </trkpt>
      <trkpt lat="48.0261" lon="-4.66204">
        <ele>31.86</ele>
        <time>2017-05-27T14:25:06Z</time>
      </trkpt>
      <trkpt lat="48.02608" lon="-4.66206">
        <ele>31.38</ele>
        <time>2017-05-27T14:25:16Z</time>
      </trkpt>
      <trkpt lat="48.02596" lon="-4.6621">
        <ele>29.46</ele>
        <time>2017-05-27T14:25:24Z</time>
      </trkpt>
      <trkpt lat="48.02578" lon="-4.66219">
        <ele>26.09</ele>
        <time>2017-05-27T14:25:37Z</time>
      </trkpt>
      <trkpt lat="48.02563" lon="-4.6623">
        <ele>23.21</ele>
        <time>2017-05-27T14:25:52Z</time>
      </trkpt>
      <trkpt lat="48.02563" lon="-4.6623">
        <ele>23.21</ele>
        <time>2017-05-27T14:25:53Z</time>
      </trkpt>
      <trkpt lat="48.02557" lon="-4.66236">
        <ele>22.73</ele>
        <time>2017-05-27T14:25:58Z</time>
      </trkpt>
      <trkpt lat="48.02543" lon="-4.66251">
        <ele>22.25</ele>
        <time>2017-05-27T14:26:12Z</time>
      </trkpt>
      <trkpt lat="48.02541" lon="-4.66254">
        <ele>21.77</ele>
        <time>2017-05-27T14:26:14Z</time>
      </trkpt>
      <trkpt lat="48.02536" lon="-4.66255">
        <ele>20.32</ele>
        <time>2017-05-27T14:26:18Z</time>
      </trkpt>
      <trkpt lat="48.02531" lon="-4.66259">
        <ele>17.44</ele>
        <time>2017-05-27T14:26:26Z</time>
      </trkpt>
      <trkpt lat="48.02513" lon="-4.66241">
        <ele>17.44</ele>
        <time>2017-05-27T14:26:43Z</time>
      </trkpt>
      <trkpt lat="48.02503" lon="-4.66214">
        <ele>14.56</ele>
        <time>2017-05-27T14:26:58Z</time>
      </trkpt>
      <trkpt lat="48.025" lon="-4.66205">
        <ele>15.04</ele>
        <time>2017-05-27T14:27:17Z</time>
      </trkpt>
      <trkpt lat="48.02492" lon="-4.66171">
        <ele>16.48</ele>
        <time>2017-05-27T14:27:32Z</time>
      </trkpt>
      <trkpt lat="48.0249" lon="-4.66168">
        <ele>17.44</ele>
        <time>2017-05-27T14:27:35Z</time>
      </trkpt>
      <trkpt lat="48.02483" lon="-4.66159">
        <ele>19.36</ele>
        <time>2017-05-27T14:27:42Z</time>
      </trkpt>
      <trkpt lat="48.0248" lon="-4.66156">
        <ele>19.36</ele>
        <time>2017-05-27T14:27:44Z</time>
      </trkpt>
      <trkpt lat="48.02475" lon="-4.66143">
        <ele>19.36</ele>
        <time>2017-05-27T14:27:51Z</time>
      </trkpt>
      <trkpt lat="48.02473" lon="-4.66134">
        <ele>18.88</ele>
        <time>2017-05-27T14:27:55Z</time>
      </trkpt>
      <trkpt lat="48.02468" lon="-4.66107">
        <ele>16</ele>
        <time>2017-05-27T14:28:07Z</time>
      </trkpt>
      <trkpt lat="48.02464" lon="-4.66089">
        <ele>16.48</ele>
        <time>2017-05-27T14:28:20Z</time>
      </trkpt>
      <trkpt lat="48.0246" lon="-4.66078">
        <ele>17.44</ele>
        <time>2017-05-27T14:28:27Z</time>
      </trkpt>
      <trkpt lat="48.02457" lon="-4.66058">
        <ele>17.92</ele>
        <time>2017-05-27T14:28:39Z</time>
      </trkpt>
      <trkpt lat="48.0245" lon="-4.66043">
        <ele>20.81</ele>
        <time>2017-05-27T14:28:53Z</time>
      </trkpt>
      <trkpt lat="48.02448" lon="-4.6604">
        <ele>21.29</ele>
        <time>2017-05-27T14:28:56Z</time>
      </trkpt>
      <trkpt lat="48.02444" lon="-4.66024">
        <ele>22.25</ele>
        <time>2017-05-27T14:29:09Z</time>
      </trkpt>
      <trkpt lat="48.0244" lon="-4.66014">
        <ele>24.17</ele>
        <time>2017-05-27T14:29:22Z</time>
      </trkpt>
      <trkpt lat="48.02438" lon="-4.66005">
        <ele>23.69</ele>
        <time>2017-05-27T14:29:26Z</time>
      </trkpt>
      <trkpt lat="48.02439" lon="-4.66">
        <ele>23.21</ele>
        <time>2017-05-27T14:29:30Z</time>
      </trkpt>
      <trkpt lat="48.02435" lon="-4.65979">
        <ele>23.69</ele>
        <time>2017-05-27T14:29:43Z</time>
      </trkpt>
      <trkpt lat="48.02432" lon="-4.65966">
        <ele>24.17</ele>
        <time>2017-05-27T14:29:51Z</time>
      </trkpt>
      <trkpt lat="48.0243" lon="-4.65943">
        <ele>22.73</ele>
        <time>2017-05-27T14:30:07Z</time>
      </trkpt>
      <trkpt lat="48.02427" lon="-4.65927">
        <ele>24.65</ele>
        <time>2017-05-27T14:30:19Z</time>
      </trkpt>
      <trkpt lat="48.0242" lon="-4.65911">
        <ele>28.02</ele>
        <time>2017-05-27T14:30:32Z</time>
      </trkpt>
      <trkpt lat="48.02419" lon="-4.65909">
        <ele>28.5</ele>
        <time>2017-05-27T14:30:34Z</time>
      </trkpt>
      <trkpt lat="48.02416" lon="-4.65904">
        <ele>28.98</ele>
        <time>2017-05-27T14:30:37Z</time>
      </trkpt>
      <trkpt lat="48.02415" lon="-4.65901">
        <ele>29.94</ele>
        <time>2017-05-27T14:30:40Z</time>
      </trkpt>
      <trkpt lat="48.02412" lon="-4.65899">
        <ele>30.9</ele>
        <time>2017-05-27T14:30:43Z</time>
      </trkpt>
      <trkpt lat="48.02408" lon="-4.65891">
        <ele>32.82</ele>
        <time>2017-05-27T14:30:53Z</time>
      </trkpt>
      <trkpt lat="48.02408" lon="-4.65883">
        <ele>34.26</ele>
        <time>2017-05-27T14:31:01Z</time>
      </trkpt>
      <trkpt lat="48.02402" lon="-4.65877">
        <ele>34.26</ele>
        <time>2017-05-27T14:31:06Z</time>
      </trkpt>
      <trkpt lat="48.02403" lon="-4.65869">
        <ele>33.3</ele>
        <time>2017-05-27T14:31:15Z</time>
      </trkpt>
      <trkpt lat="48.02401" lon="-4.65845">
        <ele>28.98</ele>
        <time>2017-05-27T14:31:28Z</time>
      </trkpt>
      <trkpt lat="48.02407" lon="-4.65823">
        <ele>26.57</ele>
        <time>2017-05-27T14:31:42Z</time>
      </trkpt>
      <trkpt lat="48.02407" lon="-4.65815">
        <ele>27.05</ele>
        <time>2017-05-27T14:31:46Z</time>
      </trkpt>
      <trkpt lat="48.02406" lon="-4.65792">
        <ele>28.98</ele>
        <time>2017-05-27T14:31:55Z</time>
      </trkpt>
      <trkpt lat="48.02404" lon="-4.65785">
        <ele>30.42</ele>
        <time>2017-05-27T14:32:00Z</time>
      </trkpt>
      <trkpt lat="48.02396" lon="-4.65758">
        <ele>32.82</ele>
        <time>2017-05-27T14:32:17Z</time>
      </trkpt>
      <trkpt lat="48.02389" lon="-4.65741">
        <ele>37.15</ele>
        <time>2017-05-27T14:32:30Z</time>
      </trkpt>
      <trkpt lat="48.02381" lon="-4.65723">
        <ele>37.15</ele>
        <time>2017-05-27T14:32:41Z</time>
      </trkpt>
      <trkpt lat="48.02374" lon="-4.65706">
        <ele>37.63</ele>
        <time>2017-05-27T14:32:54Z</time>
      </trkpt>
      <trkpt lat="48.02374" lon="-4.65704">
        <ele>37.15</ele>
        <time>2017-05-27T14:32:55Z</time>
      </trkpt>
      <trkpt lat="48.02368" lon="-4.6568">
        <ele>35.71</ele>
        <time>2017-05-27T14:33:09Z</time>
      </trkpt>
      <trkpt lat="48.02366" lon="-4.65675">
        <ele>35.71</ele>
        <time>2017-05-27T14:33:12Z</time>
      </trkpt>
      <trkpt lat="48.02365" lon="-4.65663">
        <ele>36.19</ele>
        <time>2017-05-27T14:33:19Z</time>
      </trkpt>
      <trkpt lat="48.02355" lon="-4.65653">
        <ele>35.71</ele>
        <time>2017-05-27T14:33:32Z</time>
      </trkpt>
      <trkpt lat="48.02339" lon="-4.65643">
        <ele>31.86</ele>
        <time>2017-05-27T14:33:47Z</time>
      </trkpt>
      <trkpt lat="48.02321" lon="-4.65643">
        <ele>28.5</ele>
        <time>2017-05-27T14:34:00Z</time>
      </trkpt>
      <trkpt lat="48.02301" lon="-4.65639">
        <ele>24.65</ele>
        <time>2017-05-27T14:34:15Z</time>
      </trkpt>
      <trkpt lat="48.02288" lon="-4.65632">
        <ele>22.25</ele>
        <time>2017-05-27T14:34:28Z</time>
      </trkpt>
      <trkpt lat="48.02272" lon="-4.65614">
        <ele>21.29</ele>
        <time>2017-05-27T14:34:43Z</time>
      </trkpt>
      <trkpt lat="48.02269" lon="-4.65607">
        <ele>20.81</ele>
        <time>2017-05-27T14:34:47Z</time>
      </trkpt>
      <trkpt lat="48.02254" lon="-4.65583">
        <ele>19.36</ele>
        <time>2017-05-27T14:35:03Z</time>
      </trkpt>
      <trkpt lat="48.02246" lon="-4.65566">
        <ele>16.48</ele>
        <time>2017-05-27T14:35:16Z</time>
      </trkpt>
      <trkpt lat="48.02236" lon="-4.65535">
        <ele>15.52</ele>
        <time>2017-05-27T14:35:31Z</time>
      </trkpt>
      <trkpt lat="48.02234" lon="-4.65528">
        <ele>15.04</ele>
        <time>2017-05-27T14:35:35Z</time>
      </trkpt>
      <trkpt lat="48.02223" lon="-4.65486">
        <ele>16</ele>
        <time>2017-05-27T14:35:57Z</time>
      </trkpt>
      <trkpt lat="48.02224" lon="-4.65443">
        <ele>17.44</ele>
        <time>2017-05-27T14:36:19Z</time>
      </trkpt>
      <trkpt lat="48.0223" lon="-4.65413">
        <ele>19.36</ele>
        <time>2017-05-27T14:36:35Z</time>
      </trkpt>
      <trkpt lat="48.02239" lon="-4.65385">
        <ele>19.84</ele>
        <time>2017-05-27T14:36:50Z</time>
      </trkpt>
      <trkpt lat="48.02242" lon="-4.65359">
        <ele>19.84</ele>
        <time>2017-05-27T14:37:03Z</time>
      </trkpt>
      <trkpt lat="48.02245" lon="-4.6535">
        <ele>18.88</ele>
        <time>2017-05-27T14:37:07Z</time>
      </trkpt>
      <trkpt lat="48.02245" lon="-4.6532">
        <ele>19.36</ele>
        <time>2017-05-27T14:37:22Z</time>
      </trkpt>
      <trkpt lat="48.02239" lon="-4.65291">
        <ele>17.44</ele>
        <time>2017-05-27T14:37:37Z</time>
      </trkpt>
      <trkpt lat="48.02232" lon="-4.65271">
        <ele>15.04</ele>
        <time>2017-05-27T14:37:50Z</time>
      </trkpt>
      <trkpt lat="48.02232" lon="-4.65269">
        <ele>15.04</ele>
        <time>2017-05-27T14:37:51Z</time>
      </trkpt>
      <trkpt lat="48.02229" lon="-4.65242">
        <ele>15.52</ele>
        <time>2017-05-27T14:38:02Z</time>
      </trkpt>
      <trkpt lat="48.02226" lon="-4.65231">
        <ele>14.56</ele>
        <time>2017-05-27T14:38:10Z</time>
      </trkpt>
      <trkpt lat="48.02226" lon="-4.6522">
        <ele>15.04</ele>
        <time>2017-05-27T14:38:15Z</time>
      </trkpt>
      <trkpt lat="48.02227" lon="-4.65202">
        <ele>16</ele>
        <time>2017-05-27T14:38:25Z</time>
      </trkpt>
      <trkpt lat="48.02228" lon="-4.65182">
        <ele>15.04</ele>
        <time>2017-05-27T14:38:33Z</time>
      </trkpt>
      <trkpt lat="48.02225" lon="-4.65156">
        <ele>16.48</ele>
        <time>2017-05-27T14:38:47Z</time>
      </trkpt>
      <trkpt lat="48.02221" lon="-4.65137">
        <ele>15.04</ele>
        <time>2017-05-27T14:38:57Z</time>
      </trkpt>
      <trkpt lat="48.02221" lon="-4.65112">
        <ele>13.6</ele>
        <time>2017-05-27T14:39:09Z</time>
      </trkpt>
      <trkpt lat="48.02219" lon="-4.651">
        <ele>13.6</ele>
        <time>2017-05-27T14:39:16Z</time>
      </trkpt>
      <trkpt lat="48.02218" lon="-4.65089">
        <ele>13.12</ele>
        <time>2017-05-27T14:39:21Z</time>
      </trkpt>
      <trkpt lat="48.0222" lon="-4.65079">
        <ele>12.63</ele>
        <time>2017-05-27T14:39:27Z</time>
      </trkpt>
      <trkpt lat="48.02228" lon="-4.65066">
        <ele>13.6</ele>
        <time>2017-05-27T14:39:35Z</time>
      </trkpt>
      <trkpt lat="48.02244" lon="-4.65055">
        <ele>12.15</ele>
        <time>2017-05-27T14:39:49Z</time>
      </trkpt>
      <trkpt lat="48.02248" lon="-4.65053">
        <ele>12.63</ele>
        <time>2017-05-27T14:39:53Z</time>
      </trkpt>
      <trkpt lat="48.02254" lon="-4.65052">
        <ele>13.12</ele>
        <time>2017-05-27T14:39:58Z</time>
      </trkpt>
      <trkpt lat="48.02267" lon="-4.65055">
        <ele>13.6</ele>
        <time>2017-05-27T14:40:09Z</time>
      </trkpt>
      <trkpt lat="48.0228" lon="-4.6506">
        <ele>14.56</ele>
        <time>2017-05-27T14:40:20Z</time>
      </trkpt>
      <trkpt lat="48.02298" lon="-4.65062">
        <ele>16.48</ele>
        <time>2017-05-27T14:40:33Z</time>
      </trkpt>
      <trkpt lat="48.02303" lon="-4.65065">
        <ele>16.96</ele>
        <time>2017-05-27T14:40:37Z</time>
      </trkpt>
      <trkpt lat="48.02317" lon="-4.65068">
        <ele>18.88</ele>
        <time>2017-05-27T14:40:50Z</time>
      </trkpt>
      <trkpt lat="48.02319" lon="-4.65068">
        <ele>18.88</ele>
        <time>2017-05-27T14:40:52Z</time>
      </trkpt>
      <trkpt lat="48.02322" lon="-4.65066">
        <ele>18.88</ele>
        <time>2017-05-27T14:40:55Z</time>
      </trkpt>
      <trkpt lat="48.02328" lon="-4.65058">
        <ele>17.44</ele>
        <time>2017-05-27T14:41:03Z</time>
      </trkpt>
      <trkpt lat="48.02344" lon="-4.6504">
        <ele>15.52</ele>
        <time>2017-05-27T14:41:17Z</time>
      </trkpt>
      <trkpt lat="48.02352" lon="-4.65032">
        <ele>14.56</ele>
        <time>2017-05-27T14:41:26Z</time>
      </trkpt>
      <trkpt lat="48.02361" lon="-4.65021">
        <ele>12.63</ele>
        <time>2017-05-27T14:41:36Z</time>
      </trkpt>
      <trkpt lat="48.0237" lon="-4.64998">
        <ele>11.67</ele>
        <time>2017-05-27T14:41:51Z</time>
      </trkpt>
      <trkpt lat="48.02373" lon="-4.64992">
        <ele>9.27</ele>
        <time>2017-05-27T14:41:55Z</time>
      </trkpt>
      <trkpt lat="48.02377" lon="-4.64979">
        <ele>5.42</ele>
        <time>2017-05-27T14:42:05Z</time>
      </trkpt>
      <trkpt lat="48.02379" lon="-4.64948">
        <ele>7.35</ele>
        <time>2017-05-27T14:42:22Z</time>
      </trkpt>
      <trkpt lat="48.0238" lon="-4.64945">
        <ele>7.35</ele>
        <time>2017-05-27T14:42:24Z</time>
      </trkpt>
      <trkpt lat="48.02383" lon="-4.64923">
        <ele>10.23</ele>
        <time>2017-05-27T14:42:37Z</time>
      </trkpt>
      <trkpt lat="48.02383" lon="-4.6492">
        <ele>10.71</ele>
        <time>2017-05-27T14:42:40Z</time>
      </trkpt>
      <trkpt lat="48.02385" lon="-4.64914">
        <ele>10.71</ele>
        <time>2017-05-27T14:42:44Z</time>
      </trkpt>
      <trkpt lat="48.02388" lon="-4.64906">
        <ele>11.19</ele>
        <time>2017-05-27T14:42:50Z</time>
      </trkpt>
      <trkpt lat="48.0239" lon="-4.64902">
        <ele>11.67</ele>
        <time>2017-05-27T14:42:54Z</time>
      </trkpt>
      <trkpt lat="48.02386" lon="-4.64875">
        <ele>13.6</ele>
        <time>2017-05-27T14:43:09Z</time>
      </trkpt>
      <trkpt lat="48.02384" lon="-4.64868">
        <ele>14.08</ele>
        <time>2017-05-27T14:43:13Z</time>
      </trkpt>
      <trkpt lat="48.0238" lon="-4.64847">
        <ele>16.48</ele>
        <time>2017-05-27T14:43:25Z</time>
      </trkpt>
      <trkpt lat="48.02381" lon="-4.64838">
        <ele>17.92</ele>
        <time>2017-05-27T14:43:30Z</time>
      </trkpt>
      <trkpt lat="48.02378" lon="-4.64812">
        <ele>18.4</ele>
        <time>2017-05-27T14:43:44Z</time>
      </trkpt>
      <trkpt lat="48.02377" lon="-4.64807">
        <ele>19.36</ele>
        <time>2017-05-27T14:43:48Z</time>
      </trkpt>
      <trkpt lat="48.02379" lon="-4.64797">
        <ele>19.36</ele>
        <time>2017-05-27T14:43:55Z</time>
      </trkpt>
      <trkpt lat="48.02379" lon="-4.64781">
        <ele>19.36</ele>
        <time>2017-05-27T14:44:04Z</time>
      </trkpt>
      <trkpt lat="48.02374" lon="-4.64756">
        <ele>19.84</ele>
        <time>2017-05-27T14:44:19Z</time>
      </trkpt>
      <trkpt lat="48.02374" lon="-4.64739">
        <ele>21.29</ele>
        <time>2017-05-27T14:44:31Z</time>
      </trkpt>
      <trkpt lat="48.02367" lon="-4.64716">
        <ele>21.77</ele>
        <time>2017-05-27T14:44:46Z</time>
      </trkpt>
      <trkpt lat="48.02368" lon="-4.64712">
        <ele>22.25</ele>
        <time>2017-05-27T14:44:50Z</time>
      </trkpt>
      <trkpt lat="48.02367" lon="-4.64704">
        <ele>22.73</ele>
        <time>2017-05-27T14:44:55Z</time>
      </trkpt>
      <trkpt lat="48.02367" lon="-4.64694">
        <ele>23.21</ele>
        <time>2017-05-27T14:45:01Z</time>
      </trkpt>
      <trkpt lat="48.02369" lon="-4.64675">
        <ele>24.65</ele>
        <time>2017-05-27T14:45:12Z</time>
      </trkpt>
      <trkpt lat="48.0237" lon="-4.64662">
        <ele>24.65</ele>
        <time>2017-05-27T14:45:19Z</time>
      </trkpt>
      <trkpt lat="48.02372" lon="-4.64656">
        <ele>24.65</ele>
        <time>2017-05-27T14:45:23Z</time>
      </trkpt>
      <trkpt lat="48.02375" lon="-4.64641">
        <ele>24.65</ele>
        <time>2017-05-27T14:45:32Z</time>
      </trkpt>
      <trkpt lat="48.02378" lon="-4.64627">
        <ele>25.61</ele>
        <time>2017-05-27T14:45:40Z</time>
      </trkpt>
      <trkpt lat="48.02378" lon="-4.64603">
        <ele>27.05</ele>
        <time>2017-05-27T14:45:53Z</time>
      </trkpt>
      <trkpt lat="48.02379" lon="-4.64602">
        <ele>27.05</ele>
        <time>2017-05-27T14:45:54Z</time>
      </trkpt>
      <trkpt lat="48.02381" lon="-4.64596">
        <ele>27.05</ele>
        <time>2017-05-27T14:45:58Z</time>
      </trkpt>
      <trkpt lat="48.02383" lon="-4.64583">
        <ele>27.53</ele>
        <time>2017-05-27T14:46:06Z</time>
      </trkpt>
      <trkpt lat="48.02382" lon="-4.6457">
        <ele>28.5</ele>
        <time>2017-05-27T14:46:13Z</time>
      </trkpt>
      <trkpt lat="48.02383" lon="-4.64566">
        <ele>28.98</ele>
        <time>2017-05-27T14:46:17Z</time>
      </trkpt>
      <trkpt lat="48.02387" lon="-4.64548">
        <ele>30.9</ele>
        <time>2017-05-27T14:46:31Z</time>
      </trkpt>
      <trkpt lat="48.02391" lon="-4.64534">
        <ele>32.34</ele>
        <time>2017-05-27T14:46:41Z</time>
      </trkpt>
      <trkpt lat="48.02389" lon="-4.64522">
        <ele>31.86</ele>
        <time>2017-05-27T14:46:48Z</time>
      </trkpt>
      <trkpt lat="48.0239" lon="-4.64512">
        <ele>31.86</ele>
        <time>2017-05-27T14:46:54Z</time>
      </trkpt>
      <trkpt lat="48.0239" lon="-4.64493">
        <ele>34.74</ele>
        <time>2017-05-27T14:47:06Z</time>
      </trkpt>
      <trkpt lat="48.02388" lon="-4.64485">
        <ele>34.74</ele>
        <time>2017-05-27T14:47:10Z</time>
      </trkpt>
      <trkpt lat="48.02389" lon="-4.64477">
        <ele>36.67</ele>
        <time>2017-05-27T14:47:16Z</time>
      </trkpt>
      <trkpt lat="48.02385" lon="-4.64454">
        <ele>36.67</ele>
        <time>2017-05-27T14:47:31Z</time>
      </trkpt>
      <trkpt lat="48.02383" lon="-4.64431">
        <ele>35.71</ele>
        <time>2017-05-27T14:47:45Z</time>
      </trkpt>
      <trkpt lat="48.02385" lon="-4.64426">
        <ele>35.71</ele>
        <time>2017-05-27T14:47:49Z</time>
      </trkpt>
      <trkpt lat="48.02384" lon="-4.64412">
        <ele>35.71</ele>
        <time>2017-05-27T14:48:01Z</time>
      </trkpt>
      <trkpt lat="48.02382" lon="-4.64394">
        <ele>33.3</ele>
        <time>2017-05-27T14:48:15Z</time>
      </trkpt>
      <trkpt lat="48.02381" lon="-4.64392">
        <ele>32.82</ele>
        <time>2017-05-27T14:48:18Z</time>
      </trkpt>
      <trkpt lat="48.02378" lon="-4.64383">
        <ele>33.3</ele>
        <time>2017-05-27T14:48:25Z</time>
      </trkpt>
      <trkpt lat="48.02379" lon="-4.64375">
        <ele>33.3</ele>
        <time>2017-05-27T14:48:32Z</time>
      </trkpt>
      <trkpt lat="48.02382" lon="-4.64359">
        <ele>31.86</ele>
        <time>2017-05-27T14:48:44Z</time>
      </trkpt>
      <trkpt lat="48.02391" lon="-4.64343">
        <ele>29.46</ele>
        <time>2017-05-27T14:48:57Z</time>
      </trkpt>
      <trkpt lat="48.02393" lon="-4.64341">
        <ele>29.94</ele>
        <time>2017-05-27T14:48:59Z</time>
      </trkpt>
      <trkpt lat="48.02399" lon="-4.64337">
        <ele>31.38</ele>
        <time>2017-05-27T14:49:04Z</time>
      </trkpt>
      <trkpt lat="48.02408" lon="-4.64329">
        <ele>30.9</ele>
        <time>2017-05-27T14:49:15Z</time>
      </trkpt>
      <trkpt lat="48.02425" lon="-4.64323">
        <ele>29.94</ele>
        <time>2017-05-27T14:49:29Z</time>
      </trkpt>
      <trkpt lat="48.02439" lon="-4.64321">
        <ele>29.46</ele>
        <time>2017-05-27T14:49:40Z</time>
      </trkpt>
      <trkpt lat="48.02454" lon="-4.64306">
        <ele>26.57</ele>
        <time>2017-05-27T14:49:54Z</time>
      </trkpt>
      <trkpt lat="48.02463" lon="-4.64299">
        <ele>21.77</ele>
        <time>2017-05-27T14:50:04Z</time>
      </trkpt>
      <trkpt lat="48.02477" lon="-4.64289">
        <ele>20.32</ele>
        <time>2017-05-27T14:50:17Z</time>
      </trkpt>
      <trkpt lat="48.02488" lon="-4.64274">
        <ele>18.88</ele>
        <time>2017-05-27T14:50:30Z</time>
      </trkpt>
      <trkpt lat="48.02499" lon="-4.64261">
        <ele>16.96</ele>
        <time>2017-05-27T14:50:42Z</time>
      </trkpt>
      <trkpt lat="48.02511" lon="-4.64246">
        <ele>16</ele>
        <time>2017-05-27T14:50:53Z</time>
      </trkpt>
      <trkpt lat="48.02517" lon="-4.64236">
        <ele>13.6</ele>
        <time>2017-05-27T14:51:02Z</time>
      </trkpt>
      <trkpt lat="48.02522" lon="-4.64228">
        <ele>12.15</ele>
        <time>2017-05-27T14:51:07Z</time>
      </trkpt>
      <trkpt lat="48.02527" lon="-4.6422">
        <ele>10.71</ele>
        <time>2017-05-27T14:51:13Z</time>
      </trkpt>
      <trkpt lat="48.02534" lon="-4.6421">
        <ele>9.27</ele>
        <time>2017-05-27T14:51:22Z</time>
      </trkpt>
      <trkpt lat="48.02536" lon="-4.64204">
        <ele>8.31</ele>
        <time>2017-05-27T14:51:26Z</time>
      </trkpt>
      <trkpt lat="48.02542" lon="-4.64194">
        <ele>6.39</ele>
        <time>2017-05-27T14:51:34Z</time>
      </trkpt>
      <trkpt lat="48.02545" lon="-4.64191">
        <ele>5.91</ele>
        <time>2017-05-27T14:51:37Z</time>
      </trkpt>
      <trkpt lat="48.02555" lon="-4.64175">
        <ele>7.35</ele>
        <time>2017-05-27T14:51:48Z</time>
      </trkpt>
      <trkpt lat="48.02571" lon="-4.64157">
        <ele>8.79</ele>
        <time>2017-05-27T14:52:04Z</time>
      </trkpt>
      <trkpt lat="48.0258" lon="-4.64145">
        <ele>9.75</ele>
        <time>2017-05-27T14:52:13Z</time>
      </trkpt>
      <trkpt lat="48.02583" lon="-4.64142">
        <ele>9.75</ele>
        <time>2017-05-27T14:52:16Z</time>
      </trkpt>
      <trkpt lat="48.02595" lon="-4.64127">
        <ele>9.75</ele>
        <time>2017-05-27T14:52:29Z</time>
      </trkpt>
      <trkpt lat="48.02602" lon="-4.64125">
        <ele>5.91</ele>
        <time>2017-05-27T14:52:36Z</time>
      </trkpt>
      <trkpt lat="48.0262" lon="-4.64126">
        <ele>5.42</ele>
        <time>2017-05-27T14:52:50Z</time>
      </trkpt>
      <trkpt lat="48.02621" lon="-4.64126">
        <ele>5.42</ele>
        <time>2017-05-27T14:52:51Z</time>
      </trkpt>
      <trkpt lat="48.02627" lon="-4.64127">
        <ele>5.91</ele>
        <time>2017-05-27T14:52:57Z</time>
      </trkpt>
      <trkpt lat="48.02635" lon="-4.64124">
        <ele>4.94</ele>
        <time>2017-05-27T14:53:04Z</time>
      </trkpt>
      <trkpt lat="48.02644" lon="-4.64109">
        <ele>4.94</ele>
        <time>2017-05-27T14:53:18Z</time>
      </trkpt>
      <trkpt lat="48.02648" lon="-4.64105">
        <ele>5.42</ele>
        <time>2017-05-27T14:53:23Z</time>
      </trkpt>
      <trkpt lat="48.02651" lon="-4.64094">
        <ele>5.91</ele>
        <time>2017-05-27T14:53:29Z</time>
      </trkpt>
      <trkpt lat="48.02658" lon="-4.64086">
        <ele>6.87</ele>
        <time>2017-05-27T14:53:36Z</time>
      </trkpt>
      <trkpt lat="48.02664" lon="-4.64079">
        <ele>7.83</ele>
        <time>2017-05-27T14:53:42Z</time>
      </trkpt>
      <trkpt lat="48.02668" lon="-4.6407">
        <ele>8.79</ele>
        <time>2017-05-27T14:53:48Z</time>
      </trkpt>
      <trkpt lat="48.02673" lon="-4.64048">
        <ele>11.19</ele>
        <time>2017-05-27T14:54:03Z</time>
      </trkpt>
      <trkpt lat="48.02673" lon="-4.64046">
        <ele>11.19</ele>
        <time>2017-05-27T14:54:04Z</time>
      </trkpt>
      <trkpt lat="48.02678" lon="-4.64037">
        <ele>10.23</ele>
        <time>2017-05-27T14:54:16Z</time>
      </trkpt>
      <trkpt lat="48.0268" lon="-4.64038">
        <ele>10.23</ele>
        <time>2017-05-27T14:54:18Z</time>
      </trkpt>
      <trkpt lat="48.02687" lon="-4.64027">
        <ele>11.67</ele>
        <time>2017-05-27T14:54:28Z</time>
      </trkpt>
      <trkpt lat="48.0269" lon="-4.64019">
        <ele>12.63</ele>
        <time>2017-05-27T14:54:33Z</time>
      </trkpt>
      <trkpt lat="48.02695" lon="-4.64007">
        <ele>12.15</ele>
        <time>2017-05-27T14:54:41Z</time>
      </trkpt>
      <trkpt lat="48.02698" lon="-4.63997">
        <ele>9.75</ele>
        <time>2017-05-27T14:54:47Z</time>
      </trkpt>
      <trkpt lat="48.02703" lon="-4.63987">
        <ele>8.31</ele>
        <time>2017-05-27T14:54:55Z</time>
      </trkpt>
      <trkpt lat="48.02717" lon="-4.63977">
        <ele>6.39</ele>
        <time>2017-05-27T14:55:10Z</time>
      </trkpt>
      <trkpt lat="48.02718" lon="-4.63976">
        <ele>6.39</ele>
        <time>2017-05-27T14:55:11Z</time>
      </trkpt>
      <trkpt lat="48.02721" lon="-4.63969">
        <ele>4.94</ele>
        <time>2017-05-27T14:55:15Z</time>
      </trkpt>
      <trkpt lat="48.02721" lon="-4.63955">
        <ele>4.46</ele>
        <time>2017-05-27T14:55:24Z</time>
      </trkpt>
      <trkpt lat="48.02724" lon="-4.63943">
        <ele>4.94</ele>
        <time>2017-05-27T14:55:31Z</time>
      </trkpt>
      <trkpt lat="48.02729" lon="-4.63919">
        <ele>5.91</ele>
        <time>2017-05-27T14:55:46Z</time>
      </trkpt>
      <trkpt lat="48.02733" lon="-4.63899">
        <ele>6.87</ele>
        <time>2017-05-27T14:55:58Z</time>
      </trkpt>
      <trkpt lat="48.02738" lon="-4.63877">
        <ele>9.75</ele>
        <time>2017-05-27T14:56:12Z</time>
      </trkpt>
      <trkpt lat="48.02755" lon="-4.63857">
        <ele>10.71</ele>
        <time>2017-05-27T14:56:30Z</time>
      </trkpt>
      <trkpt lat="48.02762" lon="-4.63849">
        <ele>11.19</ele>
        <time>2017-05-27T14:56:37Z</time>
      </trkpt>
      <trkpt lat="48.0278" lon="-4.63831">
        <ele>11.67</ele>
        <time>2017-05-27T14:56:54Z</time>
      </trkpt>
      <trkpt lat="48.02785" lon="-4.63825">
        <ele>11.67</ele>
        <time>2017-05-27T14:56:59Z</time>
      </trkpt>
      <trkpt lat="48.02789" lon="-4.6382">
        <ele>11.67</ele>
        <time>2017-05-27T14:57:03Z</time>
      </trkpt>
      <trkpt lat="48.02796" lon="-4.63815">
        <ele>11.67</ele>
        <time>2017-05-27T14:57:09Z</time>
      </trkpt>
      <trkpt lat="48.02798" lon="-4.63812">
        <ele>12.15</ele>
        <time>2017-05-27T14:57:12Z</time>
      </trkpt>
      <trkpt lat="48.02809" lon="-4.63804">
        <ele>9.75</ele>
        <time>2017-05-27T14:57:20Z</time>
      </trkpt>
      <trkpt lat="48.02813" lon="-4.63799">
        <ele>8.31</ele>
        <time>2017-05-27T14:57:25Z</time>
      </trkpt>
      <trkpt lat="48.02815" lon="-4.63796">
        <ele>8.31</ele>
        <time>2017-05-27T14:57:28Z</time>
      </trkpt>
      <trkpt lat="48.02828" lon="-4.63785">
        <ele>10.71</ele>
        <time>2017-05-27T14:57:39Z</time>
      </trkpt>
      <trkpt lat="48.02832" lon="-4.63778">
        <ele>11.19</ele>
        <time>2017-05-27T14:57:43Z</time>
      </trkpt>
      <trkpt lat="48.02843" lon="-4.63762">
        <ele>9.75</ele>
        <time>2017-05-27T14:57:55Z</time>
      </trkpt>
      <trkpt lat="48.02848" lon="-4.63757">
        <ele>9.75</ele>
        <time>2017-05-27T14:58:00Z</time>
      </trkpt>
      <trkpt lat="48.02854" lon="-4.63749">
        <ele>9.75</ele>
        <time>2017-05-27T14:58:05Z</time>
      </trkpt>
      <trkpt lat="48.02859" lon="-4.63745">
        <ele>8.79</ele>
        <time>2017-05-27T14:58:09Z</time>
      </trkpt>
      <trkpt lat="48.0286" lon="-4.63742">
        <ele>8.79</ele>
        <time>2017-05-27T14:58:12Z</time>
      </trkpt>
      <trkpt lat="48.02868" lon="-4.63728">
        <ele>8.79</ele>
        <time>2017-05-27T14:58:26Z</time>
      </trkpt>
      <trkpt lat="48.0288" lon="-4.63712">
        <ele>7.83</ele>
        <time>2017-05-27T14:58:35Z</time>
      </trkpt>
      <trkpt lat="48.02885" lon="-4.63691">
        <ele>6.39</ele>
        <time>2017-05-27T14:58:48Z</time>
      </trkpt>
      <trkpt lat="48.02884" lon="-4.63686">
        <ele>5.91</ele>
        <time>2017-05-27T14:58:50Z</time>
      </trkpt>
      <trkpt lat="48.02887" lon="-4.63668">
        <ele>6.39</ele>
        <time>2017-05-27T14:59:00Z</time>
      </trkpt>
      <trkpt lat="48.02888" lon="-4.63663">
        <ele>6.39</ele>
        <time>2017-05-27T14:59:03Z</time>
      </trkpt>
      <trkpt lat="48.02886" lon="-4.63643">
        <ele>7.83</ele>
        <time>2017-05-27T14:59:13Z</time>
      </trkpt>
      <trkpt lat="48.02889" lon="-4.6362">
        <ele>9.27</ele>
        <time>2017-05-27T14:59:25Z</time>
      </trkpt>
      <trkpt lat="48.02896" lon="-4.63604">
        <ele>9.75</ele>
        <time>2017-05-27T14:59:37Z</time>
      </trkpt>
      <trkpt lat="48.02898" lon="-4.63592">
        <ele>9.27</ele>
        <time>2017-05-27T14:59:42Z</time>
      </trkpt>
      <trkpt lat="48.029" lon="-4.63579">
        <ele>10.23</ele>
        <time>2017-05-27T14:59:50Z</time>
      </trkpt>
      <trkpt lat="48.02901" lon="-4.63569">
        <ele>10.71</ele>
        <time>2017-05-27T14:59:54Z</time>
      </trkpt>
      <trkpt lat="48.02911" lon="-4.6354">
        <ele>10.71</ele>
        <time>2017-05-27T15:00:10Z</time>
      </trkpt>
      <trkpt lat="48.02916" lon="-4.63532">
        <ele>10.71</ele>
        <time>2017-05-27T15:00:15Z</time>
      </trkpt>
      <trkpt lat="48.02921" lon="-4.63526">
        <ele>11.67</ele>
        <time>2017-05-27T15:00:21Z</time>
      </trkpt>
      <trkpt lat="48.02931" lon="-4.6352">
        <ele>10.23</ele>
        <time>2017-05-27T15:00:30Z</time>
      </trkpt>
      <trkpt lat="48.02935" lon="-4.63515">
        <ele>10.71</ele>
        <time>2017-05-27T15:00:34Z</time>
      </trkpt>
      <trkpt lat="48.02945" lon="-4.635">
        <ele>10.23</ele>
        <time>2017-05-27T15:00:45Z</time>
      </trkpt>
      <trkpt lat="48.02948" lon="-4.63487">
        <ele>11.67</ele>
        <time>2017-05-27T15:00:52Z</time>
      </trkpt>
      <trkpt lat="48.02949" lon="-4.63484">
        <ele>11.67</ele>
        <time>2017-05-27T15:00:58Z</time>
      </trkpt>
      <trkpt lat="48.02951" lon="-4.63466">
        <ele>9.27</ele>
        <time>2017-05-27T15:01:10Z</time>
      </trkpt>
      <trkpt lat="48.02959" lon="-4.63436">
        <ele>7.83</ele>
        <time>2017-05-27T15:01:23Z</time>
      </trkpt>
      <trkpt lat="48.02959" lon="-4.6343">
        <ele>7.83</ele>
        <time>2017-05-27T15:01:25Z</time>
      </trkpt>
      <trkpt lat="48.02961" lon="-4.6342">
        <ele>5.42</ele>
        <time>2017-05-27T15:01:30Z</time>
      </trkpt>
      <trkpt lat="48.02962" lon="-4.63388">
        <ele>3.98</ele>
        <time>2017-05-27T15:01:47Z</time>
      </trkpt>
      <trkpt lat="48.02962" lon="-4.63373">
        <ele>4.46</ele>
        <time>2017-05-27T15:01:53Z</time>
      </trkpt>
      <trkpt lat="48.02964" lon="-4.63342">
        <ele>5.42</ele>
        <time>2017-05-27T15:02:09Z</time>
      </trkpt>
      <trkpt lat="48.02963" lon="-4.63305">
        <ele>5.91</ele>
        <time>2017-05-27T15:02:29Z</time>
      </trkpt>
      <trkpt lat="48.02959" lon="-4.6329">
        <ele>4.94</ele>
        <time>2017-05-27T15:02:41Z</time>
      </trkpt>
      <trkpt lat="48.02957" lon="-4.63284">
        <ele>4.46</ele>
        <time>2017-05-27T15:02:46Z</time>
      </trkpt>
      <trkpt lat="48.02955" lon="-4.63275">
        <ele>3.98</ele>
        <time>2017-05-27T15:02:50Z</time>
      </trkpt>
      <trkpt lat="48.0295" lon="-4.63265">
        <ele>3.98</ele>
        <time>2017-05-27T15:02:59Z</time>
      </trkpt>
      <trkpt lat="48.02947" lon="-4.63254">
        <ele>4.94</ele>
        <time>2017-05-27T15:03:06Z</time>
      </trkpt>
      <trkpt lat="48.02948" lon="-4.63245">
        <ele>5.91</ele>
        <time>2017-05-27T15:03:15Z</time>
      </trkpt>
      <trkpt lat="48.02942" lon="-4.63229">
        <ele>6.39</ele>
        <time>2017-05-27T15:03:22Z</time>
      </trkpt>
      <trkpt lat="48.0294" lon="-4.63225">
        <ele>7.35</ele>
        <time>2017-05-27T15:03:28Z</time>
      </trkpt>
      <trkpt lat="48.02936" lon="-4.63213">
        <ele>6.87</ele>
        <time>2017-05-27T15:03:33Z</time>
      </trkpt>
      <trkpt lat="48.02927" lon="-4.63195">
        <ele>7.35</ele>
        <time>2017-05-27T15:03:46Z</time>
      </trkpt>
      <trkpt lat="48.02921" lon="-4.63179">
        <ele>8.79</ele>
        <time>2017-05-27T15:03:58Z</time>
      </trkpt>
      <trkpt lat="48.02915" lon="-4.63163">
        <ele>12.15</ele>
        <time>2017-05-27T15:04:09Z</time>
      </trkpt>
      <trkpt lat="48.02912" lon="-4.63159">
        <ele>13.12</ele>
        <time>2017-05-27T15:04:11Z</time>
      </trkpt>
      <trkpt lat="48.02909" lon="-4.63155">
        <ele>11.19</ele>
        <time>2017-05-27T15:04:17Z</time>
      </trkpt>
      <trkpt lat="48.02906" lon="-4.63146">
        <ele>11.19</ele>
        <time>2017-05-27T15:04:21Z</time>
      </trkpt>
      <trkpt lat="48.02895" lon="-4.63126">
        <ele>8.79</ele>
        <time>2017-05-27T15:04:34Z</time>
      </trkpt>
      <trkpt lat="48.02889" lon="-4.63117">
        <ele>7.35</ele>
        <time>2017-05-27T15:04:48Z</time>
      </trkpt>
      <trkpt lat="48.02874" lon="-4.63099">
        <ele>7.83</ele>
        <time>2017-05-27T15:05:03Z</time>
      </trkpt>
      <trkpt lat="48.02853" lon="-4.63079">
        <ele>8.31</ele>
        <time>2017-05-27T15:05:18Z</time>
      </trkpt>
      <trkpt lat="48.02849" lon="-4.63075">
        <ele>7.35</ele>
        <time>2017-05-27T15:05:26Z</time>
      </trkpt>
      <trkpt lat="48.02829" lon="-4.63055">
        <ele>8.31</ele>
        <time>2017-05-27T15:05:42Z</time>
      </trkpt>
      <trkpt lat="48.02818" lon="-4.63039">
        <ele>9.75</ele>
        <time>2017-05-27T15:05:53Z</time>
      </trkpt>
      <trkpt lat="48.02812" lon="-4.63014">
        <ele>7.83</ele>
        <time>2017-05-27T15:06:05Z</time>
      </trkpt>
      <trkpt lat="48.02813" lon="-4.62993">
        <ele>6.87</ele>
        <time>2017-05-27T15:06:18Z</time>
      </trkpt>
      <trkpt lat="48.02812" lon="-4.62962">
        <ele>7.35</ele>
        <time>2017-05-27T15:06:33Z</time>
      </trkpt>
      <trkpt lat="48.02805" lon="-4.62956">
        <ele>6.39</ele>
        <time>2017-05-27T15:06:40Z</time>
      </trkpt>
      <trkpt lat="48.02779" lon="-4.62937">
        <ele>6.87</ele>
        <time>2017-05-27T15:06:55Z</time>
      </trkpt>
      <trkpt lat="48.02776" lon="-4.62935">
        <ele>7.35</ele>
        <time>2017-05-27T15:06:57Z</time>
      </trkpt>
      <trkpt lat="48.02765" lon="-4.62924">
        <ele>10.23</ele>
        <time>2017-05-27T15:07:12Z</time>
      </trkpt>
      <trkpt lat="48.02745" lon="-4.62921">
        <ele>8.31</ele>
        <time>2017-05-27T15:07:22Z</time>
      </trkpt>
      <trkpt lat="48.02736" lon="-4.62915">
        <ele>6.39</ele>
        <time>2017-05-27T15:07:32Z</time>
      </trkpt>
      <trkpt lat="48.02721" lon="-4.62909">
        <ele>6.39</ele>
        <time>2017-05-27T15:07:41Z</time>
      </trkpt>
      <trkpt lat="48.02718" lon="-4.62906">
        <ele>6.39</ele>
        <time>2017-05-27T15:07:43Z</time>
      </trkpt>
      <trkpt lat="48.02701" lon="-4.62891">
        <ele>9.75</ele>
        <time>2017-05-27T15:07:58Z</time>
      </trkpt>
      <trkpt lat="48.02685" lon="-4.62881">
        <ele>11.19</ele>
        <time>2017-05-27T15:08:12Z</time>
      </trkpt>
      <trkpt lat="48.02666" lon="-4.62863">
        <ele>10.71</ele>
        <time>2017-05-27T15:08:30Z</time>
      </trkpt>
      <trkpt lat="48.0265" lon="-4.62837">
        <ele>10.71</ele>
        <time>2017-05-27T15:08:48Z</time>
      </trkpt>
      <trkpt lat="48.0264" lon="-4.6281">
        <ele>12.63</ele>
        <time>2017-05-27T15:09:03Z</time>
      </trkpt>
      <trkpt lat="48.02636" lon="-4.62792">
        <ele>13.12</ele>
        <time>2017-05-27T15:09:14Z</time>
      </trkpt>
      <trkpt lat="48.02628" lon="-4.62765">
        <ele>10.23</ele>
        <time>2017-05-27T15:09:30Z</time>
      </trkpt>
      <trkpt lat="48.02621" lon="-4.62745">
        <ele>9.75</ele>
        <time>2017-05-27T15:09:39Z</time>
      </trkpt>
      <trkpt lat="48.02618" lon="-4.62729">
        <ele>8.79</ele>
        <time>2017-05-27T15:09:50Z</time>
      </trkpt>
      <trkpt lat="48.02618" lon="-4.62726">
        <ele>9.27</ele>
        <time>2017-05-27T15:09:52Z</time>
      </trkpt>
      <trkpt lat="48.02611" lon="-4.62695">
        <ele>9.75</ele>
        <time>2017-05-27T15:10:03Z</time>
      </trkpt>
      <trkpt lat="48.02608" lon="-4.62678">
        <ele>10.71</ele>
        <time>2017-05-27T15:10:16Z</time>
      </trkpt>
      <trkpt lat="48.02601" lon="-4.62647">
        <ele>11.67</ele>
        <time>2017-05-27T15:10:28Z</time>
      </trkpt>
      <trkpt lat="48.026" lon="-4.62641">
        <ele>12.15</ele>
        <time>2017-05-27T15:10:33Z</time>
      </trkpt>
      <trkpt lat="48.02591" lon="-4.62612">
        <ele>11.67</ele>
        <time>2017-05-27T15:10:46Z</time>
      </trkpt>
      <trkpt lat="48.0259" lon="-4.62594">
        <ele>12.63</ele>
        <time>2017-05-27T15:10:59Z</time>
      </trkpt>
      <trkpt lat="48.02589" lon="-4.62587">
        <ele>13.12</ele>
        <time>2017-05-27T15:11:02Z</time>
      </trkpt>
      <trkpt lat="48.02583" lon="-4.62553">
        <ele>16</ele>
        <time>2017-05-27T15:11:20Z</time>
      </trkpt>
      <trkpt lat="48.02583" lon="-4.62532">
        <ele>14.56</ele>
        <time>2017-05-27T15:11:33Z</time>
      </trkpt>
      <trkpt lat="48.02581" lon="-4.62498">
        <ele>14.08</ele>
        <time>2017-05-27T15:11:44Z</time>
      </trkpt>
      <trkpt lat="48.02579" lon="-4.6249">
        <ele>14.08</ele>
        <time>2017-05-27T15:11:48Z</time>
      </trkpt>
      <trkpt lat="48.02581" lon="-4.62479">
        <ele>14.08</ele>
        <time>2017-05-27T15:11:58Z</time>
      </trkpt>
      <trkpt lat="48.02583" lon="-4.62456">
        <ele>15.04</ele>
        <time>2017-05-27T15:12:07Z</time>
      </trkpt>
      <trkpt lat="48.02579" lon="-4.62442">
        <ele>15.52</ele>
        <time>2017-05-27T15:12:12Z</time>
      </trkpt>
      <trkpt lat="48.02579" lon="-4.6243">
        <ele>14.56</ele>
        <time>2017-05-27T15:12:22Z</time>
      </trkpt>
      <trkpt lat="48.02579" lon="-4.6241">
        <ele>15.04</ele>
        <time>2017-05-27T15:12:29Z</time>
      </trkpt>
      <trkpt lat="48.02579" lon="-4.62388">
        <ele>13.12</ele>
        <time>2017-05-27T15:12:43Z</time>
      </trkpt>
      <trkpt lat="48.0258" lon="-4.62378">
        <ele>13.6</ele>
        <time>2017-05-27T15:12:47Z</time>
      </trkpt>
      <trkpt lat="48.02578" lon="-4.62348">
        <ele>13.12</ele>
        <time>2017-05-27T15:13:00Z</time>
      </trkpt>
      <trkpt lat="48.02579" lon="-4.62317">
        <ele>14.08</ele>
        <time>2017-05-27T15:13:14Z</time>
      </trkpt>
      <trkpt lat="48.0258" lon="-4.62309">
        <ele>14.08</ele>
        <time>2017-05-27T15:13:18Z</time>
      </trkpt>
      <trkpt lat="48.02579" lon="-4.62298">
        <ele>14.56</ele>
        <time>2017-05-27T15:13:26Z</time>
      </trkpt>
      <trkpt lat="48.02581" lon="-4.62279">
        <ele>16</ele>
        <time>2017-05-27T15:13:33Z</time>
      </trkpt>
      <trkpt lat="48.02579" lon="-4.62264">
        <ele>15.52</ele>
        <time>2017-05-27T15:13:44Z</time>
      </trkpt>
      <trkpt lat="48.0258" lon="-4.62257">
        <ele>16</ele>
        <time>2017-05-27T15:13:47Z</time>
      </trkpt>
      <trkpt lat="48.0258" lon="-4.62231">
        <ele>16.96</ele>
        <time>2017-05-27T15:13:56Z</time>
      </trkpt>
      <trkpt lat="48.0258" lon="-4.6222">
        <ele>16.48</ele>
        <time>2017-05-27T15:14:01Z</time>
      </trkpt>
      <trkpt lat="48.02581" lon="-4.6219">
        <ele>19.36</ele>
        <time>2017-05-27T15:14:17Z</time>
      </trkpt>
      <trkpt lat="48.02579" lon="-4.62169">
        <ele>17.44</ele>
        <time>2017-05-27T15:14:25Z</time>
      </trkpt>
      <trkpt lat="48.02577" lon="-4.6216">
        <ele>15.04</ele>
        <time>2017-05-27T15:14:32Z</time>
      </trkpt>
      <trkpt lat="48.0258" lon="-4.62159">
        <ele>16</ele>
        <time>2017-05-27T15:14:35Z</time>
      </trkpt>
      <trkpt lat="48.02583" lon="-4.62139">
        <ele>17.44</ele>
        <time>2017-05-27T15:14:42Z</time>
      </trkpt>
      <trkpt lat="48.02585" lon="-4.62116">
        <ele>18.88</ele>
        <time>2017-05-27T15:14:56Z</time>
      </trkpt>
      <trkpt lat="48.0259" lon="-4.62085">
        <ele>16.48</ele>
        <time>2017-05-27T15:15:11Z</time>
      </trkpt>
      <trkpt lat="48.02593" lon="-4.62057">
        <ele>16.96</ele>
        <time>2017-05-27T15:15:26Z</time>
      </trkpt>
      <trkpt lat="48.02594" lon="-4.62054">
        <ele>17.92</ele>
        <time>2017-05-27T15:15:29Z</time>
      </trkpt>
      <trkpt lat="48.02598" lon="-4.62035">
        <ele>19.36</ele>
        <time>2017-05-27T15:15:36Z</time>
      </trkpt>
      <trkpt lat="48.026" lon="-4.62029">
        <ele>19.36</ele>
        <time>2017-05-27T15:15:41Z</time>
      </trkpt>
      <trkpt lat="48.02604" lon="-4.62015">
        <ele>19.36</ele>
        <time>2017-05-27T15:15:54Z</time>
      </trkpt>
      <trkpt lat="48.02606" lon="-4.61999">
        <ele>18.88</ele>
        <time>2017-05-27T15:15:59Z</time>
      </trkpt>
      <trkpt lat="48.02607" lon="-4.61965">
        <ele>20.32</ele>
        <time>2017-05-27T15:16:10Z</time>
      </trkpt>
      <trkpt lat="48.02609" lon="-4.61945">
        <ele>24.17</ele>
        <time>2017-05-27T15:16:23Z</time>
      </trkpt>
      <trkpt lat="48.0261" lon="-4.61942">
        <ele>24.65</ele>
        <time>2017-05-27T15:16:26Z</time>
      </trkpt>
      <trkpt lat="48.02613" lon="-4.61933">
        <ele>24.65</ele>
        <time>2017-05-27T15:16:30Z</time>
      </trkpt>
      <trkpt lat="48.02613" lon="-4.61923">
        <ele>24.17</ele>
        <time>2017-05-27T15:16:34Z</time>
      </trkpt>
      <trkpt lat="48.02614" lon="-4.61905">
        <ele>21.77</ele>
        <time>2017-05-27T15:16:47Z</time>
      </trkpt>
      <trkpt lat="48.02615" lon="-4.61902">
        <ele>21.77</ele>
        <time>2017-05-27T15:16:48Z</time>
      </trkpt>
      <trkpt lat="48.02616" lon="-4.61881">
        <ele>21.77</ele>
        <time>2017-05-27T15:16:55Z</time>
      </trkpt>
      <trkpt lat="48.02618" lon="-4.61853">
        <ele>23.69</ele>
        <time>2017-05-27T15:17:10Z</time>
      </trkpt>
      <trkpt lat="48.02618" lon="-4.61848">
        <ele>23.69</ele>
        <time>2017-05-27T15:17:20Z</time>
      </trkpt>
      <trkpt lat="48.02617" lon="-4.6184">
        <ele>23.69</ele>
        <time>2017-05-27T15:17:25Z</time>
      </trkpt>
      <trkpt lat="48.02616" lon="-4.61829">
        <ele>25.61</ele>
        <time>2017-05-27T15:17:30Z</time>
      </trkpt>
      <trkpt lat="48.02617" lon="-4.61821">
        <ele>26.09</ele>
        <time>2017-05-27T15:17:34Z</time>
      </trkpt>
      <trkpt lat="48.02623" lon="-4.61806">
        <ele>26.09</ele>
        <time>2017-05-27T15:17:41Z</time>
      </trkpt>
      <trkpt lat="48.02625" lon="-4.61784">
        <ele>29.46</ele>
        <time>2017-05-27T15:17:53Z</time>
      </trkpt>
      <trkpt lat="48.02631" lon="-4.61759">
        <ele>29.94</ele>
        <time>2017-05-27T15:18:09Z</time>
      </trkpt>
      <trkpt lat="48.02641" lon="-4.61737">
        <ele>31.38</ele>
        <time>2017-05-27T15:18:24Z</time>
      </trkpt>
      <trkpt lat="48.02645" lon="-4.61725">
        <ele>32.34</ele>
        <time>2017-05-27T15:18:32Z</time>
      </trkpt>
      <trkpt lat="48.02659" lon="-4.61697">
        <ele>31.38</ele>
        <time>2017-05-27T15:18:47Z</time>
      </trkpt>
      <trkpt lat="48.02662" lon="-4.61689">
        <ele>31.86</ele>
        <time>2017-05-27T15:18:53Z</time>
      </trkpt>
      <trkpt lat="48.0267" lon="-4.61669">
        <ele>31.86</ele>
        <time>2017-05-27T15:19:01Z</time>
      </trkpt>
      <trkpt lat="48.02674" lon="-4.61662">
        <ele>34.26</ele>
        <time>2017-05-27T15:19:09Z</time>
      </trkpt>
      <trkpt lat="48.02677" lon="-4.61654">
        <ele>36.19</ele>
        <time>2017-05-27T15:19:15Z</time>
      </trkpt>
      <trkpt lat="48.02681" lon="-4.61644">
        <ele>37.63</ele>
        <time>2017-05-27T15:19:19Z</time>
      </trkpt>
      <trkpt lat="48.02695" lon="-4.61616">
        <ele>38.59</ele>
        <time>2017-05-27T15:19:36Z</time>
      </trkpt>
      <trkpt lat="48.02701" lon="-4.61598">
        <ele>36.67</ele>
        <time>2017-05-27T15:19:47Z</time>
      </trkpt>
      <trkpt lat="48.02703" lon="-4.61585">
        <ele>37.63</ele>
        <time>2017-05-27T15:19:54Z</time>
      </trkpt>
      <trkpt lat="48.02704" lon="-4.61575">
        <ele>38.11</ele>
        <time>2017-05-27T15:20:00Z</time>
      </trkpt>
      <trkpt lat="48.02705" lon="-4.61566">
        <ele>38.11</ele>
        <time>2017-05-27T15:20:05Z</time>
      </trkpt>
      <trkpt lat="48.02707" lon="-4.61555">
        <ele>38.11</ele>
        <time>2017-05-27T15:20:10Z</time>
      </trkpt>
      <trkpt lat="48.02706" lon="-4.61545">
        <ele>39.07</ele>
        <time>2017-05-27T15:20:14Z</time>
      </trkpt>
      <trkpt lat="48.02708" lon="-4.6154">
        <ele>39.55</ele>
        <time>2017-05-27T15:20:19Z</time>
      </trkpt>
      <trkpt lat="48.0271" lon="-4.61537">
        <ele>39.55</ele>
        <time>2017-05-27T15:20:24Z</time>
      </trkpt>
      <trkpt lat="48.02712" lon="-4.61525">
        <ele>39.55</ele>
        <time>2017-05-27T15:20:29Z</time>
      </trkpt>
      <trkpt lat="48.02711" lon="-4.61489">
        <ele>40.99</ele>
        <time>2017-05-27T15:20:43Z</time>
      </trkpt>
      <trkpt lat="48.02713" lon="-4.6146">
        <ele>41.95</ele>
        <time>2017-05-27T15:20:59Z</time>
      </trkpt>
      <trkpt lat="48.02712" lon="-4.61448">
        <ele>40.99</ele>
        <time>2017-05-27T15:21:03Z</time>
      </trkpt>
      <trkpt lat="48.02713" lon="-4.61425">
        <ele>39.55</ele>
        <time>2017-05-27T15:21:15Z</time>
      </trkpt>
      <trkpt lat="48.02714" lon="-4.61395">
        <ele>39.07</ele>
        <time>2017-05-27T15:21:31Z</time>
      </trkpt>
      <trkpt lat="48.02712" lon="-4.61355">
        <ele>39.07</ele>
        <time>2017-05-27T15:21:49Z</time>
      </trkpt>
      <trkpt lat="48.02709" lon="-4.61317">
        <ele>39.55</ele>
        <time>2017-05-27T15:22:04Z</time>
      </trkpt>
      <trkpt lat="48.02709" lon="-4.61308">
        <ele>41.47</ele>
        <time>2017-05-27T15:22:10Z</time>
      </trkpt>
      <trkpt lat="48.0271" lon="-4.61291">
        <ele>42.44</ele>
        <time>2017-05-27T15:22:22Z</time>
      </trkpt>
      <trkpt lat="48.02707" lon="-4.61255">
        <ele>42.44</ele>
        <time>2017-05-27T15:22:41Z</time>
      </trkpt>
      <trkpt lat="48.02694" lon="-4.61219">
        <ele>42.44</ele>
        <time>2017-05-27T15:22:58Z</time>
      </trkpt>
      <trkpt lat="48.0268" lon="-4.61191">
        <ele>41.95</ele>
        <time>2017-05-27T15:23:12Z</time>
      </trkpt>
      <trkpt lat="48.02671" lon="-4.61177">
        <ele>41.95</ele>
        <time>2017-05-27T15:23:22Z</time>
      </trkpt>
      <trkpt lat="48.02656" lon="-4.61162">
        <ele>43.88</ele>
        <time>2017-05-27T15:23:39Z</time>
      </trkpt>
      <trkpt lat="48.02628" lon="-4.61148">
        <ele>46.76</ele>
        <time>2017-05-27T15:23:57Z</time>
      </trkpt>
      <trkpt lat="48.02606" lon="-4.61141">
        <ele>46.28</ele>
        <time>2017-05-27T15:24:10Z</time>
      </trkpt>
      <trkpt lat="48.02596" lon="-4.61138">
        <ele>46.28</ele>
        <time>2017-05-27T15:24:23Z</time>
      </trkpt>
      <trkpt lat="48.02581" lon="-4.61124">
        <ele>48.68</ele>
        <time>2017-05-27T15:24:34Z</time>
      </trkpt>
      <trkpt lat="48.0258" lon="-4.61119">
        <ele>49.65</ele>
        <time>2017-05-27T15:24:38Z</time>
      </trkpt>
      <trkpt lat="48.02581" lon="-4.61094">
        <ele>54.93</ele>
        <time>2017-05-27T15:24:52Z</time>
      </trkpt>
      <trkpt lat="48.02573" lon="-4.61063">
        <ele>56.37</ele>
        <time>2017-05-27T15:25:04Z</time>
      </trkpt>
      <trkpt lat="48.02557" lon="-4.61061">
        <ele>53.01</ele>
        <time>2017-05-27T15:25:15Z</time>
      </trkpt>
      <trkpt lat="48.02556" lon="-4.6106">
        <ele>52.05</ele>
        <time>2017-05-27T15:25:17Z</time>
      </trkpt>
      <trkpt lat="48.02553" lon="-4.61051">
        <ele>50.61</ele>
        <time>2017-05-27T15:25:26Z</time>
      </trkpt>
      <trkpt lat="48.02558" lon="-4.61044">
        <ele>50.13</ele>
        <time>2017-05-27T15:25:41Z</time>
      </trkpt>
    </trkseg>
  </trk>
</gpx>